     2              OBSERVATION DATA    GPS                 RINEX VERSION / TYPE
teqc 1999Jul19 20000115 03:14:32UTC                         PGM / RUN BY / DATE
                                                            COMMENT
Original Marker Name: 7000                                  COMMENT
Campaign Name: hector mine                                  COMMENT
4-Character Station Name: 7000                              COMMENT
6-Character Antenna Code: DMRCHT                            COMMENT
Vertical Measurement Point: BCR                             COMMENT
Vertical Offset to Rinex Ref. Point: 0.0348                 COMMENT
Radial Measurement Point: ECF                               COMMENT
Radial Offset to Rinex Ref. Point: 0.1897                   COMMENT
Antenna Height from Field Measurement: 0.6720 m             COMMENT
Additional Antenna Identification Info.:                    COMMENT
Turborogue and Ashtech Choke Ring                           COMMENT
                                                            COMMENT
Original XYZ: -2381317.6286 -4697520.2476 3587330.6246      COMMENT
New XYZ position is based on association with SCEC monument COMMENT
E1F2K4N0+0011. Position of that monument is believed to be  COMMENT
valid to within 1 m horizontally; vertical accuracy         COMMENT
should be no worse than 3-times this value.                 COMMENT
                                                            COMMENT
Revised Rinex header created by UCSD GPS archive for        COMMENT
GSAC on 10-Mar-2000 (2000:070) 03:17:46 GMT                 COMMENT
For assistance contact dagnew@ucsd.edu or hjohnson@ucsd.edu COMMENT
                                                            COMMENT
T7N S19 S30 R3E                                             MARKER NAME
MIT US LAND MANMAGMENT                                      OBSERVER / AGENCY
192 ASHTECH Z-XII3 CD00                                     REC # / TYPE / VERS
381 DORNE-MARGOL. TYPE T                                    ANT # / TYPE
 -2361085.8460 -4691247.8934  3609066.5026                  APPROX POSITION XYZ
        0.6099        0.0000        0.0000                  ANTENNA: DELTA H/E/N
     1     1     0                                          WAVELENGTH FACT L1/2
     7    C1    L1    L2    P1    P2    S1    S2            # / TYPES OF OBSERV
     0                                                      INTERVAL
  2000     1     6    20    32    0.000000                  TIME OF FIRST OBS
  2000     1     6    23    59    0.000000                  TIME OF LAST OBS
                                                            END OF HEADER
 00  1  6 20 32  0.0000000  0  8G 2G27G31G18G15G19G10G11
                   -137118.68349    -99611.60243
       243.000          74.000
  20627331.458     -107490.66449    -76062.39248  20627331.206    20627339.658
       244.000         213.000
                    127572.41649     91351.57145                  22161730.075
       219.000         150.000
  24062748.680      209323.83749    148720.60445  24062747.806    24062763.055
       214.000         149.000
                   -101982.11849    -51045.57143
       213.000          74.000
                     31867.87249     23130.70543
       240.000          74.000
                     24781.41149     15150.28743
       208.000          74.000
                   -177386.51049   -120985.70843
       215.000          74.000
 00  1  6 20 32 30.0000000  0 10G 2G27G31G18G15G 7G 8G19G10G11
                   -192145.71549     -8881.02745                  21759021.196
       243.000         156.000
  20619303.612     -149677.08849   -108934.92248  20619303.603    20619311.805
       244.000         215.000
  22173721.008      190646.98749    140500.48245  22173720.872    22173732.667
       217.000         158.000
  24078742.720      293371.96149    214212.36145  24078742.573    24078757.699
       215.000         152.000
                   -176468.26149   -109086.70244                  24915407.110
       216.000         131.000
  23112603.856     -400457.25749   -283678.12646  23112603.338    23112615.554
       223.000         171.000
  23414581.085     -365467.49449   -265505.81145  23414581.313    23414592.328
       214.000         155.000
                     45488.34949      2260.87243
       239.000          74.000
                     47356.82049     32639.65943
       207.000          74.000
                   -259725.08449   -185134.01243
       215.000          74.000
 00  1  6 20 33  0.0000000  0  9G 2G27G31G18G 7G 8G19G10G11
  21467752.837    -1722725.39749  -1201540.46747  21467752.414    21467761.490
       243.000         206.000
  20330519.558    -1667248.58649  -1291458.16048  20330519.434    20330527.511
       244.000         215.000
  23403930.972    -1221658.55249   -959997.42145  23403930.916    23403941.877
       218.000         160.000
  23813925.929    -1098251.53249   -870169.86645  23813925.822    23813941.645
       213.000         153.000
  22807790.355    -2002259.24449  -1531835.34446  22807790.525    22807802.749
       223.000         173.000
  23111229.747    -1959595.05749  -1507682.98145  23111228.489    23111240.477
       215.000         156.000
                  -1416274.57249  -1136581.21543
       239.000          74.000
                  -1405530.81349  -1099582.29143
       205.000          74.000
                  -1817563.36949  -1201549.78843
       216.000          74.000
 00  1  6 20 33 30.0000000  0 10G 2G26G27G31G18G 7G 8G19G10G11
  21463084.965    -1747255.21049  -1220654.56347  21463084.376    21463093.704
       243.000         211.000
                  -1852364.32549  -1427807.99945                  24270281.518
       207.000         139.000
  20328357.357    -1678610.82849  -1300311.84548  20328357.181    20328365.290
       244.000         214.000
  23421798.032    -1127767.04749   -886835.27945  23421797.857    23421808.852
       215.000         160.000
  23835675.200     -983958.20449   -781110.42845  23835674.986    23835690.786
       214.000         154.000
  22789582.484    -2097943.71949  -1606394.50146  22789582.330    22789594.168
       223.000         173.000
  23094437.248    -2047837.76449  -1576443.39145  23094436.694    23094448.027
       213.000         157.000
                  -1371837.28749  -1101691.38143
       239.000          74.000
                  -1352300.01549  -1111982.41443
       204.000          74.000
                  -1869308.97849  -1241870.93644                  24490237.781
       216.000         122.000
 00  1  6 20 34  0.0000000  0  9G 2G26G27G31G18G 7G 8G19G11
  21458453.139    -1771595.63749  -1239621.08647  21458452.732    21458461.684
       243.000         212.000
  24253638.604    -1939749.21549  -1495899.87945  24253638.615    24253652.144
       208.000         148.000
  20326260.567    -1689629.45649  -1308897.78448  20326260.493    20326268.535
       244.000         214.000
  23439727.784    -1033545.93949   -813416.30645  23439727.364    23439739.347
       216.000         161.000
  23857435.991     -869605.54849   -692004.75245  23857432.873    23857452.569
       216.000         151.000
  22771420.665    -2193384.74949  -1680763.97146  22771422.762    22771433.995
       215.000         168.000
  23077651.096    -2136048.31749  -1645178.76345  23077650.445    23077662.346
       213.000         157.000
                  -1327063.72749  -1101848.51343                  21196899.253
       239.000          74.000
  24480422.947    -1920815.87749  -1282006.03545  24480422.526    24480434.729
       214.000         138.000
 00  1  6 20 34 30.0000000  0  9G 2G26G27G31G18G 7G 8G19G11
  21453857.734    -1795744.77349  -1258438.54947  21453857.304    21453866.188
       244.000         212.000
  24237062.259    -2026857.27649  -1563776.03845  24237062.161    24237075.639
       210.000         151.000
  20324228.396    -1700308.47149  -1317219.08248  20324228.080    20324236.236
       244.000         214.000
  23457719.111     -939000.87849   -739744.92645  23457719.079    23457730.462
       219.000         161.000
  23879209.827     -755183.78949   -602845.25045  23879210.067    23879225.955
       213.000         154.000
  22753304.445    -2288585.78249  -1754946.42846  22753303.816    22753315.882
       224.000         173.000
  23060873.174    -2224215.95249  -1713880.70245  23060871.991    23060885.078
       215.000         157.000
  21205470.474    -1281956.13049  -1066699.81947  21205470.588    21205480.053
       240.000         195.000
  24470666.089    -1972087.82649  -1321958.03945  24470664.102    24470678.322
       214.000         139.000
 00  1  6 20 35  0.0000000  0  9G 2G26G27G31G18G 7G 8G19G11
  21449299.763    -1819697.27549  -1277102.78847  21449299.319    21449308.331
       244.000         212.000
  24220538.888    -2113687.56849  -1631435.75945  24220538.740    24220552.375
       210.000         153.000
  20322261.572    -1710644.17749  -1325272.87048  20322261.411    20322269.551
       244.000         214.000
  23475767.871     -844154.25349   -665838.55245  23475767.185    23475779.803
       216.000         161.000
  23900999.792     -640678.12249   -513620.35745  23900999.732    23901015.863
       215.000         155.000
  22735232.405    -2383554.84749  -1828948.12346  22735231.787    22735243.913
       222.000         174.000
  23044102.706    -2312344.41849  -1782552.12845  23044101.810    23044113.958
       214.000         158.000
  21214113.933    -1236534.73449  -1031306.55247  21214113.785    21214123.194
       240.000         200.000
  24460951.878    -2023135.70049  -1361735.45545  24460951.815    24460963.864
       213.000         139.000
 00  1  6 20 35 30.0000000  0  9G 2G26G27G31G18G 7G 8G19G11
  21444780.206    -1843447.66149  -1295609.51847  21444779.618    21444788.685
       244.000         212.000
  24204070.142    -2200230.89749  -1698871.86645  24204070.241    24204083.240
       211.000         152.000
  20320360.416    -1720634.92149  -1333057.84648  20320360.097    20320368.323
       243.000         214.000
  23493869.097     -749031.61849   -591717.08345  23493868.623    23493880.937
       211.000         161.000
  23922805.930     -526087.29849   -424329.12645  23922805.856    23922822.299
       216.000         156.000
  22717200.137    -2478314.38149  -1902786.54046  22717199.420    22717211.383
       224.000         174.000
  23027337.789    -2400444.46149  -1851201.40145  23027337.116    23027348.594
       216.000         160.000
  21222816.295    -1190803.56649   -995671.90347  21222816.130    21222825.595
       239.000         201.000
  24451281.669    -2073952.24349  -1401332.60045  24451282.250    24451294.024
       213.000         138.000
 00  1  6 20 36  0.0000000  0  9G 2G26G27G31G18G 7G 8G19G11
  21440300.212    -1866989.95649  -1313954.09747  21440299.639    21440308.709
       244.000         212.000
  24187656.665    -2286483.72449  -1766081.61745  24187656.784    24187669.554
       213.000         152.000
  20318526.940    -1730269.74949  -1340565.48648  20318526.867    20318535.090
       244.000         214.000
  23512025.820     -653617.32749   -517368.36145  23512025.523    23512037.395
       214.000         161.000
  23944631.892     -411392.11049   -334956.55245  23944632.756    23944647.997
       215.000         156.000
  22699207.649    -2572864.79849  -1976462.00946  22699206.237    22699219.192
       223.000         174.000
  23010579.280    -2488510.70149  -1919824.33045  23010578.928    23010590.636
       217.000         162.000
  21231577.283    -1144764.54049   -959797.36147  21231577.505    21231586.903
       239.000         201.000
  24441660.005    -2124513.57349  -1440730.88245  24441661.370    24441670.785
       212.000         138.000
 00  1  6 20 36 30.0000000  0  9G 2G26G27G31G18G 7G 8G19G11
  21435860.536    -1890320.45849  -1332133.64448  21435859.833    21435869.121
       243.000         213.000
  24171297.885    -2372449.18349  -1833067.46345  24171298.069    24171310.588
       213.000         152.000
  20316760.089    -1739554.71449  -1347800.50548  20316759.860    20316768.164
       244.000         214.000
  23530238.372     -557909.81149   -442791.16445  23530237.735    23530249.944
       215.000         161.000
  23966479.481     -296583.79049   -245495.83445  23966480.161    23966495.315
       215.000         157.000
  22681258.117    -2667189.67149  -2049961.73846  22681257.512    22681268.626
       224.000         175.000
  22993828.938    -2576534.15149  -1988413.91746  22993828.054    22993839.744
       218.000         163.000
  21240397.234    -1098415.65949   -923681.37547  21240397.219    21240406.763
       239.000         201.000
  24432087.413    -2174816.66849  -1479927.91645  24432086.089    24432100.886
       212.000         137.000
 00  1  6 20 37  0.0000000  0  9G 2G26G27G31G18G 7G 8G19G11
  21431460.344    -1913443.48449  -1350151.52048  21431459.719    21431468.900
       243.000         213.000
  24154994.919    -2458121.05949  -1899824.55745  24154994.575    24155007.924
       214.000         153.000
  20315060.140    -1748487.74949  -1354761.29148  20315059.767    20315067.974
       244.000         214.000
  23548506.461     -461910.78949   -367986.82245  23548507.058    23548518.936
       218.000         162.000
  23988344.944     -181681.34149   -155961.76445  23988345.524    23988361.058
       214.000         156.000
  22663350.951    -2761292.15249  -2123288.15146  22663350.279    22663362.342
       224.000         175.000
  22977086.289    -2664517.30349  -2056972.09846  22977085.695    22977097.216
       220.000         164.000
  21249276.272    -1051756.08449   -887323.29247  21249275.902    21249285.720
       238.000         201.000
  24422565.420    -2224854.43549  -1518918.23045  24422565.100    24422578.864
       212.000         139.000
 00  1  6 20 37 30.0000000  0  9G 2G26G27G31G18G 7G 8G19G11
  21427097.245    -1936371.56849  -1368017.49548  21427096.570    21427105.633
       243.000         213.000
  24138749.834    -2543488.99149  -1966344.80245  24138749.362    24138762.198
       214.000         153.000
  20313424.798    -1757081.34349  -1361457.58348  20313424.609    20313432.924
       244.000         214.000
  23566831.276     -365614.47949   -292950.83245  23566831.422    23566842.701
       217.000         161.000
  24010223.372      -66710.16449    -66374.13045  24010224.078    24010239.072
       212.000         154.000
  22645487.723    -2855163.45849  -2196434.44346  22645486.636    22645498.020
       224.000         176.000
  22960352.883    -2752451.65249  -2125492.25746  22960352.539    22960364.732
       220.000         166.000
  21258217.598    -1004768.98149   -850709.98547  21258217.422    21258227.226
       239.000         200.000
  24413093.467    -2274629.30549  -1557703.65545  24413093.157    24413106.258
       210.000         140.000
 00  1  6 20 38  0.0000000  0  9G 2G26G27G31G18G 7G 8G19G11
  21422769.506    -1959113.56549  -1385738.46948  21422768.826    21422777.894
       244.000         213.000
  24122561.226    -2628560.05449  -2032633.73045  24122560.899    24122573.088
       215.000         152.000
  20311852.160    -1765345.96049  -1367897.52948  20311851.987    20311860.130
       244.000         214.000
  23585213.126     -269017.64749   -217680.67245  23585213.047    23585225.138
       215.000         160.000
  24032110.242       48305.10949     23247.84745  24032111.146    24032127.076
       212.000         153.000
  22627670.960    -2948790.06649  -2269390.05246  22627670.030    22627682.030
       226.000         176.000
  22943629.394    -2840333.55649  -2193971.54546  22943629.036    22943640.862
       222.000         167.000
  21267220.620     -957457.87349   -813844.20947  21267220.729    21267229.950
       239.000         200.000
  24403669.075    -2324153.90749  -1596294.07145  24403669.631    24403683.183
       211.000         140.000
 00  1  6 20 38 30.0000000  0  9G 2G26G27G31G18G 7G 8G19G11
  21418475.547    -1981678.36549  -1403321.36748  21418474.838    21418483.804
       244.000         213.000
  24106428.446    -2713337.94449  -2098694.21845  24106427.328    24106441.153
       213.000         152.000
  20310341.448    -1773284.71249  -1374083.55148  20310341.333    20310349.271
       244.000         214.000
  23603651.302     -172124.58449   -142179.67645  23603650.972    23603663.229
       214.000         157.000
  24054001.878      163344.66149    112888.73145  24054002.800    24054018.292
       212.000         152.000
  22609901.442    -3042168.81649  -2342152.52346  22609900.552    22609912.414
       225.000         177.000
  22926915.701    -2928164.34849  -2262411.00546  22926914.977    22926926.597
       223.000         167.000
  21276286.861     -909814.71749   -776719.69447  21276286.723    21276296.458
       238.000         200.000
  24394291.049    -2373435.04549  -1634694.78245  24394290.354    24394304.265
       211.000         140.000
 00  1  6 20 39  0.0000000  0  9G 2G26G27G31G18G 7G 8G19G11
  21414214.237    -2004071.52249  -1420770.51748  21414213.468    21414222.684
       244.000         213.000
  24090351.747    -2797820.85349  -2164524.84945  24090351.587    24090364.021
       213.000         150.000
  20308893.867    -1780891.68749  -1380011.04348  20308893.755    20308901.731
       244.000         214.000
  23622146.491      -74932.12449    -66445.39845  23622146.908    23622158.298
       214.000         157.000
  24075894.674      278390.97049    202534.88345  24075895.534    24075911.843
       212.000         151.000
  22592178.993    -3135300.33249  -2414722.34246  22592177.871    22592189.788
       226.000         178.000
  22910209.433    -3015956.19249  -2330820.10846  22910208.832    22910219.799
       220.000         167.000
  21285418.613     -861827.09749   -739326.75947  21285418.491    21285428.132
       238.000         200.000
  24384960.922    -2422464.20049  -1672899.14845  24384960.633    24384973.219
       209.000         141.000
 00  1  6 20 39 30.0000000  0  9G 2G26G27G31G18G 7G 8G19G11
  21409984.798    -2026297.14049  -1438089.12148  21409984.116    21409993.046
       244.000         213.000
  24074329.725    -2882016.67849  -2230131.77245  24074328.879    24074342.282
       212.000         148.000
  20307509.686    -1788165.60149  -1385679.00448  20307509.464    20307517.735
       244.000         214.000
  23640698.361       22558.73049      9521.38745  23640697.256    23640710.542
       213.000         154.000
  24097791.848      393460.10249    292198.80145  24097792.256    24097809.082
       212.000         152.000
  22574505.068    -3228177.18349  -2487093.72146  22574503.996    22574515.503
       227.000         179.000
  22893509.689    -3103713.75949  -2399202.49146  22893509.103    22893520.346
       222.000         168.000
  21294615.802     -813495.36749   -701665.68647  21294615.554    21294625.198
       238.000         200.000
  24375681.083    -2471229.61749  -1710898.00445  24375679.808    24375694.196
       209.000         142.000
 00  1  6 20 40  0.0000000  0  9G 2G26G27G31G18G 7G 8G19G11
  21405789.098    -2048345.69849  -1455269.76348  21405788.401    21405797.413
       244.000         214.000
  24058358.696    -2965943.63949  -2295529.18645  24058358.335    24058370.702
       210.000         147.000
  20306191.744    -1795091.39549  -1391075.70048  20306191.516    20306199.686
       244.000         214.000
  23659305.656      120340.20849     85714.63145  23659305.014    23659318.190
       213.000         152.000
  24119695.289      508562.39649    381888.57045  24119695.872    24119712.259
       211.000         151.000
  22556878.373    -3320805.72549  -2559271.62246  22556877.459    22556888.513
       228.000         179.000
  22876816.517    -3191437.01249  -2467558.13846  22876814.771    22876827.075
       220.000         168.000
  21303877.333     -764825.69049   -663741.27847  21303877.403    21303887.187
       238.000         200.000
  24366454.655    -2519713.21349  -1748677.23945  24366454.385    24366467.844
       209.000         142.000
 00  1  6 20 40 30.0000000  0  9G 2G26G27G31G18G 7G 8G19G11
  21401627.537    -2070214.62949  -1472310.43748  21401627.072    21401635.966
       244.000         214.000
  24042440.800    -3049590.85849  -2360708.62945  24042440.195    24042452.203
       210.000         146.000
  20304940.977    -1801664.30249  -1396197.41548  20304940.692    20304948.937
       244.000         214.000
  23677966.951      218406.30749    162129.65745  23677967.184    23677978.703
       212.000         150.000
  24141606.340      623704.19149    471609.09245  24141606.953    24141622.137
       213.000         152.000
  22539298.496    -3413188.07649  -2631257.67346  22539297.839    22539308.673
       226.000         180.000
  22860131.441    -3279117.40549  -2535880.37746  22860130.871    22860141.835
       220.000         168.000
  21313205.199     -715807.87649   -625545.59347  21313205.355    21313214.519
       239.000         199.000
  24357283.654    -2567906.78649  -1786230.46545  24357283.074    24357296.858
       207.000         141.000
 00  1  6 20 41  0.0000000  0  9G 2G26G27G31G18G 7G 8G19G11
  21397502.147    -2091893.62249  -1489203.11648  21397501.538    21397510.480
       245.000         214.000
  24026578.275    -3132948.01449  -2425662.06245  24026578.686    24026590.569
       210.000         144.000
  20303759.075    -1807875.18749  -1401037.03848  20303758.850    20303766.982
       244.000         214.000
  23696681.072      316749.67149    238760.72445  23696681.339    23696692.568
       210.000         149.000
  24163527.053      738896.52749    561369.00945  24163527.358    24163543.585
       213.000         153.000
  22521765.441    -3505324.25849  -2703051.90846  22521763.967    22521775.916
       227.000         180.000
  22843454.495    -3366754.91849  -2604169.19846  22843453.476    22843465.209
       218.000         167.000
  21322598.281     -666447.08849   -587082.66047  21322598.182    21322607.639
       238.000         199.000
  24348167.653    -2615810.27949  -1823557.66945  24348165.606    24348180.016
       206.000         141.000
 00  1  6 20 41 30.0000000  0  9G 2G26G27G31G18G 7G 8G19G11
  21393415.192    -2113370.70749  -1505938.46448  21393414.647    21393423.587
       245.000         214.000
  24010771.638    -3216011.13349  -2490386.37645  24010770.959    24010783.100
       209.000         143.000
  20302647.437    -1813716.78049  -1405588.89848  20302647.160    20302655.427
       244.000         214.000
  23715447.273      415365.99449    315604.49445  23715446.938    23715459.508
       207.000         147.000
  24185458.320      854144.90249    651172.58045  24185458.585    24185475.201
       213.000         153.000
  22504280.554    -3597207.06649  -2774648.72446  22504279.651    22504290.999
       226.000         181.000
  22826787.893    -3454337.82549  -2672415.45846  22826787.204    22826798.169
       216.000         167.000
  21332054.311     -616755.27049   -548361.77647  21332054.356    21332063.916
       238.000         199.000
  24339106.948    -2663423.23249  -1860658.46045  24339106.507    24339120.704
       204.000         141.000
 00  1  6 20 42  0.0000000  0  9G 2G26G27G31G18G 7G 8G19G11
  21389367.843    -2134639.29649  -1522511.35448  21389367.269    21389376.363
       244.000         214.000
  23995025.088    -3298759.12949  -2554865.14845  23995025.559    23995036.995
       208.000         143.000
  20301606.740    -1819185.58749  -1409850.27648  20301606.430    20301614.742
       244.000         214.000
  23734266.039      514258.74949    392663.69345  23734265.090    23734277.887
       206.000         145.000
  24207399.646      969446.02349    741017.26545  24207400.575    24207416.198
       215.000         154.000
  22486844.704    -3688832.44849  -2846044.94946  22486843.542    22486854.691
       226.000         181.000
  22810132.573    -3541860.71049  -2740614.93946  22810131.125    22810142.651
       216.000         166.000
  21341573.099     -566733.88949   -509384.09247  21341572.976    21341582.602
       238.000         199.000
  24330100.475    -2710752.18049  -1897537.95845  24330099.752    24330113.452
       208.000         142.000
 00  1  6 20 42 30.0000000  0  9G 2G26G27G31G18G 7G 8G19G11
  21385357.842    -2155711.87649  -1538931.51148  21385357.185    21385366.238
       244.000         214.000
  23979343.517    -3381165.43349  -2619077.65945  23979343.026    23979355.919
       208.000         143.000
  20300636.184    -1824285.67949  -1413824.33848  20300635.822    20300644.047
       244.000         214.000
  23753137.784      613430.36049    469940.15645  23753137.625    23753151.063
       208.000         145.000
  24229351.714     1084803.58049    830905.91245  24229351.949    24229368.620
       214.000         154.000
  22469459.531    -3780191.37849  -2917233.54446  22469458.578    22469470.010
       227.000         181.000
  22793485.932    -3629338.21249  -2808779.05246  22793485.628    22793496.648
       217.000         167.000
  21351154.894     -516381.49049   -470148.46747  21351155.063    21351164.101
       238.000         199.000
  24321147.335    -2757800.95949  -1934199.13645  24321146.001    24321159.855
       207.000         142.000
 00  1  6 20 43  0.0000000  0  9G 2G26G27G31G18G 7G 8G19G11
  21381385.563    -2176586.24649  -1555197.22148  21381384.935    21381393.769
       244.000         213.000
  23963726.961    -3463230.11949  -2683023.97045  23963726.268    23963739.838
       211.000         144.000
  20299736.205    -1829015.13449  -1417509.60148  20299735.755    20299744.184
       244.000         214.000
  23772061.991      712876.91349    547430.88245  23772061.694    23772073.773
       211.000         146.000
  24251314.692     1200218.03349    920838.89545  24251314.654    24251332.249
       213.000         153.000
  22452126.429    -3871276.90549  -2988209.09746  22452125.447    22452137.314
       226.000         182.000
  22776845.479    -3716783.87749  -2876918.36346  22776844.719    22776855.721
       218.000         167.000
  21360795.499     -465719.90349   -430671.91447  21360795.519    21360804.905
       238.000         199.000
  24312248.578    -2804563.41249  -1970637.18345  24312247.561    24312261.134
       205.000         142.000
 00  1  6 20 43 30.0000000  0  9G 2G26G27G31G18G 7G 8G19G11
  21377447.655    -2197279.98549  -1571322.18848  21377447.101    21377455.940
       245.000         213.000
  23948176.920    -3544945.84549  -2746698.36845  23948177.352    23948188.940
       211.000         146.000
  20298905.324    -1833381.36649  -1420911.83348  20298905.060    20298913.198
       244.000         214.000
  23791039.187      812601.81549    625138.50045  23791038.737    23791051.068
       212.000         146.000
  24273287.347     1315683.51949   1010811.61545  24273288.512    24273304.826
       212.000         152.000
  22434845.732    -3962086.89549  -3058969.95746  22434845.110    22434856.718
       225.000         182.000
  22760213.138    -3804186.87049  -2945024.41546  22760212.773    22760223.555
       218.000         168.000
  21370494.325     -414752.49149   -390957.05447  21370494.375    21370503.917
       238.000         199.000
  24303404.353    -2851040.38249  -2006852.77245  24303404.433    24303416.755
       209.000         143.000
 00  1  6 20 44  0.0000000  0  9G 2G26G27G31G18G 7G 8G19G11
  21373540.023    -2217814.67349  -1587323.22248  21373539.427    21373548.296
       244.000         214.000
  23932692.519    -3626316.36549  -2810103.77345  23932692.622    23932704.271
       212.000         147.000
  20298141.834    -1837393.48749  -1424038.13648  20298141.429    20298149.794
       244.000         214.000
  23810066.869      912592.59549    703053.29145  23810066.594    23810079.105
       214.000         146.000
  24295268.281     1431192.70549   1100818.39845  24295268.785    24295285.782
       213.000         150.000
  22417615.793    -4052629.69349  -3129522.61346  22417615.078    22417625.777
       226.000         182.000
  22743589.414    -3891544.94349  -3013095.46646  22743588.561    22743600.081
       220.000         169.000
  21380251.091     -363480.70449   -351005.02147  21380251.060    21380260.537
       238.000         198.000
  24294613.578    -2897236.38949  -2042849.43345  24294613.499    24294625.638
       208.000         145.000
 00  1  6 20 44 30.0000000  0  9G 2G26G27G31G18G 7G 8G19G11
  21369662.003    -2238193.56149  -1603202.85848  21369661.341    21369670.335
       245.000         214.000
  23917268.592    -3707368.59949  -2873261.16945  23917268.809    23917280.044
       210.000         148.000
  20297446.444    -1841047.43049  -1426885.33848  20297446.300    20297454.388
       244.000         214.000
  23829142.370     1012834.30949    781163.61745  23829141.968    23829154.596
       213.000         147.000
  24317253.720     1546726.17849   1190844.08945  24317254.815    24317271.218
       210.000         148.000
  22400436.153    -4142908.55549  -3199869.60846  22400435.471    22400446.957
       228.000         183.000
  22726974.898    -3978854.45349  -3081128.68246  22726973.793    22726984.977
       220.000         169.000
  21390066.273     -311901.59149   -310813.50947  21390066.355    21390075.781
       237.000         198.000
  24285876.010    -2943151.64949  -2078627.31845  24285875.059    24285888.654
       205.000         146.000
 00  1  6 20 45  0.0000000  0  9G 2G26G27G31G18G 7G 8G19G11
  21365815.632    -2258406.34949  -1618953.06948  21365815.094    21365824.017
       244.000         214.000
  23901901.471    -3788122.51449  -2936186.10045  23901901.688    23901912.863
       210.000         149.000
  20296821.250    -1844332.77449  -1429445.32348  20296820.933    20296829.189
       244.000         214.000
  23848264.502     1113321.44049    859465.20745  23848265.250    23848276.617
       213.000         149.000
  24339241.284     1662270.19149   1280877.99045  24339241.983    24339258.888
       210.000         146.000
  22383308.824    -4232912.79149  -3270002.60946  22383308.148    22383319.196
       228.000         184.000
  22710374.967    -4066086.89149  -3149101.84946  22710374.225    22710384.749
       220.000         169.000
  21399940.657     -260011.41049   -270379.61047  21399940.649    21399950.304
       237.000         198.000
  24277191.479    -2988787.86649  -2114187.75945  24277190.461    24277203.553
       206.000         146.000
 00  1  6 20 45 30.0000000  0  9G 2G26G27G31G18G 7G 8G19G11
  21362001.553    -2278449.51049  -1634571.10948  21362001.164    21362009.951
       244.000         214.000
  23886590.829    -3868579.93349  -2998880.01545  23886589.968    23886602.783
       210.000         151.000
  20296268.749    -1847236.11149  -1431707.64748  20296268.626    20296276.825
       244.000         214.000
  23867433.476     1214054.45749    937958.37845  23867433.799    23867446.117
       216.000         151.000
  24361230.568     1777823.18949   1370918.88545  24361232.240    24361247.754
       210.000         146.000
  22366232.351    -4322649.76449  -3339927.36646  22366231.100    22366242.517
       229.000         184.000
  22693792.246    -4153228.91349  -3217004.57046  22693791.355    22693802.317
       220.000         169.000
  21409879.565     -207782.19149   -229681.53047  21409879.699    21409888.925
       237.000         197.000
  24268560.118    -3034144.98249  -2149530.70345  24268558.986    24268572.516
       206.000         145.000
 00  1  6 20 46  0.0000000  0  9G 2G26G27G31G18G 7G 8G19G11
  21358224.858    -2298296.29349  -1650036.12148  21358224.319    21358233.210
       244.000         214.000
  23871337.636    -3948735.40549  -3061338.64445  23871337.457    23871349.075
       213.000         152.000
  20295791.891    -1849742.04949  -1433660.30348  20295791.656    20295799.557
       244.000         214.000
  23886646.927     1315021.03649   1016633.52345  23886646.809    23886659.224
       214.000         153.000
  24383220.270     1893378.85849   1460961.84545  24383220.518    24383237.852
       209.000         144.000
  22349208.560    -4412109.80149  -3409636.33246  22349207.386    22349218.717
       228.000         185.000
  22677225.904    -4240285.47249  -3284840.69246  22677225.453    22677236.356
       220.000         169.000
  21419886.922     -155193.14449   -188703.05147  21419886.681    21419896.086
       237.000         197.000
  24259984.971    -3079206.01949  -2184642.94645  24259983.813    24259997.508
       208.000         146.000
 00  1  6 20 46 30.0000000  0  9G 2G26G27G31G18G 7G 8G19G11
  21354489.445    -2317925.88549  -1665331.89648  21354488.905    21354497.689
       244.000         214.000
  23856147.043    -4028562.39849  -3123541.30945  23856147.333    23856158.716
       212.000         153.000
  20295392.334    -1851841.62149  -1435296.31448  20295392.242    20295400.298
       244.000         214.000
  23905907.301     1416233.86249   1095500.54245  23905907.904    23905919.183
       217.000         154.000
  24405212.798     2008949.13149   1551016.18845  24405213.622    24405230.052
       211.000         143.000
  22332241.622    -4501271.36349  -3479112.72546  22332240.811    22332252.342
       229.000         185.000
  22660676.423    -4327253.54349  -3352607.87446  22660675.201    22660686.469
       221.000         170.000
  21429963.464     -102240.29049   -147441.08747  21429963.275    21429973.046
       236.000         196.000
  24251469.242    -3123955.46349  -2219512.40145  24251468.358    24251481.396
       207.000         146.000
 00  1  6 20 47  0.0000000  0  9G 2G26G27G31G18G 7G 8G19G11
  21350795.227    -2337338.87449  -1680458.89048  21350794.712    21350803.440
       245.000         214.000
  23841025.947    -4108023.87049  -3185459.15745  23841025.621    23841038.292
       211.000         153.000
  20295065.882    -1853557.11949  -1436633.04548  20295065.768    20295073.999
       244.000         214.000
  23925214.964     1517695.56049   1174561.50145  23925215.498    23925227.534
       218.000         156.000
  24427210.206     2124544.66449   1641090.21245  24427210.864    24427228.100
       212.000         144.000
  22315332.990    -4590126.20649  -3548350.11246  22315332.067    22315342.870
       230.000         186.000
  22644142.400    -4414139.64049  -3420311.17346  22644142.486    22644152.262
       221.000         170.000
  21440108.102      -48929.79349   -105900.44247  21440108.132    21440117.539
       236.000         196.000
  24243014.685    -3168383.92649  -2254131.74045  24243013.371    24243027.744
       208.000         147.000
 00  1  6 20 47 30.0000000  0  9G 2G26G27G31G18G 7G 8G19G11
  21347140.935    -2356542.49849  -1695422.74248  21347140.602    21347149.318
       245.000         214.000
  23825978.186    -4187099.59549  -3247076.42945  23825978.798    23825990.038
       212.000         153.000
  20294809.341    -1854905.31149  -1437683.56648  20294809.056    20294817.331
       244.000         214.000
  23944568.907     1619400.51649   1253812.00345  23944568.570    23944581.207
       216.000         157.000
  24449211.717     2240161.75749   1731181.01945  24449211.973    24449228.904
       212.000         144.000
  22298480.234    -4678687.49149  -3617358.75646  22298479.324    22298490.226
       229.000         186.000
  22627619.101    -4500969.40749  -3487970.58446  22627618.496    22627629.160
       221.000         170.000
  21450318.405        4725.69949    -64090.96747  21450318.374    21450328.025
       236.000         196.000
  24234622.520    -3212484.77849  -2288495.79645  24234621.790    24234634.959
       207.000         148.000
 00  1  6 20 48  0.0000000  0  9G 2G26G27G31G18G 7G 8G19G11
  21343523.776    -2375550.88249  -1710234.46648  21343523.336    21343532.117
       245.000         214.000
  23811004.171    -4265787.93549  -3308391.85345  23811003.325    23811015.047
       214.000         154.000
  20294618.563    -1855907.83249  -1438464.73748  20294618.418    20294626.474
       244.000         214.000
  23963967.072     1721337.77549   1333243.53745  23963967.750    23963979.964
       214.000         157.000
  24471214.961     2355787.65949   1821278.69845  24471216.589    24471232.095
       211.000         144.000
  22281685.298    -4766944.91749  -3686130.63046  22281684.561    22281695.000
       230.000         186.000
  22611104.940    -4587751.29849  -3555592.69246  22611103.799    22611115.141
       221.000         170.000
  21460588.803       58697.16649    -22035.28947  21460588.724    21460598.163
       236.000         195.000
  24226293.845    -3256251.64449  -2322599.65245  24226293.136    24226305.508
       210.000         148.000
 00  1  6 20 48 30.0000000  0  9G 2G26G27G31G18G 7G 8G19G11
  21339939.203    -2394388.13349  -1724912.83448  21339938.658    21339947.383
       245.000         214.000
  23796100.768    -4344105.14649  -3369418.07745  23796100.792    23796112.511
       213.000         154.000
  20294488.885    -1856589.28049  -1438995.72348  20294488.518    20294496.791
       245.000         214.000
  23983410.133     1823511.29849   1412859.17145  23983409.711    23983423.080
       217.000         157.000
  24493219.739     2471421.45249   1911382.52645  24493220.516    24493237.789
       211.000         144.000
  22264946.735    -4854906.23049  -3754671.77046  22264945.859    22264956.479
       229.000         186.000
  22594598.429    -4674492.99249  -3623183.47846  22594597.975    22594608.717
       221.000         171.000
  21470915.507      112964.36949     20250.83647  21470915.315    21470924.848
       236.000         195.000
  24218025.989    -3299698.90749  -2356454.44745  24218025.100    24218037.493
       210.000         148.000
 00  1  6 20 49  0.0000000  0  9G 2G26G27G31G18G 7G 8G19G11
  21336385.582    -2413062.34449  -1739464.15448  21336385.038    21336394.049
       245.000         214.000
  23781261.479    -4422085.38549  -3430181.74145  23781261.096    23781273.029
       214.000         155.000
  20294420.265    -1856949.99749  -1439276.79148  20294420.015    20294428.182
       244.000         214.000
  24002895.153     1925905.10149   1492646.44045  24002894.842    24002907.743
       213.000         157.000
  24515220.088     2587032.75649   2001468.78845  24515221.835    24515238.199
       211.000         144.000
  22248258.351    -4942603.46449  -3823007.12846  22248257.042    22248268.070
       230.000         186.000
  22578098.887    -4761198.12549  -3690745.78146  22578097.698    22578109.180
       222.000         171.000
  21481300.186      167536.08549     62774.23947  21481300.365    21481309.649
       236.000         195.000
  24209817.736    -3342832.97149  -2390065.19345  24209817.022    24209829.868
       210.000         149.000
 00  1  6 20 49 30.0000000  0  9G 2G26G27G31G18G 7G 8G19G11
  21332863.636    -2431570.00249  -1753885.68448  21332863.196    21332871.940
       244.000         214.000
  23766483.214    -4499745.40049  -3490695.89145  23766483.366    23766494.461
       214.000         156.000
  20294418.675    -1856958.42849  -1439283.34848  20294418.516    20294426.461
       243.000         214.000
  24022421.851     2028518.65149   1572604.92345  24022421.913    24022435.090
       215.000         157.000
  24537215.435     2702617.35749   2091534.24645  24537217.188    24537234.463
       212.000         144.000
  22231619.358    -5030041.02249  -3891140.14946  22231618.471    22231629.181
       230.000         186.000
  22561608.927    -4847852.77249  -3758268.73346  22561608.214    22561618.576
       223.000         172.000
  21491744.932      222423.58849    105543.71847  21491744.685    21491754.310
       236.000         195.000
  24201669.547    -3385652.19949  -2423430.61745  24201668.813    24201681.797
       211.000         151.000
 00  1  6 20 50  0.0000000  0  9G 2G26G27G31G18G 7G 8G19G11
  21329373.415    -2449911.42049  -1768177.67648  21329372.683    21329381.724
       244.000         214.000
  23751766.181    -4577083.34249  -3550959.06445  23751765.985    23751778.058
       214.000         157.000
  20294487.199    -1856598.16049  -1439002.61048  20294487.139    20294495.021
       243.000         214.000
  24041992.093     2131360.87449   1652741.61145  24041991.166    24042004.204
       205.000         155.000
  24559207.569     2818184.64349   2181586.21145  24559209.363    24559226.755
       211.000         145.000
  22215033.007    -5117202.47049  -3959058.01246  22215032.333    22215042.670
       230.000         187.000
  22545132.195    -4934437.78849  -3825737.43146  22545131.530    22545141.914
       223.000         173.000
  21502252.524      277641.21049    148570.43047  21502252.530    21502262.207
       236.000         195.000
  24193579.954    -3428162.51849  -2456555.34045  24193579.094    24193590.819
       211.000         149.000
 00  1  6 20 50 30.0000000  0  9G 2G26G27G31G18G 7G 8G19G11
  21325915.369    -2468083.26249  -1782337.52548  21325914.666    21325923.603
       244.000         214.000
  23737110.565    -4654098.79349  -3610970.95245  23737110.271    23737122.252
       216.000         158.000
  20294629.128    -1855852.38549  -1438421.47248  20294628.971    20294636.979
       243.000         214.000
  24061607.180     2234438.88749   1733062.02645  24061607.096    24061619.523
       207.000         152.000
  24581197.224     2933739.21949   2271628.25745  24581199.050    24581217.018
       211.000         145.000
  22198499.326    -5204087.08649  -4026760.16646  22198498.449    22198509.325
       231.000         187.000
  22528670.975    -5020941.54549  -3893142.80846  22528670.076    22528680.838
       224.000         173.000
  21512826.035      333205.24949    191867.06747  21512826.180    21512835.595
       236.000         195.000
  24185548.066    -3470370.02949  -2489444.13145  24185547.564    24185559.241
       212.000         150.000
 00  1  6 20 51  0.0000000  0  9G 2G26G27G31G18G 7G 8G19G11
  21322490.652    -2486079.90349  -1796360.85148  21322490.167    21322498.903
       244.000         214.000
  23722519.834    -4730772.91749  -3670716.87145  23722520.331    23722531.019
       216.000         158.000
  20294850.255    -1854690.34149  -1437515.96848  20294850.098    20294858.097
       243.000         214.000
  24081265.836     2337745.28449   1813560.40645  24081266.136    24081278.907
       211.000         150.000
  24603183.486     3049276.26549   2361656.63445  24603184.030    24603202.112
       212.000         143.000
  22182020.602    -5290682.95049  -4094237.31546  22182019.398    22182030.283
       231.000         187.000
  22512227.256    -5107353.40049  -3960476.57246  22512225.680    22512237.183
       223.000         173.000
  21523466.946      389123.33049    235439.59047  21523467.074    21523476.434
       236.000         195.000
  24177576.322    -3512260.94949  -2522086.23045  24177574.973    24177587.218
       210.000         150.000
 00  1  6 20 51 30.0000000  0  9G 2G26G27G31G18G 7G 8G19G11
  21319097.707    -2503909.92549  -1810254.34748  21319097.026    21319105.821
       244.000         214.000
  23707999.234    -4807078.75149  -3730175.81445  23707999.074    23708010.609
       216.000         159.000
  20295151.927    -1853105.03149  -1436280.65348  20295151.749    20295159.693
       243.000         214.000
  24100968.763     2441284.70349   1894240.36745  24100969.516    24100979.909
       202.000         147.000
  24625170.215     3164815.98349   2451687.06845  24625170.629    24625189.500
       208.000         143.000
  22165603.265    -5376955.79349  -4161462.76847  22165602.013    22165612.481
       232.000         188.000
  22495799.918    -5193679.06649  -4027743.18046  22495799.452    22495809.054
       223.000         173.000
  21534174.069      445389.23349    279283.14347  21534173.982    21534183.143
       236.000         195.000
  24169666.754    -3553824.93349  -2554473.58345  24169666.148    24169678.439
       209.000         150.000
 00  1  6 20 52  0.0000000  0  9G 2G26G27G31G18G 7G 8G19G11
  21315736.019    -2521575.90349  -1824020.01148  21315735.483    21315744.209
       244.000         214.000
  23693548.294    -4883018.78049  -3789349.72245  23693548.148    23693559.711
       217.000         160.000
  20295533.788    -1851098.48749  -1434717.10548  20295533.535    20295541.589
       243.000         215.000
  24120715.445     2545054.02949   1975099.45845  24120714.597    24120728.481
       200.000         145.000
  24647157.894     3280360.30849   2541721.09245  24647158.517    24647178.169
       206.000         141.000
  22149248.388    -5462900.66249  -4228432.65647  22149247.435    22149258.049
       232.000         188.000
  22479389.532    -5279915.38449  -4094940.17246  22479388.063    22479398.446
       223.000         172.000
  21544945.768      501994.83749    323391.38847  21544945.794    21544954.977
       236.000         195.000
  24161819.462    -3595061.86849  -2586606.10545  24161818.121    24161830.420
       210.000         150.000
 00  1  6 20 52 30.0000000  0  9G 2G26G27G31G18G 7G 8G19G11
  21312405.641    -2539077.29949  -1837657.42548  21312405.149    21312414.005
       245.000         214.000
  23679165.917    -4958597.97949  -3848242.45345  23679165.665    23679177.132
       216.000         160.000
  20295996.333    -1848667.74049  -1432823.00848  20295996.174    20296004.376
       243.000         215.000
  24140505.770     2649052.25848   2056136.92345  24140504.496    24140518.934
       194.000         143.000
  24669143.949     3395896.55449   2631748.78545  24669143.647    24669163.262
       203.000         139.000
  22132953.631    -5548529.78349  -4295156.50147  22132952.816    22132962.997
       232.000         189.000
  22462995.295    -5366066.58349  -4162070.81946  22462994.243    22463004.619
       223.000         172.000
  21555782.109      558940.03349    367764.25147  21555782.063    21555791.381
       236.000         195.000
  24154038.404    -3635950.97249  -2618467.60345  24154037.578    24154049.599
       211.000         149.000
 00  1  6 20 53  0.0000000  0  9G 2G26G27G31G18G 7G 8G19G11
  21309107.344    -2556409.79249  -1851163.21948  21309106.772    21309115.530
       245.000         215.000
  23664854.201    -5033806.12549  -3906846.04845  23664854.052    23664865.931
       216.000         160.000
  20296539.078    -1845815.49149  -1430600.46848  20296538.859    20296546.967
       243.000         215.000
  24160340.030     2753281.43949   2137354.33045  24160339.395    24160353.253
       197.000         140.000
  24691129.308     3511428.72849   2721773.31345  24691130.816    24691148.164
       203.000         136.000
  22116718.623    -5633844.45949  -4361635.32947  22116717.735    22116728.279
       233.000         189.000
  22446617.058    -5452134.17449  -4229136.33546  22446615.861    22446626.663
       222.000         172.000
  21566682.946      616224.22749    412401.26747  21566682.636    21566692.359
       235.000         194.000
  24146326.729    -3676474.75849  -2650044.41845  24146326.286    24146337.491
       211.000         149.000
 00  1  6 20 53 30.0000000  0  9G 2G26G27G31G18G 7G 8G19G11
  21305843.296    -2573562.28849  -1864528.75848  21305842.782    21305851.505
       245.000         215.000
  23650611.256    -5108652.79049  -3965167.96945  23650610.853    23650622.594
       217.000         160.000
  20297158.396    -1842560.94849  -1428064.45548  20297158.290    20297166.384
       243.000         215.000
  24180218.406     2857741.64949   2218751.79445  24180218.333    24180230.368
       197.000         140.000
  24713113.794     3626955.75149   2811793.80345  24713114.207    24713134.336
       201.000         136.000
  22100543.715    -5718843.85649  -4427868.49547  22100542.793    22100553.656
       233.000         190.000
  22430255.073    -5538116.27449  -4296135.22946  22430254.388    22430264.979
       223.000         172.000
  21577646.421      673837.75249    457294.90047  21577646.256    21577655.803
       235.000         194.000
  24138683.012    -3716642.48649  -2681343.80445  24138682.748    24138693.758
       211.000         150.000
 00  1  6 20 54  0.0000000  0  9G 2G26G27G31G18G 7G 8G19G11
  21302614.559    -2590529.46149  -1877749.88848  21302614.077    21302622.749
       245.000         215.000
  23636436.314    -5183141.63549  -4023211.06645  23636436.845    23636446.709
       217.000         160.000
  20297852.508    -1838913.42449  -1425222.22048  20297852.159    20297860.466
       243.000         214.000
  24200139.090     2962424.92049   2300323.09245  24200138.283    24200151.262
       199.000         141.000
  24735097.482     3742478.89849   2901811.24645  24735099.187    24735116.872
       201.000         136.000
  22084427.114    -5803536.64649  -4493862.74647  22084426.340    22084436.881
       233.000         190.000
  22413911.136    -5624003.78049  -4363060.42046  22413910.513    22413921.183
       224.000         173.000
  21588672.218      731778.77249    502443.71647  21588672.083    21588681.671
       235.000         194.000
  24131107.227    -3756452.82149  -2712364.69145  24131105.883    24131118.252
       210.000         150.000
 00  1  6 20 54 30.0000000  0  9G 2G26G27G31G18G 7G 8G19G11
  21299421.254    -2607310.32549  -1890825.84048  21299420.688    21299429.548
       245.000         215.000
  23622332.173    -5257259.09549  -4080964.78045  23622331.580    23622342.880
       215.000         160.000
  20298617.624    -1834892.63649  -1422089.13148  20298617.350    20298625.441
       243.000         214.000
  24220099.572     3067317.88549   2382057.77345  24220098.705    24220113.230
       205.000         141.000
  24757078.673     3857988.28749   2991817.94745  24757080.600    24757097.296
       202.000         136.000
  22068370.563    -5887913.72649  -4559610.98847  22068369.756    22068380.267
       234.000         191.000
  22397583.335    -5709806.63249  -4429919.64546  22397582.376    22397593.276
       224.000         174.000
  21599759.324      790041.92349    547843.54147  21599759.068    21599768.310
       234.000         194.000
  24123597.949    -3795913.43049  -2743113.08145  24123597.401    24123609.560
       210.000         150.000
 00  1  6 20 55  0.0000000  0  9G 2G26G27G31G15G 7G 8G19G11
  21296266.957    -2623886.04149  -1903741.93748  21296266.302    21296275.158
       245.000         215.000
  23608303.033    -5330982.23149  -4138411.22045  23608302.342    23608314.226
       216.000         159.000
  20299455.919    -1830487.21049  -1418656.32148  20299455.689    20299463.820
       243.000         214.000
  24240098.047     3172410.90749   2463948.32545  24240098.819    24240111.478
       205.000         140.000
  24330170.397    -3251814.74049  -2505455.03645  24330170.503    24330184.972
       198.000         139.000
  22052380.790    -5971940.07349  -4625085.93547  22052380.115    22052390.792
       234.000         192.000
  22381274.928    -5795507.20949  -4496699.18246  22381274.326    22381285.010
       224.000         175.000
  21610908.239      848629.89449    593496.47047  21610907.990    21610917.804
       234.000         193.000
  24116154.369    -3835028.92649  -2773592.55945  24116154.034    24116165.823
       210.000         150.000
 00  1  6 20 55 30.0000000  0  9G 2G26G27G31G15G 7G 8G19G11
  21293148.096    -2640275.51849  -1916512.91548  21293147.591    21293156.270
       245.000         215.000
  23594347.667    -5404317.19249  -4195555.18645  23594347.663    23594358.911
       213.000         157.000
  20300367.284    -1825697.85249  -1414924.34648  20300367.118    20300375.139
       243.000         214.000
  24260129.757     3277678.50149   2545974.94745  24260129.002    24260142.285
       211.000         141.000
  24325504.432    -3276331.87849  -2524559.15245  24325505.403    24325517.917
       204.000         139.000
  22036456.351    -6055623.51049  -4690293.68447  22036455.619    22036466.135
       234.000         192.000
  22364983.463    -5881119.00549  -4563409.53946  22364982.885    22364993.716
       224.000         177.000
  21622115.867      907526.56849    639389.94347  21622115.641    21622125.484
       235.000         193.000
  24108771.846    -3873824.14949  -2803822.47445  24108770.565    24108782.946
       210.000         151.000
 00  1  6 20 56  0.0000000  0  9G 2G26G27G31G15G 7G 8G19G11
  21290058.429    -2656511.81349  -1929164.53148  21290057.840    21290066.531
       245.000         215.000
  23580467.716    -5477255.41349  -4252390.00445  23580468.022    23580479.156
       213.000         156.000
  20301352.337    -1820521.51649  -1410890.83048  20301352.206    20301360.275
       243.000         215.000
  24280191.042     3383101.01549   2628122.28445  24280190.904    24280203.151
       211.000         141.000
  24320929.229    -3300375.13049  -2543294.02945  24320926.823    24320944.134
       201.000         140.000
  22020592.926    -6138985.73749  -4755251.14247  22020592.101    22020602.539
       233.000         192.000
  22348707.075    -5966651.59949  -4630058.17646  22348706.642    22348717.125
       225.000         178.000
  21633381.295      966726.61449    685519.80647  21633381.302    21633390.968
       234.000         193.000
  24101448.792    -3912306.01249  -2833808.21545  24101447.415    24101460.432
       210.000         150.000
 00  1  6 20 56 30.0000000  0  9G 2G26G27G31G15G 7G 8G19G11
  21286998.149    -2672593.32649  -1941695.53848  21286997.588    21287006.259
       244.000         214.000
  23566664.557    -5549790.69049  -4308910.84145  23566663.868    23566675.500
       213.000         156.000
  20302413.780    -1814943.52749  -1406544.33848  20302413.502    20302421.684
       243.000         214.000
  24300282.066     3488679.71349   2710391.33145  24300282.335    24300294.186
       210.000         142.000
  24316445.665    -3323934.65849  -2561652.01045  24316442.737    24316458.771
       198.000         139.000
  22004792.285    -6222018.19449  -4819951.64747  22004791.540    22004802.028
       234.000         192.000
  22332446.055    -6052103.45049  -4696643.90346  22332445.090    22332455.712
       225.000         178.000
  21644704.636     1026230.92649    731886.76647  21644705.003    21644714.616
       234.000         193.000
  24094185.405    -3950473.82849  -2863549.25545  24094184.463    24094197.091
       208.000         150.000
 00  1  6 20 57  0.0000000  0  9G 2G26G27G31G15G 7G 8G19G11
  21283967.042    -2688521.36249  -1954106.95048  21283966.477    21283974.987
       244.000         214.000
  23552937.753    -5621924.67649  -4365118.99745  23552937.181    23552948.986
       211.000         155.000
  20303554.759    -1808947.65249  -1401872.22548  20303554.332    20303562.334
       243.000         214.000
  24320405.844     3594430.72349   2792794.63645  24320405.454    24320416.874
       209.000         142.000
  24312056.315    -3347000.34849  -2579625.18345  24312056.024    24312072.011
       201.000         141.000
  21989053.199    -6304727.14549  -4884400.06447  21989052.196    21989062.822
       235.000         193.000
  22316201.685    -6137467.88449  -4763161.52346  22316200.656    22316211.158
       225.000         178.000
  21656089.051     1086056.05849    778503.71347  21656088.752    21656098.572
       235.000         193.000
  24086986.328    -3988303.63249  -2893026.87745  24086985.937    24086997.964
       212.000         151.000
 00  1  6 20 57 30.0000000  0  9G 2G26G27G31G15G 7G 8G19G11
  21280966.364    -2704289.99149  -1966394.15248  21280965.884    21280974.448
       245.000         215.000
  23539287.228    -5693657.65149  -4421014.64445  23539287.390    23539298.074
       212.000         153.000
  20304774.624    -1802537.23149  -1396877.08648  20304774.547    20304782.531
       243.000         214.000
  24340567.050     3700378.47449   2875351.23745  24340567.606    24340579.527
       214.000         142.000
  24307760.592    -3369573.03349  -2597214.16745  24307761.227    24307774.178
       198.000         138.000
  21973374.361    -6387119.64149  -4948601.90647  21973373.560    21973383.771
       234.000         193.000
  22299975.318    -6222737.55149  -4829605.29046  22299974.689    22299985.238
       224.000         178.000
  21667538.646     1146223.94449    825387.73947  21667538.725    21667548.698
       234.000         193.000
  24079856.963    -4025768.30749  -2922220.02245  24079857.142    24079868.453
       213.000         152.000
 00  1  6 20 58  0.0000000  0  9G 2G26G27G31G15G 7G 8G19G11
  21277996.387    -2719897.29249  -1978555.64548  21277995.780    21278004.208
       245.000         215.000
  23525709.492    -5765008.11949  -4476612.26445  23525709.670    23525720.148
       213.000         152.000
  20306068.419    -1795738.25149  -1391579.18148  20306068.301    20306076.245
       243.000         214.000
  24360765.384     3806520.64649   2958059.33645  24360764.654    24360778.884
       213.000         142.000
  24303557.111    -3391660.59549  -2614425.10645  24303558.077    24303570.465
       199.000         138.000
  21957755.371    -6469197.46549  -5012558.55247  21957754.673    21957765.122
       235.000         193.000
  22283767.853    -6307907.64149  -4895971.47346  22283767.099    22283777.273
       224.000         177.000
  21679055.500     1206745.50849    872547.35647  21679055.432    21679064.813
       234.000         192.000
  24072798.921    -4062858.48349  -2951121.34045  24072798.588    24072810.373
       214.000         152.000
 00  1  6 20 58 30.0000000  0  9G 2G26G27G31G15G 7G 8G19G11
  21275058.997    -2735333.04949  -1990583.46948  21275058.384    21275067.023
       245.000         215.000
  23512199.672    -5836002.16849  -4531932.15045  23512198.893    23512210.771
       212.000         152.000
  20307431.521    -1788575.40049  -1385997.74048  20307431.458    20307439.223
       243.000         214.000
  24381001.938     3912863.48149   3040923.80145  24381002.923    24381013.289
       210.000         142.000
  24299444.343    -3413272.77949  -2631265.64645  24299445.074    24299460.236
       207.000         139.000
  21942196.792    -6550957.77749  -5076267.79147  21942195.864    21942206.327
       234.000         193.000
  22267579.605    -6392977.09849  -4962259.24146  22267578.576    22267588.853
       224.000         177.000
  21690639.439     1267619.37849    919981.49347  21690639.773    21690649.072
       234.000         192.000
  24065812.178    -4099573.86249  -2979730.59645  24065811.985    24065823.708
       214.000         152.000
 00  1  6 20 59  0.0000000  0  9G 2G26G27G31G15G 7G 8G19G11
  21272153.408    -2750601.99149  -2002481.30848  21272152.735    21272161.637
       245.000         215.000
  23498756.391    -5906645.91249  -4586979.07845  23498756.320    23498767.753
       215.000         153.000
  20308860.284    -1781067.12149  -1380147.13248  20308859.909    20308867.847
       243.000         214.000
  24401276.570     4019406.80849   3123944.47345  24401276.538    24401289.575
       217.000         141.000
  24295419.825    -3434421.17049  -2647744.81945  24295420.031    24295433.965
       207.000         140.000
  21926694.836    -6632420.64949  -5139745.25547  21926693.896    21926704.114
       235.000         194.000
  22251411.087    -6477942.71649  -5028466.08246  22251410.649    22251420.368
       224.000         177.000
  21702290.807     1328847.54549    967691.71347  21702291.057    21702300.766
       234.000         192.000
  24058896.765    -4135914.11449  -3008047.54345  24058895.323    24058908.089
       212.000         152.000
 00  1  6 20 59 30.0000000  0  9G 2G26G27G31G15G 7G 8G19G11
  21269280.181    -2765700.84649  -2014246.61048  21269279.554    21269288.267
       245.000         215.000
  23485380.670    -5976935.77549  -4641750.26945  23485380.809    23485390.962
       215.000         155.000
  20310354.489    -1773214.84049  -1374028.47448  20310354.434    20310362.343
       243.000         214.000
  24421585.894     4126132.62449   3207107.37245  24421585.888    24421596.665
       206.000         140.000
  24291483.604    -3455105.71749  -2663862.53745  24291482.706    24291495.908
       203.000         139.000
  21911249.129    -6713588.08349  -5202992.51047  21911248.378    21911258.683
       234.000         194.000
  22235262.619    -6562802.91349  -5094590.77846  22235261.938    22235272.214
       225.000         178.000
  21714007.488     1390418.73549   1015669.21247  21714007.815    21714017.359
       234.000         192.000
  24052050.883    -4171888.20749  -3036079.17645  24052050.162    24052062.893
       212.000         152.000
 00  1  6 21  0  0.0000000  0  9G 2G26G27G31G15G 7G 8G19G11
  21266438.445    -2780634.08949  -2025882.86548  21266437.642    21266446.462
       245.000         215.000
  23472073.932    -6046862.96249  -4696238.84745  23472073.951    23472084.407
       217.000         156.000
  20311918.524    -1764995.76749  -1367624.00248  20311918.302    20311926.421
       243.000         214.000
  24441927.691     4233029.20649   3290403.30245  24441927.496    24441940.757
       212.000         143.000
  24287638.004    -3475315.26549  -2679610.11045  24287637.688    24287650.191
       203.000         139.000
  21895859.996    -6794458.46349  -5266008.28747  21895859.522    21895869.480
       235.000         194.000
  22219134.977    -6647553.53949  -5160630.10346  22219134.843    22219144.740
       225.000         178.000
  21725785.875     1452314.40449   1063899.55947  21725785.911    21725795.163
       234.000         192.000
  24045274.264    -4207499.30849  -3063827.97445  24045274.613    24045286.310
       215.000         154.000
 00  1  6 21  0 30.0000000  0  9G 2G26G27G31G15G 7G 8G19G11
  21263628.989    -2795397.73149  -2037386.96448  21263628.436    21263636.931
       245.000         215.000
  23458840.596    -6116404.33349  -4750426.81345  23458840.962    23458851.493
       217.000         158.000
  20313556.688    -1756387.08649  -1360915.94048  20313556.577    20313564.562
       243.000         214.000
  24462301.814     4340095.86549   3373831.75845  24462302.560    24462315.301
       207.000         142.000
  24283885.330    -3495037.65049  -2694978.11245  24283884.107    24283898.917
       202.000         140.000
  21880529.915    -6875018.05449  -5328781.89947  21880529.395    21880539.257
       235.000         195.000
  22203027.049    -6732200.73949  -5226588.83246  22203026.485    22203036.842
       227.000         179.000
  21737625.515     1514531.75249   1112380.57147  21737625.675    21737635.172
       234.000         191.000
  24038567.377    -4242744.23049  -3091291.43545  24038567.386    24038578.862
       214.000         155.000
 00  1  6 21  1  0.0000000  0  9G 2G26G27G31G15G 7G 8G19G11
  21260851.184    -2809995.09649  -2048761.50148  21260850.679    21260859.164
       245.000         215.000
  23445685.907    -6185532.35849  -4804292.68445  23445685.530    23445697.374
       219.000         159.000
  20315274.885    -1747358.09249  -1353880.35748  20315274.688    20315282.805
       243.000         214.000
  24482706.175     4447321.07749   3457383.75745  24482705.985    24482719.053
       202.000         142.000
  24280227.342    -3514257.90749  -2709954.85545  24280228.588    24280241.453
       202.000         141.000
  21865261.913    -6955251.80449  -5391301.61147  21865261.235    21865271.693
       235.000         195.000
  22186938.237    -6816747.84249  -5292469.56346  22186938.002    22186947.831
       228.000         180.000
  21749525.608     1577067.05849   1161109.34147  21749526.056    21749535.389
       234.000         191.000
  24031932.143    -4277612.13449  -3118461.10645  24031931.330    24031943.930
       215.000         155.000
 00  1  6 21  1 30.0000000  0  9G 2G26G27G31G15G 7G 8G19G11
  21258106.058    -2824420.76949  -2060002.25248  21258105.510    21258114.263
       245.000         215.000
  23432612.365    -6254233.93349  -4857826.26445  23432612.180    23432623.074
       219.000         160.000
  20317075.468    -1737895.89749  -1346507.21448  20317075.331    20317083.471
       243.000         214.000
  24503138.746     4554694.33649   3541051.12245  24503138.280    24503151.620
       201.000         142.000
  24276667.557    -3532964.61749  -2724531.42945  24276666.603    24276679.642
       208.000         139.000
  21850061.724    -7035128.87649  -5453543.38347  21850060.528    21850070.782
       236.000         196.000
  22170868.634    -6901193.83649  -5358271.50446  22170867.568    22170878.299
       227.000         180.000
  21761485.092     1639914.21349   1210081.11647  21761485.287    21761494.791
       233.000         191.000
  24025369.286    -4312099.60149  -3145334.34145  24025369.263    24025380.844
       217.000         155.000
 00  1  6 21  2  0.0000000  0  9G 2G26G27G31G15G 7G 8G19G11
  21255392.390    -2838681.02449  -2071114.10448  21255391.788    21255400.493
       245.000         215.000
  23419620.264    -6322507.06849  -4911026.00045  23419619.895    23419630.841
       219.000         161.000
  20318958.392    -1728001.05349  -1338796.93848  20318958.358    20318966.198
       243.000         214.000
  24523600.022     4662218.58748   3624836.14145  24523598.696    24523614.395
       193.000         141.000
  24273205.866    -3551158.19849  -2738708.13645  24273204.570    24273217.752
       203.000         141.000
  21834932.894    -7114631.24649  -5515493.18447  21834932.071    21834942.159
       235.000         196.000
  22154817.874    -6985540.78249  -5423996.26646  22154817.489    22154827.324
       227.000         181.000
  21773503.844     1703073.06049   1259295.77347  21773503.667    21773513.344
       233.000         190.000
  24018877.306    -4346215.87949  -3171918.34745  24018877.467    24018888.105
       216.000         156.000
 00  1  6 21  2 30.0000000  0  8G 2G26G27G15G 7G 8G19G11
  21252707.905    -2852787.82049  -2082106.37448  21252707.267    21252715.950
       245.000         215.000
  23406708.240    -6390359.60049  -4963897.99945  23406708.823    23406719.222
       219.000         162.000
  20320919.626    -1717694.63149  -1330765.95648  20320919.480    20320927.455
       243.000         214.000
  24269838.560    -3568851.08749  -2752494.68245  24269839.790    24269850.889
       209.000         141.000
  21819877.116    -7193749.59649  -5577143.75247  21819876.524    21819886.564
       236.000         196.000
  22138783.850    -7069799.52949  -5489652.29646  22138782.820    22138792.735
       228.000         181.000
  21785581.411     1766541.24649   1308751.47547  21785581.316    21785591.523
       233.000         190.000
  24012454.485    -4379967.50449  -3198218.19545  24012453.934    24012465.039
       216.000         156.000
 00  1  6 21  3  0.0000000  0  8G 2G26G27G15G 7G 8G19G11
  21250051.731    -2866746.05949  -2092982.88448  21250051.136    21250059.620
       245.000         215.000
  23393874.371    -6457801.64549  -5016450.14145  23393874.618    23393885.431
       218.000         162.000
  20322959.281    -1706976.12649  -1322413.86848  20322959.208    20322967.178
       243.000         214.000
  24266565.199    -3586049.63149  -2765896.03845  24266565.786    24266576.971
       209.000         141.000
  21804890.421    -7272504.73349  -5638511.30147  21804889.449    21804899.639
       236.000         197.000
  22122766.747    -7153969.67749  -5555239.29146  22122766.378    22122775.966
       228.000         181.000
  21797715.142     1830304.26249   1358436.90847  21797715.116    21797724.965
       233.000         190.000
  24006099.817    -4413361.10149  -3224239.07745  24006098.874    24006111.065
       215.000         156.000
 00  1  6 21  3 30.0000000  0  8G 2G26G27G15G 7G 8G19G11
  21247426.707    -2880540.67949  -2103731.89648  21247426.153    21247434.812
       245.000         215.000
  23381120.345    -6524824.12449  -5068675.32846  23381120.067    23381130.423
       218.000         163.000
  20325079.796    -1695832.79749  -1313730.74948  20325079.520    20325087.549
       243.000         214.000
  24263389.278    -3602740.48049  -2778901.76545  24263388.136    24263404.147
       204.000         140.000
  21789974.069    -7350890.15849  -5699590.75647  21789973.395    21789983.303
       236.000         197.000
  22106770.172    -7238031.82449  -5620742.13446  22106769.572    22106779.048
       228.000         181.000
  21809909.237     1894384.35449   1408369.41847  21809909.174    21809918.806
       232.000         189.000
  23999814.949    -4446387.64649  -3249973.92745  23999813.785    23999826.067
       216.000         155.000
 00  1  6 21  4  0.0000000  0  8G 2G26G27G15G 7G 8G19G11
  21244831.552    -2894178.20349  -2114358.49748  21244831.060    21244839.389
       245.000         215.000
  23368446.472    -6591425.62349  -5120572.49446  23368446.371    23368457.104
       219.000         163.000
  20327284.224    -1684248.22549  -1304703.80348  20327284.224    20327292.132
       243.000         214.000
  24260310.734    -3618919.10749  -2791508.34845  24260308.578    24260321.237
       198.000         138.000
  21775126.813    -7428912.64449  -5760387.40647  21775125.904    21775136.077
       236.000         197.000
  22090796.069    -7321975.56449  -5686152.72046  22090795.880    22090804.878
       228.000         181.000
  21822165.324     1958790.46549   1458555.96447  21822165.289    21822175.227
       232.000         189.000
  23993601.606    -4479038.45049  -3275416.01145  23993600.616    23993612.281
       216.000         155.000
 00  1  6 21  4 30.0000000  0  8G 2G26G27G15G 7G 8G19G11
  21242268.496    -2907646.86349  -2124853.51248  21242267.804    21242276.334
       245.000         215.000
  23355853.647    -6657601.17149  -5172137.74846  23355853.589    23355864.068
       218.000         163.000
  20329575.184    -1672209.23549  -1295322.76448  20329574.818    20329583.019
       243.000         214.000
  24257329.773    -3634580.48749  -2803711.89545  24257328.221    24257344.867
       209.000         138.000
  21760346.009    -7506585.79549  -5820911.84747  21760345.147    21760355.470
       236.000         198.000
  22074848.505    -7405780.08649  -5751454.82446  22074848.121    22074857.476
       228.000         181.000
  21834483.729     2023524.00149   1508997.65847  21834483.671    21834493.110
       233.000         189.000
  23987463.544    -4511293.69249  -3300549.85445  23987462.755    23987474.618
       217.000         156.000
 00  1  6 21  5  0.0000000  0  8G 2G26G27G15G 7G 8G19G11
  21239740.415    -2920931.92049  -2135205.46148  21239739.894    21239748.416
       245.000         215.000
  23343343.414    -6723341.98749  -5223364.24046  23343343.250    23343353.900
       216.000         164.000
  20331954.728    -1659704.72449  -1285578.98448  20331954.511    20331962.517
       243.000         214.000
  24254450.911    -3649710.30449  -2815501.19745  24254450.154    24254464.109
       211.000         140.000
  21745632.270    -7583906.28449  -5881161.48647  21745631.093    21745641.359
       236.000         198.000
  22058931.476    -7489424.06149  -5816631.82846  22058931.360    22058940.334
       229.000         182.000
  21846866.639     2088596.41349   1559703.40147  21846866.479    21846876.149
       232.000         189.000
  23981401.498    -4543149.30849  -3325372.30645  23981400.232    23981411.869
       217.000         156.000
 00  1  6 21  5 30.0000000  0  8G 2G26G27G15G 7G 8G19G11
  21237245.028    -2934045.05049  -2145423.44248  21237244.392    21237252.924
       245.000         215.000
  23330915.907    -6788648.37749  -5274252.21946  23330916.103    23330926.652
       218.000         164.000
  20334418.299    -1646758.50049  -1275491.00948  20334418.175    20334426.310
       243.000         214.000
  24251672.886    -3664309.01249  -2826876.60445  24251672.996    24251685.361
       211.000         140.000
  21730989.983    -7660851.19649  -5941118.47447  21730989.229    21730999.250
       236.000         198.000
  22043046.622    -7572899.02749  -5881677.15146  22043046.287    22043055.453
       229.000         182.000
  21859314.197     2154008.74849   1610674.01947  21859314.072    21859323.598
       233.000         189.000
  23975417.003    -4574597.66349  -3349877.40045  23975416.225    23975428.587
       218.000         156.000
 00  1  6 21  6  0.0000000  0  8G 2G26G27G15G 7G 8G19G11
  21234780.185    -2946997.65749  -2155516.34048  21234779.678    21234788.110
       245.000         215.000
  23318566.922    -6853542.67449  -5324819.09246  23318566.962    23318577.309
       218.000         165.000
  20336960.101    -1633401.23849  -1265082.74648  20336959.906    20336967.976
       243.000         214.000
  24248994.425    -3678385.18749  -2837844.89345  24248994.261    24249007.494
       207.000         141.000
  21716418.307    -7737425.89449  -6000786.97547  21716417.757    21716427.702
       237.000         199.000
  22027191.484    -7656217.93249  -5946600.86646  22027191.313    22027200.134
       229.000         182.000
  21871823.428     2219744.98949   1661897.03947  21871823.422    21871833.470
       232.000         189.000
  23969510.485    -4605637.04349  -3374063.82945  23969510.823    23969521.224
       217.000         156.000
 00  1  6 21  6 30.0000000  0  8G 2G26G27G15G 7G 8G19G11
  21232346.526    -2959786.61549  -2165481.72348  21232345.993    21232354.590
       245.000         216.000
  23306295.346    -6918029.48649  -5375068.43546  23306294.418    23306305.685
       217.000         166.000
  20339576.106    -1619653.96049  -1254370.57448  20339575.865    20339583.969
       243.000         214.000
  24246413.812    -3691944.68649  -2848410.59345  24246412.688    24246426.872
       208.000         141.000
  21701914.927    -7813641.63049  -6060175.77347  21701914.217    21701924.218
       236.000         199.000
  22011361.039    -7739406.80149  -6011423.25946  22011360.053    22011370.433
       229.000         182.000
  21884393.373     2285800.50449   1713368.83947  21884393.540    21884403.234
       232.000         188.000
  23963680.132    -4636274.93849  -3397937.41645  23963679.620    23963691.197
       216.000         156.000
 00  1  6 21  7  0.0000000  0  8G 2G26G27G15G 7G 8G19G11
  21229940.822    -2972428.56249  -2175332.55348  21229940.158    21229948.859
       246.000         216.000
  23294101.467    -6982108.04749  -5424999.65846  23294101.019    23294112.529
       217.000         166.000
  20342263.475    -1605531.65449  -1243366.17648  20342263.174    20342271.178
       243.000         214.000
  24243931.815    -3704987.82749  -2858573.88445  24243932.715    24243944.849
       211.000         144.000
  21687479.158    -7889501.75949  -6119287.47647  21687478.671    21687488.521
       236.000         199.000
  21995550.526    -7822490.99749  -6076164.08346  21995549.628    21995559.528
       228.000         182.000
  21897025.223     2352181.27749   1765094.07547  21897024.965    21897034.503
       232.000         188.000
  23957926.378    -4666510.39049  -3421497.41145  23957925.853    23957937.012
       217.000         157.000
 00  1  6 21  7 30.0000000  0  8G 2G26G27G15G 7G 8G19G11
  21227562.210    -2984928.12249  -2185072.43348  21227561.695    21227570.128
       245.000         216.000
  23281985.569    -7045777.07749  -5474611.77146  23281986.136    23281996.595
       218.000         166.000
  20345021.536    -1591038.05149  -1232072.45548  20345021.505    20345029.475
       242.000         214.000
  24241546.076    -3717524.79949  -2868342.80045  24241542.679    24241557.544
       207.000         143.000
  21673107.940    -7965022.82749  -6178134.97147  21673107.370    21673117.042
       237.000         200.000
  21979755.755    -7905492.38349  -6140840.38346  21979754.762    21979764.776
       228.000         182.000
  21909716.867     2418876.27449   1817064.16547  21909716.739    21909726.483
       232.000         188.000
  23952249.459    -4696343.09949  -3444743.57945  23952249.673    23952260.431
       218.000         157.000
 00  1  6 21  8  0.0000000  0  8G 2G26G27G15G 7G 8G19G11
  21225214.959    -2997262.91749  -2194683.93048  21225214.380    21225222.779
       245.000         216.000
  23269949.568    -7109026.52649  -5523896.93946  23269949.679    23269959.737
       217.000         166.000
  20347856.143    -1576142.19449  -1220465.29048  20347855.773    20347863.924
       243.000         214.000
  24239258.281    -3729546.71249  -2877710.35145  24239258.560    24239271.005
       214.000         144.000
  21658799.064    -8040216.37449  -6236727.25647  21658798.126    21658807.981
       237.000         200.000
  21963976.975    -7988409.54649  -6205451.05146  21963976.565    21963986.429
       227.000         182.000
  21922469.513     2485891.47349   1869283.76046  21922469.280    21922479.344
       231.000         187.000
  23946648.769    -4725774.33349  -3467676.92445  23946648.710    23946659.896
       218.000         157.000
 00  1  6 21  8 30.0000000  0  8G 2G26G27G15G 7G 8G19G11
  21222900.306    -3009426.26649  -2204161.83648  21222899.742    21222908.247
       246.000         216.000
  23257998.930    -7171827.26849  -5572832.47046  23257998.693    23258009.327
       218.000         166.000
  20350771.445    -1560822.14249  -1208527.58348  20350771.164    20350779.230
       243.000         214.000
  24237071.072    -3741042.60849  -2886668.04945  24237070.495    24237084.356
       212.000         143.000
  21644555.142    -8115068.30549  -6295053.35047  21644554.567    21644564.154
       237.000         200.000
  21948220.274    -8071211.19249  -6269971.71846  21948219.534    21948228.949
       228.000         183.000
  21935285.521     2553240.08649   1921763.15046  21935285.768    21935295.486
       231.000         187.000
  23941125.413    -4754799.53849  -3490293.87345  23941124.614    23941135.540
       217.000         158.000
 00  1  6 21  9  0.0000000  0  8G 2G26G27G15G 7G 8G19G11
  21220615.969    -3021430.33549  -2213515.63148  21220615.354    21220623.975
       245.000         216.000
  23246132.315    -7234185.93249  -5621423.52246  23246131.858    23246141.803
       217.000         166.000
  20353767.882    -1545075.71049  -1196257.62748  20353767.650    20353775.665
       243.000         214.000
  24234983.032    -3752014.14049  -2895217.15445  24234980.582    24234995.228
       208.000         140.000
  21630380.695    -8189554.83649  -6353094.71947  21630379.990    21630390.112
       237.000         200.000
  21932490.467    -8153871.69949  -6334382.39746  21932489.843    21932498.704
       229.000         184.000
  21948162.991     2620911.38649   1974493.97846  21948163.203    21948172.855
       231.000         187.000
  23935679.140    -4783419.49649  -3512595.05445  23935679.034    23935689.366
       216.000         157.000
 00  1  6 21  9 30.0000000  0  8G 2G26G27G15G 7G 8G19G11
  21218361.667    -3033276.82049  -2222746.63448  21218361.274    21218369.459
       246.000         216.000
  23234348.014    -7296112.31149  -5669677.72646  23234348.215    23234358.555
       219.000         167.000
  20356845.127    -1528904.71949  -1183656.84648  20356844.959    20356852.891
       243.000         213.000
  24232994.218    -3762463.38949  -2903359.30645  24232992.269    24233008.045
       206.000         138.000
  21616280.717    -8263650.55949  -6410831.55847  21616279.851    21616289.640
       237.000         200.000
  21916790.306    -8236376.46049  -6398671.73146  21916789.652    21916798.636
       229.000         184.000
  21961097.676     2688883.27549   2027459.03246  21961097.718    21961107.422
       230.000         186.000
  23930307.201    -4811648.85349  -3534591.84745  23930306.124    23930318.468
       219.000         157.000
 00  1  6 21 10  0.0000000  0  8G 2G26G27G15G 7G 8G19G11
  21216133.671    -3044985.01749  -2231869.88648  21216133.007    21216141.680
       245.000         216.000
  23222643.855    -7357617.66949  -5717603.86246  23222644.198    23222654.738
       218.000         167.000
  20360001.673    -1512316.81249  -1170731.20048  20360001.654    20360009.556
       243.000         213.000
  24231104.103    -3772395.41749  -2911098.45445  24231103.906    24231118.081
       214.000         142.000
  21602256.516    -8337347.78549  -6468257.88547  21602255.590    21602265.396
       238.000         201.000
  21901122.013    -8318713.67449  -6462830.49946  21901121.659    21901130.595
       230.000         185.000
  21974089.438     2757155.08449   2080657.79046  21974089.584    21974099.532
       230.000         186.000
  23925008.877    -4839491.80049  -3556287.57545  23925007.742    23925019.727
       217.000         157.000
 00  1  6 21 10 30.0000000  0  8G 2G26G27G15G 7G 8G19G11
  21213927.723    -3056577.32549  -2240902.83348  21213927.134    21213935.617
       245.000         216.000
  23211016.931    -7418717.57749  -5765214.06246  23211016.837    23211026.987
       219.000         167.000
  20363234.665    -1495327.31849  -1157492.63548  20363234.496    20363242.574
       243.000         213.000
  24229309.527    -3781826.16349  -2918447.03445  24229308.149    24229321.781
       209.000         141.000
  21588307.723    -8410648.80149  -6525375.48047  21588306.936    21588316.479
       237.000         201.000
  21885482.830    -8400898.20249  -6526870.29546  21885482.056    21885492.599
       230.000         185.000
  21987138.277     2825727.43049   2134090.72646  21987138.471    21987148.354
       229.000         185.000
  23919782.288    -4866956.25549  -3577688.36945  23919780.890    23919792.533
       217.000         157.000
 00  1  6 21 11  0.0000000  0  8G 2G26G27G15G 7G 8G19G11
  21211745.949    -3068042.31749  -2249836.57548  21211745.364    21211753.880
       245.000         216.000
  23199466.395    -7479415.85849  -5812511.30946  23199466.853    23199476.705
       219.000         167.000
  20366545.765    -1477927.44349  -1143934.29748  20366545.584    20366553.613
       243.000         213.000
  24227609.878    -3790756.67349  -2925405.77345  24227610.095    24227624.500
       211.000         142.000
  21574432.083    -8483565.49549  -6582193.59747  21574431.552    21574441.309
       238.000         201.000
  21869868.999    -8482949.07949  -6590805.94646  21869867.935    21869877.770
       230.000         185.000
  22000244.052     2894598.57849   2187756.49046  22000244.048    22000253.881
       230.000         185.000
  23914628.832    -4894037.84649  -3598790.82345  23914628.327    23914639.816
       217.000         156.000
 00  1  6 21 11 30.0000000  0  8G 2G26G27G15G 7G 8G19G11
  21209592.430    -3079359.16149  -2258654.88148  21209591.925    21209600.236
       246.000         216.000
  23187997.948    -7539682.62149  -5859472.30046  23187998.143    23188007.819
       219.000         167.000
  20369939.100    -1460095.30449  -1130039.12748  20369938.935    20369946.970
       243.000         213.000
  24226009.349    -3799168.27649  -2931960.21145  24226008.603    24226022.167
       209.000         143.000
  21560626.668    -8556113.02049  -6638724.05547  21560625.929    21560635.780
       238.000         202.000
  21854282.482    -8564856.31149  -6654629.66746  21854281.426    21854290.846
       230.000         185.000
  22013411.373     2963793.19349   2241674.30746  22013411.562    22013421.331
       230.000         185.000
  23909553.611    -4920708.01249  -3619572.70345  23909553.351    23909564.206
       218.000         156.000
 00  1  6 21 12  0.0000000  0  8G 2G26G27G15G 7G 8G19G11
  21207468.289    -3090521.67649  -2267352.92948  21207467.806    21207476.270
       246.000         216.000
  23176613.331    -7599508.33549  -5906089.62246  23176613.105    23176624.187
       218.000         167.000
  20373416.507    -1441821.57549  -1115799.86048  20373416.437    20373424.409
       243.000         213.000
  24224507.000    -3807059.97149  -2938109.48445  24224505.354    24224516.963
       206.000         141.000
  21546886.662    -8628316.83549  -6694986.68847  21546885.841    21546895.439
       239.000         202.000
  21838723.607    -8646618.31849  -6718340.22746  21838722.977    21838732.500
       230.000         186.000
  22026644.881     3033335.38049   2295862.95646  22026644.821    22026654.478
       230.000         184.000
  23904559.780    -4946950.59549  -3640021.40345  23904560.007    23904570.271
       217.000         156.000
 00  1  6 21 12 30.0000000  0  8G 2G26G27G15G 7G 8G19G11
  21205377.341    -3101509.55049  -2275914.89348  21205376.843    21205385.210
       246.000         216.000
  23165316.340    -7658873.77449  -5952348.29846  23165316.175    23165326.225
       218.000         166.000
  20376981.023    -1423089.90249  -1101203.75048  20376980.850    20376988.839
       243.000         213.000
  24223107.278    -3814414.07549  -2943839.93245  24223109.280    24223121.611
       216.000         140.000
  21533212.647    -8700174.06749  -6750979.25047  21533212.038    21533221.504
       238.000         202.000
  21823194.794    -8728222.53449  -6781927.82946  21823193.817    21823203.621
       230.000         186.000
  22039944.362     3103224.39049   2350321.85846  22039944.154    22039954.767
       229.000         184.000
  23899650.025    -4972751.27149  -3660125.76445  23899649.197    23899660.222
       220.000         156.000
 00  1  6 21 13  0.0000000  0  8G 2G26G27G15G 7G 8G19G11
  21203320.975    -3112315.73449  -2284335.27948  21203320.267    21203328.751
       245.000         216.000
  23154110.897    -7717757.77149  -5998231.82346  23154110.323    23154120.613
       219.000         166.000
  20380632.599    -1403900.72749  -1086251.14748  20380632.412    20380640.165
       243.000         213.000
  24221814.741    -3821211.31249  -2949136.38245  24221812.708    24221829.879
       208.000         144.000
  21519606.751    -8771673.14649  -6806692.73647  21519605.897    21519615.473
       239.000         202.000
  21807700.090    -8809647.28449  -6845375.58446  21807699.164    21807709.071
       230.000         187.000
  22053306.571     3173442.95249   2405037.54846  22053306.144    22053316.357
       228.000         183.000
  23894828.794    -4998087.17749  -3679867.96445  23894827.905    23894839.333
       217.000         156.000
 00  1  6 21 13 30.0000000  0  8G 2G26G27G15G 7G 8G19G11
  21201296.945    -3122951.80449  -2292623.11048  21201296.218    21201304.923
       245.000         216.000
  23142996.460    -7776164.12149  -6043743.15746  23142997.346    23143006.482
       220.000         166.000
  20384370.075    -1384260.19849  -1070946.84248  20384369.984    20384377.824
       243.000         213.000
  24220626.168    -3827453.82249  -2954000.58745  24220627.029    24220636.780
       213.000         142.000
  21506071.214    -8842802.58749  -6862118.19247  21506070.507    21506080.169
       238.000         203.000
  21792239.926    -8890890.61249  -6908681.96146  21792239.257    21792248.072
       231.000         187.000
  22066729.327     3243979.93449   2460001.37146  22066729.561    22066739.376
       229.000         183.000
  23890094.351    -5022965.90249  -3699253.91045  23890093.642    23890105.806
       217.000         155.000
 00  1  6 21 14  0.0000000  0  8G 2G26G27G15G 7G 8G19G11
  21199306.294    -3133412.66949  -2300774.41348  21199305.896    21199314.239
       245.000         216.000
  23131972.201    -7834096.85949  -6088885.43846  23131972.209    23131981.639
       219.000         167.000
  20388192.516    -1364173.19749  -1055294.63548  20388192.278    20388200.242
       243.000         213.000
  24219542.697    -3833147.44449  -2958437.09245  24219540.731    24219556.338
       210.000         142.000
  21492609.616    -8913543.34549  -6917240.77847  21492609.046    21492618.418
       239.000         203.000
  21776812.383    -8971962.64849  -6971854.87047  21776811.997    21776820.497
       231.000         188.000
  22080210.452     3314823.58649   2515204.15146  22080210.388    22080220.335
       231.000         183.000
  23885443.110    -5047407.47649  -3718299.23145  23885442.902    23885454.114
       216.000         155.000
 00  1  6 21 14 30.0000000  0  8G 2G26G27G15G 7G 8G19G11
  21197349.106    -3143697.63349  -2308788.64548  21197348.551    21197356.995
       246.000         216.000
  23121039.581    -7891548.06849  -6133652.50546  23121039.168    23121049.674
       220.000         167.000
  20392098.431    -1343647.33749  -1039300.45948  20392098.334    20392106.301
       243.000         213.000
  24218563.251    -3838293.50549  -2962446.88945  24218564.007    24218575.796
       212.000         141.000
  21479225.405    -8983877.34049  -6972046.40747  21479224.632    21479234.176
       240.000         203.000
  21761415.476    -9052873.53449  -7034902.20047  21761414.686    21761423.695
       231.000         189.000
  22093747.756     3385962.53249   2570637.04646  22093747.727    22093757.478
       230.000         183.000
  23880874.705    -5071414.41849  -3737005.86145  23880873.465    23880885.034
       218.000         156.000
 00  1  6 21 15  0.0000000  0  8G 2G26G27G15G 7G 8G19G11
  21195424.238    -3153812.87149  -2316670.62348  21195423.674    21195432.216
       245.000         216.000
  23110198.260    -7948519.07849  -6178045.39146  23110198.433    23110208.555
       221.000         168.000
  20396085.497    -1322695.24149  -1022974.15748  20396085.544    20396093.331
       243.000         213.000
  24217686.329    -3842902.03049  -2966037.85845  24217684.926    24217699.782
       210.000         142.000
  21465919.661    -9053799.24549  -7026530.92647  21465918.764    21465928.245
       239.000         203.000
  21746046.425    -9133638.32349  -7097835.68347  21746045.646    21746054.951
       231.000         189.000
  22107343.244     3457407.21149   2626308.16546  22107343.195    22107353.471
       230.000         183.000
  23876385.363    -5095006.06549  -3755388.94645  23876385.003    23876396.442
       219.000         156.000
 00  1  6 21 15 30.0000000  0  8G 2G26G27G15G 7G 8G19G11
  21193530.890    -3163762.26949  -2324423.37448  21193530.274    21193538.775
       246.000         216.000
  23099446.571    -8005019.45349  -6222071.55046  23099446.016    23099456.089
       220.000         168.000
  20400154.337    -1301313.29149  -1006312.90148  20400154.027    20400162.180
       243.000         213.000
  24216910.307    -3846980.14549  -2969215.48445  24216909.003    24216924.370
       209.000         143.000
  21452692.491    -9123307.96649  -7080693.48747  21452691.741    21452701.221
       239.000         204.000
  21730704.075    -9214262.47549  -7160659.58047  21730703.587    21730712.531
       232.000         189.000
  22121000.613     3529176.78249   2682232.45646  22121001.050    22121010.424
       231.000         182.000
  23871971.526    -5118201.11949  -3773462.95345  23871971.458    23871982.972
       219.000         156.000
 00  1  6 21 16  0.0000000  0  8G 2G26G27G15G 7G 8G19G11
  21191668.879    -3173547.09249  -2332047.88248  21191668.353    21191676.626
       245.000         216.000
  23088785.404    -8061043.50749  -6265726.54846  23088784.707    23088795.533
       220.000         168.000
  20404301.928    -1279517.49549   -989329.16648  20404301.566    20404309.677
       243.000         213.000
  24216235.368    -3850525.33949  -2971977.87445  24216234.620    24216248.170
       211.000         143.000
  21439543.576    -9192405.67749  -7134535.78047  21439542.813    21439552.354
       239.000         204.000
  21715388.657    -9294745.03949  -7223373.15647  21715388.090    21715396.872
       232.000         189.000
  22134720.321     3601274.04749   2738412.09246  22134720.302    22134730.499
       230.000         182.000
  23867634.591    -5140991.87749  -3791221.93545  23867634.660    23867644.956
       217.000         155.000
 00  1  6 21 16 30.0000000  0  8G 2G26G27G15G 7G 8G19G11
  21189834.729    -3183185.57749  -2339558.35948  21189834.073    21189842.548
       245.000         216.000
  23078211.517    -8116609.09849  -6309024.30846  23078211.746    23078221.571
       220.000         168.000
  20408527.938    -1257309.61849   -972024.33248  20408527.650    20408535.832
       243.000         213.000
  24215662.355    -3853536.75949  -2974324.34745  24215663.485    24215673.981
       213.000         144.000
  21426470.187    -9261106.33549  -7188068.67947  21426469.344    21426478.742
       239.000         204.000
  21700102.146    -9375075.75649  -7285968.40347  21700101.402    21700110.707
       232.000         190.000
  22148501.788     3673695.81149   2794844.59246  22148501.402    22148511.996
       229.000         182.000
  23863373.396    -5163384.22849  -3808670.46445  23863372.841    23863384.215
       218.000         155.000
 00  1  6 21 17  0.0000000  0  8G 2G26G27G15G 7G 8G19G11
  21188025.748    -3192691.69149  -2346965.68548  21188025.065    21188033.813
       245.000         216.000
  23067721.745    -8171732.69649  -6351977.65746  23067722.038    23067731.656
       221.000         168.000
  20412835.166    -1234675.04549   -954387.00548  20412835.068    20412843.109
       243.000         213.000
  24215192.057    -3856009.85149  -2976251.34445  24215192.331    24215204.753
       212.000         143.000
  21413472.137    -9329411.06249  -7241293.06247  21413471.302    21413481.169
       239.000         204.000
  21684846.751    -9455242.99149  -7348436.26247  21684846.463    21684855.070
       232.000         190.000
  22162344.056     3746437.03649   2851526.01846  22162343.989    22162353.776
       230.000         182.000
  23859187.713    -5185380.62849  -3825810.45745  23859186.959    23859197.619
       219.000         155.000
 00  1  6 21 17 30.0000000  0  8G 2G26G27G15G 7G 8G19G11
  21186240.632    -3202072.28449  -2354275.20048  21186240.011    21186248.514
       245.000         216.000
  23057315.416    -8226418.26649  -6394589.68146  23057315.133    23057325.279
       222.000         169.000
  20417224.494    -1211609.05849   -936413.51148  20417224.270    20417232.412
       243.000         213.000
  24214825.073    -3857939.26749  -2977754.69245  24214822.717    24214837.678
       212.000         143.000
  21400550.278    -9397315.50549  -7294205.53947  21400549.708    21400559.205
       239.000         205.000
  21669622.795    -9535245.03149  -7410775.40247  21669622.073    21669631.159
       232.000         190.000
  22176244.737     3819485.38749   2908446.76746  22176245.185    22176254.297
       230.000         182.000
  23855083.774    -5206946.39649  -3842614.90545  23855082.590    23855094.884
       218.000         155.000
 00  1  6 21 18  0.0000000  0  8G 2G26G27G15G 7G 8G19G11
  21184478.908    -3211330.01649  -2361488.97748  21184478.281    21184486.846
       245.000         216.000
  23046992.551    -8280664.89349  -6436859.68146  23046992.529    23047002.158
       221.000         169.000
  20421695.972    -1188111.24449   -918103.52648  20421695.794    20421703.771
       243.000         213.000
  24214560.678    -3859328.26049  -2978836.97745  24214560.579    24214572.830
       211.000         142.000
  21387703.502    -9464825.65449  -7346810.77047  21387702.941    21387712.295
       239.000         205.000
  21654430.864    -9615078.66449  -7472983.31947  21654430.330    21654439.130
       233.000         191.000
  22190201.469     3892828.47549   2965597.17946  22190201.723    22190211.543
       229.000         182.000
  23851063.646    -5228072.63749  -3859076.85445  23851063.243    23851073.876
       219.000         155.000
 00  1  6 21 18 30.0000000  0  8G 2G26G27G15G 7G 8G19G11
  21182738.572    -3220475.57349  -2368615.34448  21182737.956    21182746.473
       245.000         216.000
  23036752.856    -8334474.19249  -6478788.90346  23036752.758    23036762.995
       223.000         170.000
  20426253.239    -1164162.68549   -899442.31047  20426252.999    20426261.158
       243.000         212.000
  24214398.630    -3860178.77049  -2979499.61245  24214396.442    24214412.245
       212.000         143.000
  21374932.541    -9531937.11949  -7399105.34047  21374931.783    21374941.381
       240.000         205.000
  21639273.010    -9694733.23449  -7535051.70647  21639272.433    21639281.257
       234.000         191.000
  22204213.995     3966464.40549   3022975.77646  22204213.993    22204224.354
       229.000         182.000
  23847128.542    -5248751.75349  -3875190.39145  23847128.197    23847139.420
       220.000         155.000
 00  1  6 21 19  0.0000000  0  8G 2G26G27G15G 7G 8G19G11
  21181019.787    -3229507.61849  -2375653.25848  21181019.216    21181027.660
       245.000         216.000
  23026599.880    -8387828.86649  -6520363.87446  23026600.586    23026610.263
       224.000         171.000
  20430892.489    -1139783.21849   -880445.32347  20430892.437    20430900.145
       243.000         212.000
  24214337.193    -3860499.44849  -2979749.44145  24214335.794    24214351.470
       210.000         142.000
  21362237.102    -9598651.96649  -7451090.85247  21362236.591    21362246.002
       240.000         206.000
  21624147.638    -9774217.18149  -7596987.14047  21624147.094    21624155.823
       233.000         191.000
  22218281.304     4040388.29949   3080578.76146  22218281.424    22218291.484
       229.000         182.000
  23843283.090    -5268959.81849  -3890936.88845  23843282.609    23843293.394
       218.000         154.000
 00  1  6 21 19 30.0000000  0  8G 2G26G27G15G 7G 8G19G11
  21179322.886    -3238424.66249  -2382601.56348  21179322.360    21179330.868
       245.000         216.000
  23016534.655    -8440721.98849  -6561579.19046  23016534.695    23016544.478
       224.000         172.000
  20435609.229    -1114996.43249   -861130.94647  20435609.162    20435617.017
       243.000         212.000
  24214374.091    -3860302.41649  -2979595.87745  24214374.497    24214388.546
       213.000         142.000
  21349613.283    -9664990.47749  -7502783.12047  21349612.331    21349621.951
       240.000         206.000
  21609053.080    -9853539.01249  -7658796.25647  21609052.304    21609061.275
       233.000         191.000
  22232401.562     4114590.48249   3138398.58646  22232401.978    22232412.046
       229.000         182.000
  23839526.795    -5288699.73349  -3906318.58645  23839525.400    23839535.982
       219.000         154.000
 00  1  6 21 20  0.0000000  0  8G 2G26G27G15G 7G 8G19G11
  21177648.459    -3247223.70149  -2389457.91248  21177647.929    21177656.263
       246.000         216.000
  23006556.640    -8493156.46049  -6602437.12246  23006556.552    23006565.891
       224.000         173.000
  20440404.277    -1089798.19449   -841495.96047  20440403.983    20440412.190
       243.000         212.000
  24214509.343    -3859592.10149  -2979042.28645  24214507.755    24214522.121
       210.000         142.000
  21337058.062    -9730968.20749  -7554194.25547  21337057.413    21337066.746
       240.000         206.000
  21593991.563    -9932687.28849  -7720470.13647  21593990.971    21593999.854
       234.000         192.000
  22246576.239     4189078.51049   3196441.15146  22246576.136    22246586.539
       228.000         181.000
  23835854.218    -5307998.94949  -3921356.88545  23835853.182    23835864.023
       217.000         154.000
 00  1  6 21 20 30.0000000  0  8G 2G26G27G15G 7G 8G19G11
  21175999.779    -3255887.38349  -2396208.79048  21175999.131    21176007.572
       245.000         216.000
  22996668.272    -8545119.91149  -6642928.02546  22996668.378    22996678.125
       224.000         173.000
  20445278.943    -1064181.69749   -821535.05647  20445278.848    20445286.773
       243.000         212.000
  24214743.804    -3858358.29249  -2978080.85445  24214742.642    24214757.246
       208.000         140.000
  21324572.500    -9796579.76249  -7605320.05847  21324571.596    21324581.025
       240.000         206.000
  21578962.147   -10011667.36449  -7782012.95547  21578961.446    21578970.413
       234.000         192.000
  22260806.916     4263861.42149   3254713.49746  22260807.014    22260817.524
       228.000         180.000
  23832266.182    -5326852.63449  -3936047.99645  23832265.776    23832277.506
       218.000         155.000
 00  1  6 21 21  0.0000000  0  8G 2G26G27G15G 7G 8G19G11
  21174382.208    -3264387.54349  -2402832.24848  21174381.601    21174390.105
       245.000         216.000
  22986870.750    -8596605.97949  -6683046.94146  22986870.950    22986880.117
       224.000         172.000
  20450234.484    -1038140.24149   -801243.01347  20450234.387    20450242.306
       242.000         212.000
  24215081.369    -3856584.25949  -2976698.40845  24215079.729    24215092.339
       208.000         138.000
  21312159.065    -9861812.36749  -7656150.58147  21312158.450    21312167.829
       240.000         206.000
  21563965.171   -10090477.01149  -7843422.97747  21563964.478    21563973.511
       234.000         192.000
  22275094.090     4338940.64549   3313216.73146  22275093.624    22275104.292
       228.000         180.000
  23828762.546    -5345265.75449  -3950395.83845  23828762.161    23828771.495
       218.000         156.000
 00  1  6 21 21 30.0000000  0  8G 2G26G27G15G 7G 8G19G11
  21172798.538    -3272709.50649  -2409316.85548  21172797.827    21172806.548
       245.000         216.000
  22977164.568    -8647611.61849  -6722791.49446  22977164.330    22977174.123
       222.000         172.000
  20455276.756    -1011642.98949   -780595.80047  20455276.597    20455284.606
       242.000         212.000
  24215525.199    -3854251.56449  -2974880.65645  24215523.692    24215535.022
       207.000         137.000
  21299823.185    -9926637.67249  -7706663.72547  21299822.530    21299832.049
       240.000         207.000
  21549003.379   -10169101.17849  -7904688.46947  21549002.526    21549011.675
       234.000         193.000
  22289439.949     4414328.49749   3371960.45246  22289440.042    22289450.385
       228.000         180.000
  23825341.274    -5363244.11949  -3964404.88345  23825340.690    23825351.914
       216.000         156.000
 00  1  6 21 22  0.0000000  0  8G 2G26G27G15G 7G 8G19G11
  21171250.213    -3280845.65049  -2415656.66848  21171249.429    21171258.028
       245.000         216.000
  22967551.707    -8698126.40749  -6762153.56546  22967552.115    22967561.315
       222.000         171.000
  20460408.986     -984672.97949   -759580.20347  20460408.714    20460416.866
       243.000         212.000
  24216077.811    -3851344.94749  -2972615.74645  24216077.888    24216091.932
       207.000         138.000
  21287570.855    -9991023.85349  -7756834.69247  21287570.252    21287579.672
       240.000         207.000
  21534080.018   -10247523.31849  -7965796.53847  21534078.947    21534087.905
       234.000         193.000
  22303847.832     4490042.25649   3430958.11546  22303848.037    22303858.054
       227.000         180.000
  23822002.862    -5380784.34849  -3978072.54745  23822002.771    23822013.548
       217.000         155.000
 00  1  6 21 22 30.0000000  0  8G 2G26G27G15G 7G 8G19G11
  21169737.278    -3288796.07749  -2421851.77248  21169736.826    21169745.204
       246.000         216.000
  22958035.784    -8748132.52449  -6801119.27546  22958036.072    22958045.260
       222.000         171.000
  20465629.131     -957241.01249   -738204.64247  20465628.910    20465637.189
       242.000         212.000
  24216740.635    -3847859.71549  -2969899.91845  24216739.920    24216753.053
       206.000         138.000
  21275404.112   -10054960.27749  -7806655.20147  21275403.565    21275412.776
       240.000         207.000
  21519194.270   -10325748.34149  -8026751.02247  21519193.682    21519202.394
       235.000         193.000
  22318315.843     4566071.83149   3490201.87846  22318315.961    22318326.670
       227.000         179.000
  23818751.517    -5397871.02849  -3991386.77245  23818751.102    23818761.601
       217.000         155.000
 00  1  6 21 23  0.0000000  0  8G 2G26G27G15G 7G 8G19G11
  21168253.875    -3296591.44849  -2427926.05848  21168253.423    21168261.741
       245.000         216.000
  22948613.780    -8797645.15949  -6839700.45146  22948613.895    22948623.541
       221.000         171.000
  20470935.027     -929358.21049   -716477.78547  20470934.997    20470942.798
       242.000         212.000
  24217511.610    -3843806.35849  -2966741.40845  24217508.857    24217523.971
       203.000         136.000
  21263322.540   -10118449.23049  -7856127.03047  21263321.869    21263331.202
       241.000         207.000
  21504347.903   -10403766.19049  -8087544.06747  21504347.420    21504355.788
       234.000         193.000
  22332843.256     4642413.70149   3549688.97946  22332843.364    22332853.927
       228.000         179.000
  23815584.162    -5414514.06149  -4004355.30745  23815583.195    23815594.843
       218.000         154.000
 00  1  6 21 23 30.0000000  0  8G 2G26G27G15G 7G 8G19G11
  21166793.934    -3304263.57349  -2433904.31048  21166793.344    21166801.565
       245.000         216.000
  22939284.168    -8846671.87949  -6877902.99746  22939283.844    22939294.062
       222.000         171.000
  20476324.538     -901036.22849   -694408.70647  20476324.216    20476332.438
       242.000         212.000
  24218386.917    -3839206.49649  -2963157.09845  24218385.571    24218400.566
       205.000         135.000
  21251321.529   -10181514.67349  -7905268.85247  21251320.787    21251330.050
       241.000         208.000
  21489538.657   -10481588.81049  -8148184.99247  21489537.942    21489546.950
       234.000         194.000
  22347431.415     4719074.62749   3609424.69846  22347431.685    22347441.824
       227.000         179.000
  23812501.150    -5430716.22749  -4016980.33145  23812500.789    23812513.158
       215.000         154.000
 00  1  6 21 24  0.0000000  0  8G 2G26G27G15G 7G 8G19G11
  21165353.506    -3311832.95049  -2439802.50548  21165352.901    21165361.065
       245.000         216.000
  22930047.858    -8895208.33349  -6915723.52146  22930047.508    22930057.122
       222.000         172.000
  20481794.525     -872291.17749   -672009.97247  20481794.379    20481802.440
       242.000         212.000
  24219363.636    -3834076.24049  -2959159.52245  24219363.793    24219378.397
       205.000         136.000
  21239396.387   -10244181.53549  -7954100.09247  21239395.732    21239405.172
       241.000         208.000
  21474763.060   -10559234.72449  -8208688.22747  21474762.521    21474771.106
       234.000         194.000
  22362076.396     4796034.39849   3669393.28646  22362076.816    22362086.767
       227.000         178.000
  23809499.589    -5446489.98449  -4029271.48845  23809499.297    23809509.763
       218.000         154.000
 00  1  6 21 24 30.0000000  0  8G 2G26G27G15G 7G 8G19G11
  21163932.789    -3319298.71949  -2445619.96648  21163932.185    21163940.588
       245.000         216.000
  22920902.119    -8943268.99349  -6953173.29646  22920901.800    22920912.238
       223.000         172.000
  20487346.125     -843117.34949   -649277.12447  20487345.906    20487353.984
       243.000         212.000
  24220440.027    -3828420.90249  -2954752.76845  24220439.539    24220453.935
       207.000         138.000
  21227545.577   -10306457.81149  -8002626.98447  21227544.876    21227554.124
       242.000         208.000
  21460019.791   -10636710.69949  -8269059.04047  21460019.328    21460028.029
       234.000         194.000
  22376774.668     4873274.00349   3729579.91846  22376774.202    22376784.437
       227.000         178.000
  23806580.835    -5461827.36849  -4041222.63645  23806579.978    23806590.586
       217.000         154.000
 00  1  6 21 25  0.0000000  0  8G 2G26G27G15G 7G 8G19G11
  21162534.145    -3326648.55849  -2451347.09848  21162533.683    21162541.980
       245.000         216.000
  22911846.259    -8990857.79849  -6990255.40046  22911846.269    22911855.917
       223.000         172.000
  20492983.490     -813492.70749   -626192.99047  20492983.383    20492991.447
       242.000         212.000
  24221616.568    -3822235.93349  -2949933.30345  24221618.083    24221627.370
       210.000         137.000
  21215770.355   -10368336.56749  -8050844.12047  21215769.688    21215778.937
       241.000         208.000
  21445312.086   -10713999.72149  -8329284.17947  21445311.450    21445320.706
       234.000         194.000
  22391527.337     4950799.48549   3789989.31446  22391527.888    22391537.857
       227.000         177.000
  23803745.556    -5476727.42649  -4052833.00745  23803744.391    23803755.254
       215.000         155.000
 00  1  6 21 25 30.0000000  0  8G 2G26G27G15G 7G 8G19G11
  21161162.070    -3333858.95649  -2456965.57648  21161161.443    21161169.779
       246.000         216.000
  22902886.528    -9037941.13749  -7026943.63146  22902886.402    22902895.262
       223.000         172.000
  20498708.730     -783406.49549   -602749.18947  20498708.639    20498716.394
       242.000         211.000
  24222897.467    -3815505.91049  -2944689.14545  24222897.237    24222909.028
       207.000         137.000
  21204073.350   -10429804.35749  -8098741.02247  21204072.356    21204081.577
       241.000         209.000
  21430639.932   -10791101.89849  -8389363.72547  21430639.157    21430648.143
       235.000         195.000
  22406332.919     5028602.79349   3850615.19746  22406333.588    22406342.520
       227.000         177.000
  23800997.725    -5491167.12349  -4064084.63345  23800997.093    23801008.984
       217.000         154.000
 00  1  6 21 26  0.0000000  0  8G 2G26G27G15G 7G 8G19G11
  21159819.438    -3340914.56149  -2462463.43948  21159819.002    21159827.042
       245.000         216.000
  22894024.391    -9084511.51849  -7063232.15646  22894023.847    22894033.838
       223.000         172.000
  20504521.561     -752859.87349   -578946.63447  20504521.405    20504529.294
       242.000         211.000
  24224284.203    -3808221.69149  -2939013.06145  24224282.428    24224298.283
       202.000         138.000
  21192456.410   -10490851.35049  -8146310.03747  21192455.788    21192465.024
       241.000         209.000
  21416005.703   -10868005.04949  -8449288.18747  21416005.088    21416013.720
       235.000         195.000
  22421190.373     5106678.90449   3911453.64846  22421191.002    22421200.560
       228.000         177.000
  23798339.199    -5505137.00949  -4074970.17845  23798338.713    23798350.329
       217.000         154.000
 00  1  6 21 26 30.0000000  0  8G 2G26G27G15G 7G 8G19G11
  21158508.247    -3347804.75349  -2467832.40948  21158507.710    21158516.035
       245.000         216.000
  22885258.151    -9130577.99249  -7099128.03946  22885258.875    22885268.520
       223.000         173.000
  20510423.081     -721847.31349   -554781.00947  20510423.090    20510431.045
       242.000         211.000
  24225776.865    -3800376.89649  -2932900.27345  24225777.553    24225790.579
       208.000         139.000
  21180919.705   -10551476.93949  -8193550.68147  21180919.205    21180928.266
       242.000         209.000
  21401413.216   -10944688.77749  -8509041.67147  21401412.690    21401421.234
       235.000         196.000
  22436102.948     5185044.73049   3972517.84746  22436103.039    22436112.927
       227.000         177.000
  23795774.741    -5518612.08449  -4085470.14145  23795775.218    23795785.141
       218.000         154.000
 00  1  6 21 27  0.0000000  0  8G 2G26G27G15G 7G 8G19G11
  21157228.111    -3354531.81949  -2473074.27448  21157227.656    21157236.051
       245.000         216.000
  22876590.557    -9176126.27949  -7134620.13746  22876591.126    22876599.979
       224.000         174.000
  20516409.165     -690390.38649   -530269.13147  20516408.866    20516417.030
       242.000         211.000
  24227376.668    -3791970.07949  -2926349.51945  24227378.205    24227389.958
       209.000         140.000
  21169462.277   -10611686.13249  -8240466.86247  21169461.677    21169470.662
       242.000         209.000
  21386861.988   -11021155.58849  -8568626.12547  21386861.304    21386870.059
       235.000         196.000
  22451074.772     5263722.00949   4033824.74146  22451075.064    22451085.052
       228.000         177.000
  23793304.462    -5531592.73249  -4095584.85145  23793304.118    23793314.684
       215.000         154.000
 00  1  6 21 27 30.0000000  0  8G 2G26G27G15G 7G 8G19G11
  21155975.275    -3361115.38149  -2478204.32048  21155974.763    21155983.007
       245.000         216.000
  22868018.140    -9221174.39349  -7169722.48946  22868018.350    22868027.643
       224.000         174.000
  20522473.691     -658520.96849   -505435.83647  20522473.397    20522481.554
       242.000         211.000
  24229080.970    -3783015.95549  -2919372.28445  24229079.707    24229092.424
       204.000         140.000
  21158082.946   -10671484.74349  -8287063.11147  21158082.394    21158091.245
       242.000         210.000
  21372348.203   -11097425.66849  -8628057.28147  21372347.871    21372356.197
       235.000         196.000
  22466105.435     5342707.99949   4095372.18546  22466105.369    22466115.647
       227.000         176.000
  23790926.137    -5544091.49549  -4105324.05745  23790925.415    23790936.763
       216.000         154.000
 00  1  6 21 28  0.0000000  0  8G 2G26G27G15G 7G 8G19G11
  21154749.357    -3367557.58449  -2483224.21748  21154748.912    21154756.948
       245.000         216.000
  22859534.466    -9265756.49249  -7204461.71346  22859534.883    22859543.559
       224.000         175.000
  20528614.681     -626249.92049   -480289.58347  20528614.526    20528622.404
       242.000         211.000
  24230885.920    -3773528.13549  -2911979.23645  24230885.747    24230900.480
       205.000         139.000
  21146779.269   -10730885.80049  -8333349.57747  21146778.600    21146787.472
       242.000         210.000
  21357873.129   -11173492.49449  -8687330.06047  21357872.632    21357881.352
       236.000         196.000
  22481195.444     5422006.48249   4157163.12846  22481195.662    22481205.714
       226.000         176.000
  23788635.520    -5556128.17349  -4114703.19945  23788635.630    23788645.107
       219.000         154.000
 00  1  6 21 28 30.0000000  0  8G 2G26G27G15G 7G 8G19G11
  21153552.000    -3373849.93549  -2488127.33948  21153551.481    21153559.649
       246.000         216.000
  22851140.566    -9309866.89949  -7238833.39046  22851140.694    22851149.879
       225.000         175.000
  20534833.434     -593570.20149   -454824.88447  20534833.331    20534841.225
       242.000         211.000
  24232794.885    -3763499.09949  -2904164.40645  24232796.084    24232806.915
       207.000         138.000
  21135553.332   -10789878.25949  -8379317.65747  21135552.422    21135561.307
       242.000         210.000
  21343436.888   -11249355.22549  -8746443.80247  21343436.576    21343444.816
       236.000         197.000
  22496344.193     5501613.56949   4219194.54046  22496344.145    22496355.337
       227.000         175.000
  23786432.218    -5567707.84649  -4123726.22245  23786431.946    23786442.660
       219.000         154.000
 00  1  6 21 29  0.0000000  0  8G 2G26G27G15G 7G 8G19G11
  21152382.621    -3379994.98349  -2492915.68448  21152382.201    21152390.356
       245.000         216.000
  22842838.566    -9353494.03249  -7272828.49846  22842839.022    22842847.480
       224.000         175.000
  20541130.202     -560480.56349   -429040.77147  20541129.962    20541137.906
       242.000         211.000
  24234807.326    -3752923.92149  -2895924.08745  24234804.934    24234821.316
       200.000         138.000
  21124408.245   -10848445.58749  -8424954.46647  21124407.307    21124416.245
       242.000         210.000
  21329040.344   -11325009.38649  -8805395.02247  21329039.583    21329048.345
       236.000         197.000
  22511549.458     5581517.31949   4281457.13646  22511549.768    22511560.058
       226.000         175.000
  23784312.522    -5578846.41749  -4132405.52445  23784311.814    23784322.086
       216.000         155.000
 00  1  6 21 29 30.0000000  0  8G 2G26G27G15G 7G 8G19G11
  21151239.746    -3386000.62749  -2497595.40448  21151239.032    21151247.353
       245.000         216.000
  22834629.576    -9396632.37549  -7306442.72846  22834629.235    22834638.670
       224.000         175.000
  20547510.393     -526952.56149   -402915.07847  20547510.415    20547518.428
       242.000         211.000
  24236923.558    -3741801.55049  -2887257.35745  24236924.167    24236937.333
       202.000         137.000
  21113345.025   -10906582.60949  -8470255.97647  21113344.366    21113353.223
       241.000         210.000
  21314686.668   -11400438.12049  -8864170.58747  21314686.090    21314694.581
       236.000         197.000
  22526808.070     5661701.69449   4343938.36646  22526808.065    22526819.069
       226.000         175.000
  23782276.624    -5589542.25049  -4140739.87445  23782277.182    23782286.098
       217.000         155.000
 00  1  6 21 30  0.0000000  0  8G 2G26G27G15G 7G 8G19G11
  21150124.845    -3391859.43149  -2502160.70148  21150124.493    21150132.581
       245.000         216.000
  22826517.766    -9439259.62249  -7339658.70146  22826518.230    22826527.291
       224.000         176.000
  20553979.509     -492957.21649   -376425.22247  20553979.396    20553987.549
       242.000         211.000
  24239147.443    -3730117.63649  -2878153.03845  24239148.027    24239160.471
       204.000         138.000
  21102363.544   -10964290.22549  -8515222.88047  21102362.818    21102371.623
       242.000         210.000
  21300377.865   -11475631.20449  -8922762.52547  21300377.326    21300386.135
       236.000         197.000
  22542118.123     5742156.29849   4406630.18446  22542118.466    22542128.578
       226.000         174.000
  23780329.728    -5599773.84249  -4148712.46045  23780329.970    23780340.318
       219.000         155.000
 00  1  6 21 30 30.0000000  0  8G 2G26G27G15G 7G 8G19G11
  21149037.280    -3397574.75549  -2506614.19548  21149036.846    21149045.206
       245.000         216.000
  22818505.975    -9481361.38749  -7372465.20746  22818505.797    22818515.575
       225.000         176.000
  20560539.826     -458482.53949   -349561.85947  20560539.844    20560547.802
       242.000         211.000
  24241479.852    -3717861.47549  -2868602.82845  24241482.001    24241492.751
       208.000         139.000
  21091465.633   -11021558.61849  -8559847.53447  21091465.003    21091474.002
       242.000         210.000
  21286113.768   -11550589.27649  -8981171.34647  21286113.051    21286121.992
       236.000         197.000
  22557480.161     5822883.65849   4469534.52646  22557479.562    22557490.765
       226.000         174.000
  23778474.200    -5609526.24949  -4156311.65145  23778473.625    23778483.972
       217.000         155.000
 00  1  6 21 31  0.0000000  0  8G 2G26G27G15G 7G 8G19G11
  21147975.493    -3403154.47449  -2510962.01548  21147975.012    21147983.311
       246.000         216.000
  22810592.829    -9522944.86349  -7404867.85946  22810593.315    22810602.487
       225.000         176.000
  20567190.908     -423531.04049   -322326.94747  20567190.590    20567198.931
       242.000         210.000
  24243920.188    -3705038.97049  -2858611.29445  24243919.404    24243931.432
       207.000         139.000
  21080651.954   -11078384.66149  -8604127.50247  21080651.429    21080660.176
       242.000         210.000
  21271896.723   -11625299.99149  -9039387.42147  21271896.263    21271904.519
       236.000         198.000
  22572894.430     5903886.01749   4532653.16046  22572893.931    22572904.865
       224.000         174.000
  23776709.297    -5618798.64849  -4163536.80145  23776708.537    23776720.397
       218.000         155.000
 00  1  6 21 31 30.0000000  0  8G 2G26G27G15G 7G 8G19G11
  21146942.126    -3408584.89349  -2515193.49548  21146941.597    21146949.882
       245.000         216.000
  22802777.177    -9564016.22549  -7436871.46046  22802776.736    22802786.685
       224.000         176.000
  20573932.478     -388103.77749   -294721.31047  20573932.263    20573940.401
       241.000         210.000
  24246468.172    -3691649.11749  -2848177.66745  24246468.749    24246479.605
       206.000         139.000
  21069922.252   -11134769.53349  -8648063.70147  21069921.647    21069930.453
       242.000         210.000
  21257724.764   -11699773.71149  -9097418.82747  21257724.174    21257732.394
       236.000         198.000
  22588363.741     5985177.86249   4595997.37246  22588363.491    22588374.295
       223.000         174.000
  23775035.846    -5627592.57749  -4170389.15545  23775034.946    23775046.209
       217.000         156.000
 00  1  6 21 32  0.0000000  0  8G 2G26G27G15G 7G 8G19G11
  21145941.936    -3413840.63149  -2519288.85948  21145941.339    21145949.661
       245.000         216.000
  22795058.832    -9604576.01849  -7468476.43946  22795059.059    22795067.520
       225.000         176.000
  20580762.879     -352209.65549   -266751.88747  20580762.674    20580770.825
       241.000         210.000
  24249125.806    -3677683.38049  -2837295.29945  24249125.210    24249139.664
       202.000         139.000
  21059278.827   -11190700.89049  -8691646.51247  21059278.145    21059287.080
       243.000         210.000
  21243598.899   -11774005.45749  -9155261.68047  21243598.433    21243606.670
       236.000         198.000
  22603890.726     6066772.25649   4659577.32846  22603890.582    22603901.479
       224.000         174.000
  23773452.532    -5635911.11449  -4176871.06745  23773451.652    23773462.425
       215.000         156.000
 00  1  6 21 32 30.0000000  0  8G 2G26G27G15G 7G 8G19G11
  21144974.919    -3418922.30849  -2523248.58448  21144974.239    21144982.522
       245.000         216.000
  22787437.477    -9644626.06449  -7499684.20646  22787437.285    22787446.280
       225.000         175.000
  20587682.277     -315848.21449   -238418.32447  20587682.124    20587690.239
       241.000         210.000
  24251893.114    -3663140.11049  -2825962.90045  24251892.234    24251904.750
       204.000         137.000
  21048725.037   -11246161.36949  -8734862.40147  21048724.371    21048733.452
       243.000         210.000
  21229521.415   -11847982.90149  -9212906.37947  21229520.809    21229529.177
       237.000         198.000
  22619477.647     6148681.77449   4723402.83246  22619477.931    22619488.236
       223.000         173.000
  23771958.339    -5643761.58549  -4182988.25545  23771958.086    23771969.154
       216.000         155.000
 00  1  6 21 33  0.0000000  0  8G 2G26G27G15G 7G 8G19G11
  21144039.724    -3423836.81649  -2527078.05148  21144039.336    21144047.304
       245.000         216.000
  22779915.311    -9684155.26249  -7530486.12646  22779915.613    22779925.046
       225.000         176.000
  20594689.381     -279025.96049   -209725.68747  20594689.383    20594697.066
       242.000         210.000
  24254769.829    -3648022.82749  -2814183.22345  24254768.323    24254781.958
       197.000         135.000
  21038260.944   -11301150.18849  -8777710.76847  21038260.295    21038269.052
       243.000         211.000
  21215491.103   -11921712.30449  -9270357.80147  21215490.581    21215498.981
       237.000         199.000
  22635124.040     6230903.90249   4787471.93346  22635124.160    22635134.951
       222.000         173.000
  23770554.159    -5651141.72649  -4188738.94145  23770554.368    23770565.057
       213.000         156.000
 00  1  6 21 33 30.0000000  0  8G 2G26G27G15G 7G 8G19G11
  21143133.832    -3428597.35849  -2530787.54648  21143133.423    21143141.498
       245.000         216.000
  22772494.009    -9723154.48249  -7560875.06646  22772494.100    22772503.171
       225.000         176.000
  20601784.766     -241739.62249   -180671.42247  20601784.721    20601792.808
       242.000         210.000
  24257755.257    -3632333.06849  -2801957.45245  24257755.066    24257768.592
       199.000         136.000
  21027883.129   -11355685.50849  -8820205.75947  21027882.380    21027891.260
       243.000         211.000
  21201504.359   -11995213.13849  -9327631.11247  21201503.854    21201512.117
       237.000         199.000
  22650828.541     6313431.19949   4851778.83846  22650828.338    22650838.723
       223.000         172.000
  23769241.621    -5658038.34449  -4194112.86245  23769241.367    23769252.202
       215.000         155.000
 00  1  6 21 34  0.0000000  0  8G 2G26G27G15G 7G 8G19G11
  21142251.150    -3433235.92849  -2534401.99348  21142250.684    21142259.036
       245.000         216.000
  22765172.782    -9761627.60649  -7590854.06046  22765171.760    22765182.562
       225.000         176.000
  20608967.355     -203994.93149   -151260.00347  20608967.329    20608975.348
       242.000         210.000
  24260847.347    -3616083.68649  -2789295.57045  24260846.795    24260860.364
       199.000         136.000
  21017589.971   -11409776.18649  -8862354.27747  21017589.276    21017598.186
       243.000         211.000
  21187560.424   -12068488.60949  -9384728.82347  21187559.878    21187568.040
       237.000         200.000
  22666586.513     6396239.61049   4916304.78746  22666586.689    22666597.002
       223.000         172.000
  23768025.347    -5664430.76849  -4199093.94045  23768025.019    23768035.492
       215.000         155.000
 00  1  6 21 34 30.0000000  0  8G 2G26G27G15G 7G 8G19G11
  21141385.973    -3437782.56249  -2537944.80548  21141385.333    21141393.670
       245.000         216.000
  22757949.922    -9799583.67649  -7620430.15946  22757950.449    22757959.432
       226.000         176.000
  20616235.351     -165801.51449   -121498.92547  20616235.137    20616243.109
       242.000         210.000
  24264042.835    -3599290.34449  -2776209.83145  24264042.643    24264054.703
       201.000         136.000
  21007377.084   -11463445.05349  -8904174.11247  21007376.426    21007385.467
       243.000         211.000
  21173655.234   -12141560.74549  -9441668.08547  21173654.334    21173662.849
       237.000         200.000
  22682395.113     6479313.90949   4981037.91146  22682394.985    22682405.863
       222.000         172.000
  23766905.923    -5670311.89449  -4203676.59745  23766905.893    23766915.857
       214.000         155.000
 00  1  6 21 35  0.0000000  0  8G 2G26G27G15G 7G 8G19G11
  21140538.214    -3442237.36849  -2541416.06248  21140537.580    21140545.968
       245.000         216.000
  22750823.212    -9837034.72249  -7649612.72546  22750823.513    22750832.716
       225.000         176.000
  20623584.265     -127182.55849    -91406.26047  20623584.100    20623592.237
       242.000         209.000
  24267339.696    -3581966.33649  -2762710.60045  24267337.452    24267353.226
       196.000         135.000
  20997240.736   -11516711.75349  -8945680.57147  20997240.233    20997249.111
       243.000         211.000
  21159787.367   -12214436.57549  -9498454.39147  21159786.834    21159795.180
       238.000         200.000
  22698252.472     6562644.43249   5045970.69346  22698252.447    22698263.666
       223.000         172.000
  23765882.440    -5675689.45449  -4207866.86445  23765883.631    23765893.760
       216.000         155.000
 00  1  6 21 35 30.0000000  0  8G 2G26G27G15G 7G 8G19G11
  21139708.855    -3446595.59949  -2544812.06348  21139708.205    21139716.639
       245.000         216.000
  22743788.925    -9874000.49149  -7678417.16146  22743788.763    22743797.994
       225.000         176.000
  20631015.550      -88131.03049    -60976.52447  20631015.325    20631023.364
       242.000         209.000
  24270735.580    -3564118.10648  -2748802.85945  24270734.850    24270749.708
       194.000         134.000
  20987180.215   -11569579.99449  -8986876.54447  20987179.528    20987188.477
       243.000         212.000
  21145960.886   -12287095.28649  -9555071.51047  21145960.436    21145968.818
       238.000         200.000
  22714158.284     6646229.83049   5111102.08246  22714158.116    22714169.298
       222.000         172.000
  23764953.489    -5680572.18349  -4211671.53445  23764953.165    23764963.977
       216.000         156.000
 00  1  6 21 36  0.0000000  0  8G 2G26G27G15G 7G 8G19G11
  21138900.516    -3450843.21649  -2548121.87448  21138899.904    21138908.043
       245.000         216.000
  22736845.774    -9910486.56149  -7706847.79946  22736846.079    22736855.099
       226.000         176.000
  20638529.849      -48643.15849    -30206.78047  20638529.743    20638537.980
       242.000         209.000
  24274232.657    -3545741.14349  -2734483.13945  24274233.158    24274244.409
       198.000         136.000
  20977199.463   -11622029.16849  -9027745.97347  20977198.927    20977207.563
       243.000         212.000
  21132180.219   -12359512.84349  -9611500.71447  21132179.576    21132187.856
       238.000         201.000
  22730115.242     6730084.01849   5176442.91846  22730115.199    22730126.331
       223.000         171.000
  23764115.341    -5684977.80049  -4215104.44345  23764115.215    23764126.264
       218.000         157.000
 00  1  6 21 36 30.0000000  0  8G 2G26G27G15G 7G 8G19G11
  21138116.972    -3454960.70149  -2551330.29348  21138116.486    21138124.715
       245.000         216.000
  22729997.113    -9946476.60249  -7734891.92246  22729997.320    22730005.841
       225.000         176.000
  20646127.450       -8717.72949       903.90747  20646127.443    20646135.499
       242.000         209.000
  24277832.725    -3526823.83249  -2719742.37745  24277833.096    24277846.643
       196.000         135.000
  20967298.348   -11674059.72949  -9068289.21047  20967297.742    20967306.393
       244.000         212.000
  21118448.910   -12431670.85149  -9667727.67147  21118448.183    21118456.881
       239.000         201.000
  22746128.026     6814231.31349   5242012.14646  22746128.193    22746138.908
       222.000         171.000
  23763364.439    -5688925.10749  -4218180.23945  23763363.876    23763374.735
       218.000         157.000
 00  1  6 21 37  0.0000000  0  8G 2G26G27G15G 7G 8G19G11
  21137359.573    -3458940.83849  -2554431.68848  21137359.061    21137367.342
       245.000         216.000
  22723244.242    -9981962.69949  -7762543.36546  22723244.255    22723253.161
       226.000         177.000
  20653808.604       31646.74849     32356.71647  20653808.396    20653816.477
       242.000         209.000
  24281536.606    -3507361.41548  -2704576.80444  24281533.404    24281545.992
       182.000         130.000
  20957478.376   -11725663.81949  -9108500.13347  20957477.890    20957486.614
       243.000         212.000
  21104769.934   -12503553.88949  -9723740.36947  21104769.582    21104777.914
       239.000         201.000
  22762196.609     6898671.62549   5307809.69646  22762197.369    22762207.512
       223.000         171.000
  23762700.548    -5692413.60149  -4220898.50645  23762700.075    23762711.154
       218.000         156.000
 00  1  6 21 37 30.0000000  0  8G 2G26G27G15G 7G 8G19G11
  21136625.861    -3462796.45249  -2557436.05948  21136625.289    21136633.580
       246.000         216.000
  22716590.253   -10016929.16349  -7789789.89846  22716591.051    22716599.397
       225.000         177.000
  20661575.264       72460.63049     64159.70947  20661575.089    20661583.121
       241.000         209.000
  24285344.476    -3487348.73448  -2688982.53544  24285340.349    24285356.350
       192.000         129.000
  20947739.709   -11776840.60149  -9148378.08747  20947739.132    20947747.976
       243.000         212.000
  21091142.173   -12575168.13449  -9779543.61847  21091141.676    21091149.966
       240.000         201.000
  22778320.016     6983400.31749   5373831.95546  22778320.057    22778331.344
       222.000         171.000
  23762125.787    -5695434.24749  -4223252.21945  23762124.563    23762135.825
       218.000         155.000
 00  1  6 21 38  0.0000000  0  7G 2G26G27G 7G 8G19G11
  21135913.929    -3466537.61149  -2560351.24248  21135913.282    21135921.460
       246.000         216.000
  22710039.051   -10051355.54949  -7816615.59646  22710039.177    22710047.995
       227.000         177.000
  20669425.697      113714.84149     96305.81847  20669425.634    20669433.552
       242.000         209.000
  20938080.924   -11827597.73849  -9187929.04647  20938080.179    20938088.989
       243.000         212.000
  21077562.489   -12646529.93349  -9835150.15347  21077561.977    21077570.229
       239.000         201.000
  22794495.997     7068405.28149   5440069.49446  22794496.199    22794506.767
       221.000         170.000
  23761641.145    -5697981.33049  -4225236.92045  23761640.399    23761651.250
       216.000         154.000
 00  1  6 21 38 30.0000000  0  7G 2G26G27G 7G 8G19G11
  21135220.693    -3470180.39049  -2563189.76948  21135220.132    21135228.579
       246.000         216.000
  22703588.700   -10085252.41449  -7843028.67746  22703589.322    22703598.239
       227.000         178.000
  20677355.091      155383.88349    128775.16747  20677355.055    20677363.194
       242.000         209.000
  20928497.948   -11877956.24449  -9227169.38447  20928497.223    20928506.048
       244.000         212.000
  21064024.652   -12717671.38749  -9890584.99447  21064024.100    21064032.180
       239.000         202.000
  22810717.444     7153649.18249   5506493.21046  22810717.939    22810729.286
       221.000         169.000
  23761246.943    -5700051.57849  -4226850.09945  23761246.651    23761255.820
       216.000         154.000
 00  1  6 21 39  0.0000000  0  7G 2G26G27G 7G 8G19G11
  21134546.129    -3473725.23349  -2565951.98548  21134545.748    21134554.007
       246.000         216.000
  22697235.755   -10118637.50149  -7869042.96246  22697236.120    22697245.065
       227.000         178.000
  20685363.975      197470.73949    161570.09047  20685363.951    20685372.089
       241.000         209.000
  20918993.410   -11927902.60649  -9266088.57548  20918992.873    20919001.794
       244.000         213.000
  21050525.523   -12788609.31849  -9945861.24847  21050524.865    21050533.091
       240.000         202.000
  22826977.809     7239097.13349   5573075.91646  22826978.711    22826989.629
       223.000         169.000
  23760943.430    -5701647.13349  -4228093.32445  23760942.482    23760953.926
       218.000         155.000
 00  1  6 21 39 30.0000000  0  7G 2G26G27G 7G 8G19G11
  21133893.027    -3477157.32349  -2568626.34248  21133892.531    21133900.758
       246.000         216.000
  22690981.636   -10151502.95949  -7894652.35646  22690981.490    22690991.122
       226.000         178.000
  20693454.968      239989.07349    194701.22347  20693454.809    20693463.134
       241.000         208.000
  20909571.495   -11977414.93249  -9304669.55848  20909570.905    20909579.606
       244.000         213.000
  21037068.498   -12859326.18149 -10000965.24347  21037067.631    21037076.208
       240.000         202.000
  22843280.968     7324770.13149   5639833.98046  22843281.006    22843292.271
       221.000         169.000
  23760728.641    -5702775.50549  -4228972.56845  23760727.381    23760739.139
       214.000         156.000
 00  1  6 21 40  0.0000000  0  7G 2G26G27G 7G 8G19G11
  21133267.743    -3480443.31349  -2571186.85748  21133267.134    21133275.496
       246.000         216.000
  22684827.763   -10183841.11849  -7919850.85746  22684827.561    22684836.450
       226.000         178.000
  20701631.245      282955.87149    228181.81347  20701631.079    20701639.367
       241.000         208.000
  20900236.852   -12026468.63849  -9342893.17148  20900236.058    20900244.935
       244.000         213.000
  21023657.889   -12929799.18849 -10055879.21347  21023657.255    21023665.644
       240.000         202.000
  22859630.731     7410688.56749   5706783.29846  22859630.337    22859641.856
       222.000         168.000
  23760601.929    -5703439.81649  -4229490.17345  23760600.928    23760611.639
       215.000         156.000
 00  1  6 21 40 30.0000000  0  7G 2G26G27G 7G 8G19G11
  21132677.740    -3483543.78149  -2573602.81448  21132677.082    21132685.288
       246.000         216.000
  22678774.520   -10215650.71249  -7944637.51146  22678774.451    22678782.928
       226.000         178.000
  20709897.112      326392.99449    262028.88447  20709897.107    20709905.166
       241.000         208.000
  20890995.585   -12075031.61449  -9380734.40248  20890995.045    20891003.628
       244.000         213.000
  21010299.044   -13000000.41849 -10110581.41447  21010298.323    21010306.603
       240.000         203.000
  22876033.068     7496882.88449   5773947.57946  22876033.272    22876043.853
       222.000         168.000
  23760566.471    -5703626.64149  -4229635.73445  23760564.983    23760576.893
       218.000         156.000
 00  1  6 21 41  0.0000000  0  7G 2G26G27G 7G 8G19G11
  21132126.280    -3486441.58049  -2575860.84448  21132125.734    21132134.004
       246.000         216.000
  22672826.133   -10246909.24349  -7968994.75546  22672826.539    22672835.607
       228.000         178.000
  20718256.297      370320.54849    296258.11847  20718256.190    20718264.261
       241.000         208.000
  20881850.108   -12123091.22049  -9418183.39548  20881849.486    20881858.172
       244.000         213.000
  20996999.534   -13069889.57949 -10165040.44147  20996999.050    20997007.325
       240.000         203.000
  22892494.596     7583388.22949   5841354.23046  22892494.606    22892505.983
       221.000         168.000
  23760623.981    -5703324.93749  -4229400.61645  23760622.933    23760633.765
       217.000         156.000
 00  1  6 21 41 30.0000000  0  7G 2G26G27G 7G 8G19G11
  21131610.652    -3489151.20749  -2577972.24948  21131610.001    21131618.200
       246.000         216.000
  22666983.449   -10277612.49049  -7992919.31346  22666983.464    22666992.434
       228.000         178.000
  20726707.590      414732.42549    330864.74047  20726707.279    20726715.601
       241.000         208.000
  20872796.574   -12170667.66149  -9455255.90048  20872796.114    20872804.711
       243.000         214.000
  20983761.096   -13139458.04749 -10219249.58547  20983760.605    20983768.572
       240.000         203.000
  22909017.655     7670217.32649   5909013.14746  22909017.727    22909028.591
       221.000         167.000
  23760775.753    -5702526.53549  -4228778.45445  23760775.977    23760785.230
       217.000         156.000
 00  1  6 21 42  0.0000000  0  7G 2G26G27G 7G 8G19G11
  21131129.698    -3491678.65749  -2579941.69248  21131129.404    21131137.466
       246.000         216.000
  22661244.824   -10307769.04249  -8016417.88246  22661245.017    22661253.973
       226.000         178.000
  20735250.006      459623.11349    365844.46847  20735249.895    20735258.171
       240.000         207.000
  20863832.495   -12217774.18949  -9491962.24048  20863831.870    20863840.524
       243.000         214.000
  20970581.245   -13208718.34149 -10273218.59447  20970580.559    20970589.019
       240.000         204.000
  22925599.282     7757354.11149   5976911.81446  22925599.608    22925610.087
       221.000         167.000
  23761026.955    -5701206.61249  -4227749.91345  23761025.794    23761037.029
       214.000         156.000
 00  1  6 21 42 30.0000000  0  7G 2G26G27G 7G 8G19G11
  21130679.465    -3494044.92649  -2581785.53648  21130679.025    21130687.186
       246.000         216.000
  22655608.424   -10337388.14149  -8039497.66146  22655608.768    22655617.810
       228.000         178.000
  20743880.115      504974.65049    401183.29447  20743879.871    20743888.207
       241.000         207.000
  20854956.566   -12264417.23149  -9528307.42448  20854956.124    20854964.667
       243.000         214.000
  20957457.804   -13277682.46949 -10326956.82247  20957457.114    20957465.354
       241.000         204.000
  22942236.611     7844783.57949   6045038.55446  22942237.040    22942247.524
       220.000         167.000
  23761381.523    -5699343.00749  -4226297.72345  23761381.438    23761391.154
       218.000         156.000
 00  1  6 21 43  0.0000000  0  7G 2G26G27G 7G 8G19G11
  21130251.477    -3496294.17949  -2583538.19148  21130250.922    21130259.167
       246.000         216.000
  22650074.217   -10366470.69949  -8062159.35746  22650074.270    22650084.028
       227.000         178.000
  20752593.316      550762.50449    436862.11147  20752593.249    20752601.379
       241.000         207.000
  20846165.018   -12310617.11549  -9564307.29048  20846164.291    20846173.221
       244.000         214.000
  20944386.970   -13346369.90449 -10380479.44547  20944386.313    20944394.667
       241.000         204.000
  22958925.529     7932484.21349   6113376.58446  22958925.527    22958936.613
       219.000         166.000
  23761837.894    -5696944.61949  -4224428.81745  23761836.823    23761848.111
       213.000         156.000
 00  1  6 21 43 30.0000000  0  7G 2G26G27G 7G 8G19G11
  21129841.393    -3498449.19649  -2585217.41448  21129840.896    21129849.169
       246.000         216.000
  22644636.381   -10395046.52849  -8084426.20046  22644636.484    22644645.239
       228.000         178.000
  20761386.773      596972.05949    472869.52747  20761386.791    20761394.942
       241.000         207.000
  20837455.457   -12356386.01049  -9599971.32048  20837454.750    20837463.528
       244.000         214.000
  20931362.931   -13414811.33049 -10433810.37247  20931362.279    20931370.459
       241.000         205.000
  22975660.535     8020426.50049   6181902.92346  22975660.481    22975672.023
       220.000         166.000
  23762391.711    -5694034.38949  -4222161.07645  23762391.589    23762401.922
       215.000         156.000
 00  1  6 21 44  0.0000000  0  7G 2G26G27G 7G 8G19G11
  21129451.892    -3500495.96949  -2586812.29048  21129451.405    21129459.511
       246.000         216.000
  22639295.246   -10423114.33949  -8106297.18846  22639295.262    22639303.731
       227.000         178.000
  20770260.373      643603.05249    509205.33547  20770260.318    20770268.283
       241.000         207.000
  20828830.753   -12401708.96749  -9635287.86848  20828830.261    20828838.897
       244.000         215.000
  20918385.508   -13483008.07249 -10486950.64347  20918384.923    20918393.148
       241.000         205.000
  22992440.126     8108603.14249   6250611.86646  22992440.225    22992450.605
       218.000         165.000
  23763041.303    -5690620.71949  -4219501.04045  23763041.329    23763051.638
       215.000         155.000
 00  1  6 21 44 30.0000000  0  7G 2G26G27G 7G 8G19G11
  21129083.858    -3502429.91649  -2588319.24548  21129083.290    21129091.498
       246.000         216.000
  22634054.459   -10450654.29849  -8127756.86846  22634054.050    22634063.376
       227.000         178.000
  20779215.917      690664.46949    545876.53747  20779215.748    20779224.206
       240.000         207.000
  20820291.479   -12446583.09449  -9670254.67948  20820290.793    20820299.412
       244.000         215.000
  20905458.071   -13550941.84949 -10539886.00147  20905457.363    20905465.641
       240.000         205.000
  23009263.274     8197009.03249   6319499.44246  23009263.918    23009275.478
       220.000         164.000
  23763783.165    -5686721.04249  -4216462.28745  23763782.686    23763793.222
       214.000         156.000
 00  1  6 21 45  0.0000000  0  7G 2G26G27G 7G 8G19G11
  21128739.428    -3504239.89749  -2589729.60248  21128739.008    21128746.983
       246.000         216.000
  22628916.381   -10477654.87649  -8148796.25446  22628915.937    22628925.024
       227.000         179.000
  20788256.554      738173.39149    582896.44747  20788256.470    20788264.730
       240.000         207.000
  20811836.026   -12491016.43949  -9704878.02048  20811835.296    20811843.834
       244.000         215.000
  20892584.002   -13618595.05649 -10592602.73547  20892583.346    20892591.431
       241.000         205.000
  23026131.358     8285650.91849   6388570.91746  23026131.951    23026143.178
       219.000         164.000
  23764613.452    -5682357.44249  -4213062.03545  23764613.351    23764623.617
       216.000         156.000
 00  1  6 21 45 30.0000000  0  7G 2G26G27G 7G 8G19G11
  21128425.906    -3505887.35349  -2591013.32048  21128425.306    21128433.483
       246.000         216.000
  22623880.640   -10504117.90749  -8169416.78046  22623881.163    22623890.233
       227.000         179.000
  20797387.253      786155.48349    620285.05847  20797387.218    20797395.465
       240.000         206.000
  20803467.280   -12534994.29249  -9739146.43948  20803466.680    20803475.113
       244.000         215.000
  20879766.932   -13685948.83749 -10645086.15247  20879766.438    20879774.522
       241.000         206.000
  23043046.453     8374539.90149   6457834.93946  23043046.631    23043058.195
       218.000         163.000
  23765534.287    -5677518.33549  -4209291.28145  23765534.193    23765545.337
       216.000         156.000
 00  1  6 21 46  0.0000000  0  7G 2G26G27G 7G 8G19G11
  21128144.595    -3507365.57849  -2592165.17148  21128144.100    21128152.339
       246.000         216.000
  22618952.999   -10530012.52749  -8189594.39146  22618952.815    22618962.217
       227.000         179.000
  20806609.190      834616.87049    658047.13747  20806609.014    20806617.373
       240.000         206.000
  20795185.919   -12578512.91549  -9773057.01348  20795185.333    20795193.733
       244.000         215.000
  20867011.249   -13752980.16549 -10697318.30847  20867010.899    20867018.827
       241.000         206.000
  23060012.846     8463698.34149   6527308.91246  23060012.635    23060023.692
       220.000         164.000
  23766549.767    -5672182.50149  -4205133.44345  23766549.560    23766558.990
       216.000         157.000
 00  1  6 21 46 30.0000000  0  7G 2G26G27G 7G 8G19G11
  21127892.283    -3508691.66549  -2593198.46948  21127891.675    21127899.997
       246.000         215.000
  22614132.281   -10555345.37149  -8209334.24746  22614132.722    22614141.374
       228.000         179.000
  20815919.929      883544.96249    696172.88947  20815919.849    20815928.064
       240.000         206.000
  20786988.482   -12621590.76149  -9806624.12348  20786987.838    20786996.371
       244.000         215.000
  20854316.682   -13819690.16449 -10749300.07547  20854316.247    20854324.561
       241.000         206.000
  23077030.808     8553127.51049   6596993.85146  23077031.374    23077042.095
       219.000         164.000
  23767658.838    -5666354.03049  -4200591.76145  23767659.392    23767669.804
       217.000         158.000
 00  1  6 21 47  0.0000000  0  7G 2G26G27G 7G 8G19G11
  21127665.134    -3509885.24349  -2594128.51848  21127664.402    21127672.664
       246.000         215.000
  22609412.934   -10580145.98249  -8228659.38546  22609412.729    22609422.128
       227.000         179.000
  20825316.280      932923.02549    734649.26347  20825316.124    20825324.506
       240.000         206.000
  20778874.530   -12664229.81949  -9839849.32448  20778873.805    20778882.317
       244.000         215.000
  20841680.352   -13886094.79049 -10801043.89147  20841679.875    20841688.031
       241.000         206.000
  23094101.793     8642835.92449   6666896.37846  23094101.766    23094113.139
       219.000         163.000
  23768862.755    -5660027.86549  -4195662.23445  23768862.609    23768872.435
       216.000         158.000
 00  1  6 21 47 30.0000000  0  7G 2G26G27G 7G 8G19G11
  21127460.326    -3510961.27349  -2594966.97448  21127459.824    21127468.099
       246.000         215.000
  22604792.507   -10604426.20849  -8247579.03046  22604792.418    22604801.748
       227.000         179.000
  20834794.943      982733.71849    773462.75547  20834794.842    20834803.107
       240.000         206.000
  20770845.506   -12706422.34149  -9872726.57448  20770844.793    20770853.510
       244.000         215.000
  20829100.805   -13952200.75249 -10852554.98447  20829100.434    20829108.439
       241.000         206.000
  23111222.902     8732807.49949   6737003.96046  23111222.614    23111233.860
       218.000         163.000
  23770162.665    -5653195.63049  -4190338.38945  23770163.348    23770172.993
       218.000         157.000
 00  1  6 21 48  0.0000000  0  7G 2G26G27G 7G 8G19G11
  21127273.231    -3511944.39849  -2595733.03448  21127272.574    21127280.923
       246.000         215.000
  22600271.587   -10628183.86149  -8266091.48146  22600271.877    22600281.148
       228.000         179.000
  20844352.833     1032960.56349    812600.51547  20844352.825    20844361.125
       240.000         206.000
  20762899.499   -12748178.66449  -9905263.92948  20762898.794    20762907.360
       244.000         215.000
  20816576.533   -14018016.20849 -10903839.70447  20816575.974    20816584.228
       241.000         206.000
  23128389.819     8823019.61349   6807298.97446  23128389.689    23128401.358
       219.000         163.000
  23771555.622    -5645876.13649  -4184634.86845  23771553.846    23771565.898
       215.000         157.000
 00  1  6 21 48 30.0000000  0  7G 2G26G27G 7G 8G19G11
  21127107.300    -3512816.21849  -2596412.36748  21127106.668    21127115.078
       246.000         215.000
  22595846.242   -10651439.38949  -8284212.66346  22595846.461    22595855.678
       228.000         180.000
  20853992.408     1083616.52049    852072.64747  20853992.411    20854000.558
       239.000         206.000
  20755040.841   -12789475.93049  -9937443.57848  20755040.275    20755048.530
       244.000         215.000
  20804106.752   -14083545.38149 -10954901.34547  20804106.167    20804114.150
       241.000         207.000
  23145600.440     8913461.34549   6877772.90646  23145600.894    23145612.173
       217.000         163.000
  23773040.762    -5638070.79949  -4178552.77145  23773040.247    23773050.769
       216.000         156.000
 00  1  6 21 49  0.0000000  0  7G 2G26G27G 7G 8G19G11
  21126968.086    -3513547.76049  -2596982.39648  21126967.625    21126975.760
       246.000         216.000
  22591519.515   -10674176.79349  -8301930.10446  22591519.496    22591528.547
       228.000         180.000
  20863718.932     1134729.59149    891900.97147  20863718.758    20863727.062
       240.000         205.000
  20747274.737   -12830286.99449  -9969244.36748  20747274.121    20747282.739
       244.000         216.000
  20791694.749   -14148770.52549 -11005726.08047  20791694.160    20791702.247
       241.000         207.000
  23162855.816     9004138.97649   6948430.66346  23162855.958    23162868.643
       217.000         163.000
  23774622.340    -5629758.81249  -4172075.90145  23774622.911    23774632.409
       216.000         156.000
 00  1  6 21 49 30.0000000  0  7G 2G26G27G 7G 8G19G11
  21126861.435    -3514108.23549  -2597419.12948  21126861.048    21126869.238
       246.000         216.000
  22587298.087   -10696360.24049  -8319215.89246  22587297.969    22587307.456
       229.000         180.000
  20873535.908     1186318.09749    932099.76247  20873535.702    20873544.260
       239.000         205.000
  20739605.636   -12870588.51249 -10000648.11048  20739605.010    20739613.462
       244.000         216.000
  20779343.647   -14213675.79249 -11056301.56347  20779343.070    20779351.025
       241.000         207.000
  23180158.102     9095062.64849   7019280.13346  23180159.050    23180170.475
       217.000         163.000
  23776301.399    -5620935.09949  -4165200.27445  23776300.640    23776311.977
       216.000         156.000
 00  1  6 21 50  0.0000000  0  7G 2G26G27G 7G 8G19G11
  21126789.883    -3514484.28449  -2597712.15848  21126789.458    21126797.434
       246.000         216.000
  22583185.388   -10717972.87749  -8336056.89346  22583185.836    22583194.535
       228.000         180.000
  20883445.110     1238391.20749    972676.17147  20883445.132    20883453.631
       239.000         205.000
  20732033.007   -12910382.72649 -10031656.55448  20732032.313    20732040.740
       244.000         216.000
  20767052.668   -14278265.20649 -11106630.92947  20767052.059    20767059.973
       241.000         207.000
  23197512.514     9186259.89949   7090342.77846  23197512.926    23197524.216
       218.000         163.000
  23778078.392    -5611599.00749  -4157925.42445  23778077.809    23778089.374
       215.000         157.000
 00  1  6 21 50 30.0000000  0  7G 2G26G27G 7G 8G19G11
  21126752.378    -3514681.51449  -2597865.84648  21126751.804    21126759.983
       246.000         216.000
  22579182.052   -10739010.36649  -8352449.73146  22579181.748    22579191.116
       228.000         180.000
  20893445.476     1290943.31049   1013625.82147  20893445.459    20893453.783
       239.000         205.000
  20724554.483   -12949682.30749 -10062279.56748  20724553.870    20724562.201
       244.000         216.000
  20754821.700   -14342539.16449 -11156714.48547  20754821.126    20754829.196
       241.000         207.000
  23214921.672     9277745.13049   7161629.83245  23214922.024    23214933.963
       217.000         162.000
  23779955.061    -5601737.03749  -4150240.76145  23779955.919    23779965.424
       218.000         157.000
 00  1  6 21 51  0.0000000  0  7G 2G26G27G 7G 8G19G11
  21126741.131    -3514740.69949  -2597911.96948  21126740.532    21126748.716
       246.000         215.000
  22575288.165   -10759472.36549  -8368394.14146  22575288.193    22575297.880
       228.000         180.000
  20903531.454     1343945.26849   1054926.00747  20903531.286    20903539.831
       239.000         205.000
  20717163.258   -12988523.38049 -10092545.30648  20717162.697    20717171.166
       244.000         216.000
  20742648.300   -14406510.56249 -11206562.28447  20742647.754    20742655.503
       241.000         208.000
  23232383.384     9369506.22149   7233131.83845  23232384.095    23232395.334
       218.000         162.000
  23781928.280    -5591367.28749  -4142160.43145  23781927.864    23781939.362
       214.000         156.000
 00  1  6 21 51 30.0000000  0  7G 2G26G27G 7G 8G19G11
  21126748.422    -3514702.28049  -2597882.03648  21126748.027    21126756.129
       246.000         215.000
  22571500.218   -10779378.47149  -8383905.37846  22571500.975    22571509.363
       229.000         180.000
  20913697.293     1397366.95249   1096553.26047  20913697.159    20913705.561
       239.000         204.000
  20709852.308   -13026942.51849 -10122482.26248  20709851.688    20709860.099
       244.000         216.000
  20730529.506   -14470195.12549 -11256186.57347  20730529.063    20730537.094
       242.000         208.000
  23249892.054     9461514.46149   7304826.42745  23249892.215    23249904.567
       219.000         161.000
  23783993.904    -5580512.11649  -4133701.85845  23783993.674    23784004.831
       215.000         156.000
 00  1  6 21 52  0.0000000  0  7G 2G26G27G 7G 8G19G11
  21126769.563    -3514591.32649  -2597795.58348  21126769.162    21126777.148
       246.000         215.000
  22567812.062   -10798759.61349  -8399007.55346  22567811.819    22567821.107
       229.000         180.000
  20923941.313     1451199.40149   1138500.58147  20923941.397    20923949.409
       239.000         204.000
  20702615.413   -13064972.28449 -10152115.81348  20702614.578    20702622.936
       244.000         216.000
  20718464.298   -14533598.12549 -11305591.46147  20718463.886    20718471.729
       242.000         208.000
  23267440.922     9553733.65149   7376685.39745  23267441.465    23267453.327
       216.000         161.000
  23786149.816    -5569183.73249  -4124874.55545  23786149.421    23786160.621
       214.000         156.000
 00  1  6 21 52 30.0000000  0  7G 2G26G27G 7G 8G19G11
  21126804.571    -3514407.43749  -2597652.29948  21126804.238    21126812.265
       246.000         215.000
  22564219.721   -10817637.62249  -8413717.67846  22564219.796    22564229.251
       228.000         180.000
  20934265.026     1505450.83049   1180774.38347  20934264.780    20934273.291
       239.000         204.000
  20695454.960   -13102600.49849 -10181436.46948  20695454.215    20695462.754
       244.000         216.000
  20706456.384   -14596700.04649 -11354761.75247  20706455.879    20706463.706
       242.000         208.000
  23285025.013     9646138.28049   7448688.85945  23285024.953    23285037.224
       217.000         160.000
  23788395.569    -5557381.81349  -4115678.26745  23788394.747    23788405.318
       213.000         156.000
 00  1  6 21 53  0.0000000  0  7G 2G26G27G 7G 8G19G11
  21126858.559    -3514123.91149  -2597431.37548  21126858.080    21126866.093
       246.000         216.000
  22560724.273   -10836006.34049  -8428030.94546  22560724.306    22560733.432
       229.000         181.000
  20944671.379     1560136.41049   1223386.48347  20944671.326    20944679.720
       238.000         204.000
  20688378.092   -13139789.54149 -10210414.91548  20688377.464    20688385.840
       244.000         216.000
  20694509.338   -14659481.84249 -11403682.59147  20694508.490    20694516.630
       241.000         208.000
  23302644.645     9738729.02049   7520837.34845  23302644.895    23302656.336
       219.000         161.000
  23790732.387    -5545101.54049  -4106109.23545  23790732.139    23790742.799
       217.000         156.000
 00  1  6 21 53 30.0000000  0  7G 2G26G27G 7G 8G19G11
  21126939.666    -3513697.87849  -2597099.40648  21126939.384    21126947.242
       246.000         216.000
  22557329.937   -10853843.73149  -8441930.19846  22557329.965    22557339.455
       229.000         181.000
  20955163.460     1615272.50449   1266349.62947  20955163.432    20955171.761
       238.000         204.000
  20681389.885   -13176512.84449 -10239030.44848  20681389.482    20681397.795
       244.000         216.000
  20682627.196   -14721922.87749 -11452337.90847  20682626.636    20682634.709
       242.000         208.000
  23320303.630     9831526.47649   7593146.92345  23320303.750    23320315.382
       216.000         161.000
  23793163.769    -5532324.56149  -4096153.15145  23793163.426    23793173.794
       218.000         156.000
 00  1  6 21 54  0.0000000  0  7G 2G26G27G 7G 8G19G11
  21127052.050    -3513107.36949  -2596639.27648  21127051.537    21127059.473
       246.000         216.000
  22554040.006   -10871132.29949  -8455401.80246  22554040.043    22554048.543
       228.000         181.000
  20965743.476     1670870.77649   1309672.91547  20965743.318    20965751.586
       238.000         203.000
  20674496.572   -13212737.41149 -10267257.35348  20674495.934    20674504.508
       244.000         216.000
  20670810.473   -14784020.10549 -11500725.32747  20670809.896    20670817.913
       242.000         208.000
  23338008.262     9924564.06849   7665643.60245  23338008.923    23338019.573
       217.000         160.000
  23795692.780    -5519034.37949  -4085797.18245  23795693.734    23795703.463
       216.000         156.000
 00  1  6 21 54 30.0000000  0  7G 2G26G27G 7G 8G19G11
  21127196.676    -3512347.22849  -2596046.96348  21127196.007    21127204.088
       246.000         215.000
  22550856.912   -10887859.46449  -8468435.94946  22550856.907    22550866.095
       229.000         181.000
  20976409.073     1726918.79449   1353346.65447  20976409.124    20976417.428
       238.000         203.000
  20667699.819   -13248454.44549 -10295088.77748  20667699.190    20667707.613
       244.000         216.000
  20659058.653   -14845776.24549 -11548846.96347  20659058.032    20659066.126
       242.000         208.000
  23355763.371    10017867.26649   7738347.25945  23355763.771    23355775.071
       216.000         159.000
  23798321.453    -5505220.24749  -4075032.92145  23798320.605    23798331.137
       214.000         156.000
 00  1  6 21 55  0.0000000  0  7G 2G26G27G 7G 8G19G11
  21127371.817    -3511426.81249  -2595329.75848  21127371.205    21127379.317
       246.000         215.000
  22547782.462   -10904015.59249  -8481025.13446  22547782.835    22547791.900
       228.000         181.000
  20987157.315     1783400.91149   1397358.64847  20987157.133    20987165.703
       238.000         203.000
  20660995.517   -13283685.68749 -10322541.66248  20660994.841    20661003.183
       244.000         216.000
  20647368.838   -14907206.41649 -11596714.60247  20647368.164    20647376.408
       242.000         209.000
  23373569.283    10111437.42049   7811258.91545  23373569.614    23373581.501
       217.000         158.000
  23801048.010    -5490890.83649  -4063867.16145  23801048.057    23801057.825
       216.000         156.000
 00  1  6 21 55 30.0000000  0  7G 2G26G27G 7G 8G19G11
  21127572.743    -3510370.61649  -2594506.74948  21127572.096    21127580.219
       246.000         215.000
  22544813.030   -10919620.19649  -8493184.56446  22544813.600    22544821.870
       229.000         181.000
  20997987.322     1840312.75149   1441705.49447  20997987.316    20997995.837
       239.000         203.000
  20654377.312   -13318464.41349 -10349641.93648  20654376.653    20654385.063
       244.000         216.000
  20635738.797   -14968322.53149 -11644337.52747  20635738.256    20635746.249
       242.000         209.000
  23391425.240    10205270.70249   7884375.61045  23391424.894    23391436.968
       217.000         157.000
  23803871.546    -5476054.33649  -4052306.26645  23803871.053    23803882.269
       216.000         155.000
 00  1  6 21 56  0.0000000  0  7G 2G26G27G 7G 8G19G11
  21127794.899    -3509203.21149  -2593597.08448  21127794.422    21127802.525
       246.000         215.000
  22541942.374   -10934705.44049  -8504939.29846  22541942.668    22541951.627
       227.000         181.000
  21008899.639     1897657.24949   1486389.47647  21008899.641    21008908.150
       238.000         203.000
  20647843.919   -13352797.49549 -10376394.95748  20647843.336    20647851.730
       244.000         216.000
  20624169.875   -15029117.55749 -11691710.24647  20624169.325    20624177.353
       242.000         209.000
  23409326.608    10299342.98149   7957678.52845  23409326.461    23409339.049
       215.000         157.000
  23806791.664    -5460709.56949  -4040349.34045  23806791.961    23806801.054
       214.000         155.000
 00  1  6 21 56 30.0000000  0  7G 2G26G27G 7G 8G19G11
  21128040.612    -3507911.92649  -2592590.88848  21128039.982    21128048.093
       246.000         215.000
  22539169.530   -10949276.80749  -8516293.61446  22539170.307    22539179.204
       228.000         181.000
  21019896.571     1955446.28649   1531419.85447  21019896.419    21019905.176
       238.000         202.000
  20641394.180   -13386691.12749 -10402805.54348  20641393.631    20641401.877
       244.000         216.000
  20612666.143   -15089569.76549 -11738815.83647  20612665.449    20612673.384
       242.000         209.000
  23427270.456    10393637.93649   8031154.96545  23427270.538    23427283.210
       215.000         158.000
  23809808.109    -5444857.79349  -4027997.32845  23809807.723    23809818.508
       215.000         155.000
 00  1  6 21 57  0.0000000  0  7G 2G26G27G 7G 8G19G11
  21128310.537    -3506493.38849  -2591485.53448  21128310.005    21128318.227
       246.000         215.000
  22536495.115   -10963330.82649  -8527244.80346  22536495.589    22536504.575
       228.000         181.000
  21030982.752     2013704.40149   1576815.74547  21030982.624    21030991.283
       238.000         202.000
  20635030.047   -13420134.75149 -10428865.47748  20635029.546    20635037.669
       244.000         216.000
  20601231.797   -15149657.39749 -11785637.34747  20601231.244    20601239.173
       242.000         209.000
  23445256.953    10488157.14649   8104806.15045  23445256.677    23445268.988
       216.000         158.000
  23812921.980    -5428494.83549  -4015246.98545  23812921.697    23812932.184
       214.000         154.000
 00  1  6 21 57 30.0000000  0  7G 2G26G27G 7G 8G19G11
  21128605.637    -3504942.72449  -2590277.22448  21128605.181    21128613.175
       246.000         215.000
  22533919.524   -10976865.58449  -8537791.36446  22533919.622    22533928.653
       227.000         181.000
  21042158.618     2072433.70849   1622578.79447  21042158.467    21042167.360
       237.000         202.000
  20628754.427   -13453113.37049 -10454563.06648  20628753.751    20628762.160
       244.000         216.000
  20589869.400   -15209367.19549 -11832164.44347  20589868.810    20589876.761
       243.000         210.000
  23463287.116    10582905.97649   8178636.24445  23463287.604    23463299.797
       215.000         157.000
  23816135.389    -5411607.95349  -4002088.39745  23816136.192    23816145.091
       216.000         154.000
 00  1  6 21 58  0.0000000  0  7G 2G26G27G 7G 8G19G11
  21128928.884    -3503244.13849  -2588953.65348  21128928.417    21128936.480
       246.000         215.000
  22531446.131   -10989863.42049  -8547919.54946  22531445.855    22531456.112
       227.000         181.000
  21053422.882     2131627.56449   1668703.83147  21053422.779    21053431.519
       237.000         202.000
  20622570.587   -13485609.59549 -10479884.76948  20622569.842    20622578.336
       244.000         217.000
  20578579.638   -15268694.95749 -11878393.84947  20578579.076    20578587.085
       243.000         210.000
  23481360.786    10677883.37649   8252644.45245  23481360.532    23481373.310
       214.000         158.000
  23819448.306    -5394198.72149  -3988522.78445  23819449.528    23819458.154
       220.000         153.000
 00  1  6 21 58 30.0000000  0  7G 2G26G27G 7G 8G19G11
  21129281.367    -3501391.93349  -2587510.38248  21129280.883    21129288.975
       246.000         215.000
  22529079.413   -11002300.75649  -8557610.98846  22529079.383    22529088.633
       227.000         181.000
  21064775.057     2191283.43649   1715188.87247  21064774.900    21064783.746
       238.000         202.000
  20616477.833   -13517626.99549 -10504833.35748  20616477.220    20616485.419
       244.000         217.000
  20567359.205   -15327658.92349 -11924339.77447  20567358.834    20567366.614
       243.000         210.000
  23499481.405    10773107.35149   8326844.79645  23499481.847    23499494.351
       213.000         157.000
  23822857.695    -5376283.38549  -3974562.80545  23822859.128    23822867.534
       218.000         153.000
 00  1  6 21 59  0.0000000  0  7G 2G26G27G 7G 8G19G11
  21129658.875    -3499407.95149  -2585964.42748  21129658.322    21129666.531
       246.000         215.000
  22526820.184   -11014172.74549  -8566861.90146  22526820.027    22526829.726
       228.000         180.000
  21076210.990     2251379.49949   1762016.92547  21076211.023    21076219.592
       237.000         201.000
  20610475.326   -13549170.24449 -10529412.48048  20610474.745    20610483.103
       244.000         217.000
  20556204.626   -15386276.72949 -11970015.96247  20556204.156    20556212.063
       243.000         211.000
  23517648.560    10868575.90949   8401235.72245  23517648.910    23517661.377
       214.000         157.000
  23826361.649    -5357869.04249  -3960213.97345  23826361.543    23826372.334
       214.000         153.000
 00  1  6 21 59 30.0000000  0  7G 2G26G27G 7G 8G19G11
  21130060.880    -3497295.43749  -2584318.31748  21130060.434    21130068.723
       246.000         215.000
  22524668.642   -11025479.16349  -8575672.10246  22524669.436    22524678.195
       227.000         181.000
  21087724.822     2311884.90149   1809163.94147  21087724.822    21087733.236
       238.000         201.000
  20604560.595   -13580252.27849 -10553632.21648  20604560.080    20604568.375
       244.000         217.000
  20545112.537   -15444566.05749 -12015436.19647  20545112.135    20545119.928
       243.000         211.000
  23535857.332    10964263.02749   8475796.95645  23535857.705    23535869.282
       215.000         157.000
  23829958.846    -5338963.04349  -3945482.03745  23829959.712    23829969.166
       213.000         153.000
 00  1  6 22  0  0.0000000  0  7G 2G26G27G 7G 8G19G11
  21130484.372    -3495070.24349  -2582584.40448  21130483.890    21130491.998
       246.000         215.000
  22522624.714   -11036220.19149  -8584041.73346  22522624.971    22522633.832
       228.000         181.000
  21099316.458     2372799.31449   1856629.66747  21099316.417    21099325.124
       239.000         201.000
  20598731.673   -13610883.31449 -10577500.52748  20598730.975    20598739.214
       244.000         217.000
  20534081.031   -15502536.75949 -12060608.15347  20534080.402    20534088.620
       243.000         211.000
  23554104.723    11060152.80249   8550516.09145  23554104.783    23554117.223
       214.000         157.000
  23833647.842    -5319577.43549  -3930376.38345  23833649.258    23833658.101
       214.000         153.000
 00  1  6 22  0 30.0000000  0  7G 2G26G27G 7G 8G19G11
  21130926.563    -3492746.56349  -2580773.74648  21130926.054    21130934.140
       246.000         215.000
  22520686.154   -11046407.19849  -8591979.66246  22520685.944    22520695.159
       228.000         181.000
  21110984.898     2434117.02649   1904409.64747  21110984.969    21110993.484
       238.000         201.000
  20592986.406   -13641074.46349 -10601026.06948  20592985.663    20592993.779
       244.000         217.000
  20523109.950   -15560190.06049 -12105532.78247  20523109.497    20523117.168
       243.000         211.000
  23572387.338    11156227.60649   8625379.42545  23572387.805    23572399.668
       214.000         156.000
  23837427.595    -5299715.40349  -3914899.49945  23837428.082    23837439.045
       216.000         152.000
 00  1  6 22  1  0.0000000  0  7G 2G26G27G 7G 8G19G11
  21131388.088    -3490321.24249  -2578883.88948  21131387.555    21131395.556
       247.000         215.000
  22518852.361   -11056044.03449  -8599488.88646  22518852.683    22518862.158
       228.000         181.000
  21122728.418     2495829.42949   1952497.17947  21122728.499    21122736.897
       238.000         200.000
  20587323.256   -13670834.29149 -10624215.52048  20587322.643    20587330.824
       244.000         217.000
  20512202.229   -15617510.64049 -12150198.14747  20512201.818    20512209.460
       243.000         212.000
  23590702.281    11252472.79149   8700375.50945  23590702.427    23590714.865
       216.000         155.000
  23841299.116    -5279370.76649  -3899046.55345  23841299.062    23841310.172
       214.000         152.000
 00  1  6 22  1 30.0000000  0  7G 2G26G27G 7G 8G19G11
  21131870.863    -3487784.43149  -2576907.15548  21131870.460    21131878.716
       246.000         215.000
  22517121.778   -11065138.44249  -8606575.43846  22517121.741    22517131.194
       227.000         182.000
  21134547.930     2557940.99149   2000895.73747  21134548.057    21134556.411
       238.000         200.000
  20581742.805   -13700159.66749 -10647066.44148  20581742.276    20581750.612
       244.000         217.000
  20501358.671   -15674493.87049 -12194600.64447  20501358.145    20501366.117
       244.000         212.000
  23609050.057    11348890.13849   8775505.75345  23609050.115    23609063.002
       214.000         155.000
  23845261.602    -5258548.52649  -3882821.45945  23845261.239    23845272.198
       216.000         151.000
 00  1  6 22  2  0.0000000  0  7G 2G26G27G 7G 8G19G11
  21132376.744    -3485126.10749  -2574835.74048  21132376.300    21132384.286
       246.000         215.000
  22515494.529   -11073689.68849  -8613238.74246  22515494.198    22515504.095
       228.000         182.000
  21146446.813     2620469.95049   2049619.54147  21146446.760    21146455.349
       239.000         200.000
  20576247.677   -13729036.82049 -10669568.09348  20576247.290    20576255.524
       244.000         217.000
  20490579.866   -15731136.76949 -12238737.94547  20490579.467    20490587.232
       244.000         212.000
  23627434.318    11445499.33049   8850785.47345  23627434.168    23627446.839
       211.000         154.000
  23849313.928    -5237254.51849  -3866228.73345  23849312.395    23849323.205
       211.000         151.000
 00  1  6 22  2 30.0000000  0  7G 2G26G27G 7G 8G19G11
  21132909.636    -3482325.62649  -2572653.55148  21132909.151    21132917.220
       246.000         215.000
  22513970.684   -11081697.63949  -8619478.70846  22513970.652    22513980.192
       228.000         182.000
  21158425.547     2683418.45649   2098670.26047  21158425.477    21158434.000
       238.000         199.000
  20570839.157   -13757458.80349 -10691715.07348  20570838.555    20570846.789
       244.000         217.000
  20479868.826   -15787423.52349 -12282597.73147  20479868.452    20479876.116
       244.000         212.000
  23645856.798    11542309.57549   8926221.87845  23645857.434    23645869.250
       213.000         153.000
  23853457.659    -5215478.38549  -3849260.33645  23853456.636    23853468.492
       210.000         150.000
 00  1  6 22  3  0.0000000  0  7G 2G26G27G 7G 8G19G11
  21133471.189    -3479374.61049  -2570354.06348  21133470.693    21133478.804
       246.000         215.000
  22512549.556   -11089165.94349  -8625298.16246  22512549.067    22512558.464
       228.000         181.000
  21170484.865     2746790.47149   2148050.99447  21170484.808    21170493.208
       237.000         199.000
  20565518.755   -13785417.73949 -10713501.23548  20565518.318    20565526.444
       244.000         217.000
  20469229.085   -15843335.82949 -12326165.73947  20469228.758    20469236.383
       244.000         212.000
  23664320.143    11639334.35949   9001825.44345  23664320.902    23664333.936
       213.000         152.000
  23857696.829    -5193202.20049  -3831902.30345  23857696.420    23857707.596
       214.000         151.000
 00  1  6 22  3 30.0000000  0  7G 2G26G27G 7G 8G19G11
  21134061.667    -3476271.64549  -2567936.17548  21134061.224    21134069.372
       246.000         215.000
  22511230.800   -11096095.78349  -8630698.03446  22511231.269    22511240.601
       228.000         181.000
  21182627.397     2810599.60949   2197772.34247  21182627.332    21182635.799
       238.000         199.000
  20560291.835   -13812885.43249 -10734904.61048  20560291.376    20560299.493
       245.000         217.000
  20458660.810   -15898872.45049 -12369441.00448  20458660.474    20458668.184
       244.000         213.000
  23682824.398    11736574.48549   9077596.80745  23682824.961    23682836.578
       210.000         151.000
  23862034.216    -5170409.11149  -3814141.47945  23862032.888    23862043.270
       212.000         151.000
 00  1  6 22  4  0.0000000  0  7G 2G26G27G 7G 8G19G11
  21134680.703    -3473018.59049  -2565401.33348  21134680.265    21134688.604
       246.000         215.000
  22510014.597   -11102487.13149  -8635678.30146  22510014.471    22510024.465
       228.000         182.000
  21194857.176     2874867.06049   2247850.81347  21194857.366    21194866.058
       238.000         199.000
  20555158.081   -13839863.40549 -10755926.38748  20555157.491    20555165.786
       244.000         217.000
  20448168.273   -15954011.26849 -12412406.29348  20448167.708    20448175.677
       245.000         213.000
  23701368.904    11834026.02149   9153532.91345  23701369.253    23701381.071
       212.000         151.000
  23866474.100    -5147077.77649  -3795961.22445  23866472.725    23866483.180
       210.000         151.000
 00  1  6 22  4 30.0000000  0  7G 2G26G27G 7G 8G19G11
  21135329.155    -3469611.08149  -2562746.13948  21135328.626    21135336.735
       245.000         215.000
  22508899.077   -11108349.24249  -8640246.17146  22508899.423    22508908.407
       229.000         182.000
  21207174.423     2939594.34549   2298287.59147  21207174.339    21207182.935
       237.000         198.000
  20550115.344   -13866362.95349 -10776575.36448  20550114.742    20550123.031
       244.000         217.000
  20437755.732   -16008729.52949 -12455043.87248  20437755.196    20437763.088
       244.000         213.000
  23719954.215    11931691.65349   9229635.82545  23719954.077    23719966.709
       212.000         150.000
  23871019.388    -5123189.77349  -3777347.23645  23871018.748    23871029.945
       215.000         150.000
 00  1  6 22  5  0.0000000  0  7G 2G26G27G 7G 8G19G11
  21136005.867    -3466054.81349  -2559975.03648  21136005.288    21136013.697
       245.000         215.000
  22507885.458   -11113675.78449  -8644396.72046  22507884.985    22507894.607
       229.000         182.000
  21219579.366     3004782.39549   2349083.40747  21219579.571    21219587.969
       237.000         198.000
  20545164.032   -13892382.31649 -10796850.17248  20545163.399    20545171.663
       244.000         217.000
  20427420.665   -16063040.47749 -12497364.06948  20427420.121    20427427.931
       244.000         213.000
  23738580.795    12029574.73549   9305908.19545  23738580.842    23738593.511
       212.000         150.000
  23875670.541    -5098750.48849  -3758303.65945  23875671.017    23875680.398
       215.000         151.000
 00  1  6 22  5 30.0000000  0  7G 2G26G27G 7G 8G19G11
  21136707.488    -3462367.84749  -2557102.09048  21136706.952    21136714.973
       245.000         215.000
  22506976.868   -11118450.44849  -8648117.22246  22506977.454    22506985.830
       229.000         182.000
  21232072.603     3070434.58249   2400240.89347  21232072.192    21232081.131
       237.000         198.000
  20540301.368   -13917935.57449 -10816761.77848  20540300.796    20540309.113
       244.000         217.000
  20417160.263   -16116958.93749 -12539378.42548  20417159.664    20417167.346
       244.000         213.000
  23757247.413    12127668.32149   9382344.59145  23757247.750    23757260.395
       213.000         150.000
  23880421.428    -5073784.67749  -3738849.82045  23880421.768    23880430.938
       216.000         151.000
 00  1  6 22  6  0.0000000  0  7G 2G26G27G 7G 8G19G11
  21137430.659    -3458567.53549  -2554140.82748  21137430.202    21137438.392
       245.000         215.000
  22506171.866   -11122680.90549  -8651413.66746  22506171.911    22506181.244
       229.000         182.000
  21244649.844     3136528.31249   2451742.43947  21244649.925    21244658.381
       236.000         198.000
  20535520.941   -13943056.86749 -10836336.79248  20535520.245    20535528.615
       244.000         217.000
  20406974.437   -16170485.57549 -12581087.46948  20406973.886    20406981.504
       244.000         213.000
  23775954.002    12225971.59649   9458944.36445  23775953.870    23775967.810
       211.000         149.000
  23885266.207    -5048323.76649  -3719010.18745  23885265.665    23885276.036
       215.000         151.000
 00  1  6 22  6 30.0000000  0  7G 2G26G27G 7G 8G19G11
  21138174.007    -3454661.41549  -2551097.11248  21138173.537    21138181.784
       245.000         215.000
  22505470.572   -11126366.48849  -8654285.54546  22505470.667    22505479.790
       230.000         183.000
  21257305.127     3203032.32449   2503563.68347  21257304.734    21257313.999
       236.000         197.000
  20530819.961   -13967760.70849 -10855586.51548  20530819.380    20530827.343
       244.000         217.000
  20396858.276   -16223646.31549 -12622511.39048  20396857.629    20396865.487
       244.000         213.000
  23794699.657    12324479.81349   9535703.85045  23794699.862    23794713.057
       209.000         149.000
  23890198.470    -5022404.37349  -3698813.27745  23890197.850    23890208.680
       213.000         151.000
 00  1  6 22  7  0.0000000  0  7G 2G26G27G 7G 8G19G11
  21138934.735    -3450663.92849  -2547982.20748  21138934.200    21138942.372
       245.000         215.000
  22504872.584   -11129509.08249  -8656734.31646  22504873.151    22504882.054
       230.000         183.000
  21270038.576     3269946.88349   2555704.83647  21270038.359    21270047.253
       236.000         197.000
  20526199.519   -13992041.13849 -10874506.30848  20526198.918    20526207.253
       244.000         217.000
  20386807.511   -16276463.43549 -12663667.55948  20386806.967    20386814.664
       244.000         214.000
  23813480.478    12423172.94049   9612607.40645  23813480.630    23813492.977
       215.000         149.000
  23895214.562    -4996045.17349  -3678273.67645  23895214.547    23895224.944
       214.000         151.000
 00  1  6 22  7 30.0000000  0  7G 2G26G27G 7G 8G19G11
  21139714.190    -3446567.75649  -2544790.40248  21139713.841    21139721.991
       245.000         215.000
  22504374.007   -11132129.26449  -8658776.00546  22504374.176    22504383.358
       229.000         183.000
  21282849.939     3337270.70049   2608164.89147  21282850.139    21282858.835
       237.000         197.000
  20521658.265   -14015905.57849 -10893101.95448  20521657.662    20521665.909
       245.000         217.000
  20376824.567   -16328923.94749 -12704545.85148  20376824.058    20376831.928
       244.000         214.000
  23832297.103    12522053.83849   9689657.28045  23832297.824    23832310.554
       215.000         150.000
  23900315.651    -4969238.99949  -3657385.77945  23900314.946    23900326.060
       214.000         151.000
 00  1  6 22  8  0.0000000  0  7G 2G26G27G 7G 8G19G11
  21140519.300    -3442336.96649  -2541493.69848  21140518.843    21140527.142
       245.000         215.000
  22503972.471   -11134239.32949  -8660420.19246  22503972.694    22503981.702
       228.000         183.000
  21295740.229     3405009.16949   2660948.04947  21295740.286    21295749.161
       236.000         197.000
  20517198.979   -14039339.13549 -10911361.84548  20517198.579    20517206.888
       245.000         217.000
  20366910.347   -16381023.36549 -12745142.76948  20366909.682    20366917.517
       244.000         214.000
  23851149.966    12621125.48549   9766855.79945  23851150.452    23851163.830
       211.000         150.000
  23905504.995    -4941969.42849  -3636136.77145  23905503.364    23905517.464
       211.000         151.000
 00  1  6 22  8 30.0000000  0  7G 2G26G27G 7G 8G19G11
  21141355.715    -3437941.64149  -2538068.78548  21141355.294    21141363.455
       245.000         215.000
  22503670.487   -11135826.35249  -8661656.82346  22503670.863    22503679.178
       230.000         182.000
  21308713.673     3473184.72949   2714071.80347  21308713.595    21308722.360
       236.000         197.000
  20512828.102   -14062308.07149 -10929259.69448  20512827.515    20512835.656
       245.000         218.000
  20357064.226   -16432765.07949 -12785460.95048  20357063.688    20357071.559
       244.000         214.000
  23870039.425    12720389.76049   9844204.39845  23870039.745    23870053.294
       212.000         149.000
  23910788.774    -4914203.41549  -3614500.93945  23910788.166    23910800.804
       212.000         150.000
 00  1  6 22  9  0.0000000  0  7G 2G26G27G 7G 8G19G11
  21142226.514    -3433365.73149  -2534503.15648  21142226.011    21142234.317
       245.000         215.000
  22503470.224   -11136878.53449  -8662476.69846  22503470.452    22503479.138
       229.000         182.000
  21321772.150     3541807.08349   2767543.70547  21321772.224    21321780.775
       237.000         197.000
  20508550.754   -14084785.55449 -10946774.59448  20508550.286    20508558.355
       244.000         218.000
  20347289.689   -16484130.49149 -12825485.91048  20347289.075    20347296.793
       245.000         214.000
  23888966.808    12819853.10249   9921708.11845  23888967.382    23888980.399
       213.000         150.000
  23916173.018    -4885908.60849  -3592453.07545  23916174.627    23916183.290
       217.000         150.000
 00  1  6 22  9 30.0000000  0  7G 2G26G27G 7G 8G19G11
  21143131.440    -3428610.32349  -2530797.65848  21143130.815    21143139.139
       245.000         215.000
  22503375.599   -11137375.83449  -8662864.19946  22503375.327    22503384.596
       229.000         182.000
  21334912.353     3610859.09649   2821350.40447  21334912.068    21334921.066
       236.000         197.000
  20504368.256   -14106764.89949 -10963901.33448  20504367.642    20504375.933
       245.000         218.000
  20337589.969   -16535102.79649 -12865204.55148  20337589.380    20337597.065
       245.000         214.000
  23907932.838    12919519.02249   9999369.70045  23907933.092    23907946.270
       212.000         150.000
  23921658.460    -4857081.63649  -3569990.54445  23921660.049    23921668.819
       214.000         150.000
 00  1  6 22 10  0.0000000  0  7G 2G26G27G 7G 8G19G11
  21144069.229    -3423682.27449  -2526957.63148  21144068.866    21144077.165
       245.000         215.000
  22503389.008   -11137305.17749  -8662809.13346  22503389.238    22503398.660
       229.000         182.000
  21348131.336     3680325.28449   2875479.83547  21348130.847    21348140.124
       236.000         197.000
  20500284.040   -14128227.52449 -10980625.43748  20500283.449    20500291.683
       245.000         218.000
  20327966.685   -16585673.47849 -12904610.24148  20327966.192    20327973.858
       245.000         215.000
  23926935.282    13019377.08349  10077180.99145  23926936.007    23926949.483
       212.000         150.000
  23927243.246    -4827734.90349  -3547122.96545  23927243.354    23927252.489
       214.000         150.000
 00  1  6 22 10 30.0000000  0  7G 2G26G27G 7G 8G19G11
  21145036.714    -3418598.26049  -2522996.07248  21145036.176    21145044.184
       245.000         215.000
  22503511.823   -11136659.63849  -8662306.11646  22503511.583    22503521.020
       229.000         182.000
  21361426.360     3750191.03349   2929920.60647  21361426.282    21361435.366
       235.000         196.000
  20496298.944   -14149169.27749 -10996943.66548  20496298.578    20496306.571
       245.000         218.000
  20318424.121   -16635819.82649 -12943685.27948  20318423.528    20318431.255
       245.000         215.000
  23945975.326    13119432.33249  10155145.91745  23945975.646    23945989.373
       215.000         150.000
  23932926.741    -4797867.51949  -3523849.69345  23932926.490    23932935.513
       214.000         150.000
 00  1  6 22 11  0.0000000  0  7G 2G26G27G 7G 8G19G11
  21146029.469    -3413381.32749  -2518930.93948  21146029.059    21146037.167
       245.000         215.000
  22503741.950   -11135449.92949  -8661363.49146  22503742.423    22503751.226
       228.000         182.000
  21374795.254     3820444.59149   2984663.57047  21374795.197    21374804.259
       236.000         196.000
  20492409.318   -14169609.43949 -11012871.04548  20492408.681    20492416.735
       245.000         218.000
  20308967.548   -16685514.19549 -12982408.13048  20308966.965    20308974.962
       245.000         215.000
  23965053.722    13219689.24549  10233268.00745  23965053.629    23965067.131
       208.000         148.000
  23938708.669    -4767483.26149  -3500173.64645  23938707.987    23938719.347
       213.000         149.000
 00  1  6 22 11 30.0000000  0  7G 2G26G27G 7G 8G19G11
  21147044.930    -3408045.11149  -2514772.85248  21147044.516    21147052.620
       245.000         215.000
  22504076.341   -11133692.72349  -8659994.23746  22504076.302    22504086.233
       229.000         182.000
  21388237.962     3891086.18049   3039708.89547  21388237.621    21388246.957
       235.000         196.000
  20488612.079   -14189563.89049 -11028419.94648  20488611.539    20488619.689
       244.000         218.000
  20299598.163   -16734750.45549 -13020774.01448  20299597.551    20299605.381
       245.000         215.000
  23984168.490    13320137.80749  10311539.42945  23984168.516    23984182.469
       210.000         147.000
  23944587.349    -4736590.19949  -3476101.14945  23944587.367    23944596.587
       211.000         148.000
 00  1  6 22 12  0.0000000  0  7G 2G26G27G 7G 8G19G11
  21148084.096    -3402584.08949  -2510517.51548  21148083.536    21148091.840
       245.000         215.000
  22504512.467   -11131400.98149  -8658208.45946  22504512.290    22504521.834
       228.000         182.000
  21401757.317     3962130.66549   3095068.16547  21401757.182    21401766.295
       236.000         196.000
  20484904.795   -14209045.77549 -11043600.61648  20484904.246    20484912.268
       245.000         218.000
  20290315.502   -16783531.22149 -13058784.96848  20290314.957    20290322.750
       245.000         215.000
  24003321.949    13420789.46649  10389969.11045  24003322.496    24003335.114
       209.000         147.000
  23950563.647    -4705184.74749  -3451629.39345  23950564.090    23950574.868
       215.000         149.000
 00  1  6 22 12 30.0000000  0  7G 2G26G27G 7G 8G19G11
  21149145.275    -3397007.47049  -2506172.09948  21149144.772    21149153.114
       245.000         215.000
  22505050.743   -11128572.26349  -8656004.27846  22505050.957    22505059.992
       228.000         182.000
  21415354.811     4033585.51549   3150747.19747  21415354.778    21415363.946
       236.000         195.000
  20481281.871   -14228084.37649 -11058435.87348  20481281.104    20481289.210
       245.000         218.000
  20281115.216   -16831878.94849 -13096458.49148  20281114.357    20281122.043
       245.000         215.000
  24022511.553    13521630.76749  10468546.56445  24022511.072    24022525.586
       209.000         146.000
  23956638.821    -4673259.90149  -3426752.90045  23956638.065    23956649.402
       213.000         148.000
 00  1  6 22 13  0.0000000  0  8G 2G26G27G 7G 8G19G11G13
  21150226.577    -3391325.39849  -2501744.51148  21150226.063    21150234.257
       244.000         214.000
  22505690.033   -11125212.57049  -8653386.34346  22505690.565    22505699.259
       229.000         182.000
  21429032.190     4105460.45949   3206753.57747  21429032.300    21429041.214
       235.000         195.000
  20477741.292   -14246689.91449 -11072933.67648  20477740.705    20477748.840
       245.000         218.000
  20271992.297   -16879819.84849 -13133815.01048  20271991.792    20271999.378
       245.000         215.000
  24041735.331    13622652.06749  10547264.28345  24041736.102    24041749.863
       209.000         145.000
  23962809.013    -4640835.67249  -3401487.28745  23962809.052    23962818.367
       213.000         148.000
  23575857.307     8058232.80649   6279962.05745  23575857.813    23575869.086
       218.000         159.000
 00  1  6 22 13 30.0000000  0  8G 2G26G27G 7G 8G19G11G13
  21151328.547    -3385534.56549  -2497232.17048  21151328.040    21151336.370
       245.000         214.000
  22506428.827   -11121330.59749  -8650361.43746  22506429.283    22506438.520
       229.000         183.000
  21442789.062     4177753.02449   3263085.37947  21442788.876    21442798.021
       234.000         194.000
  20474281.834   -14264869.55249 -11087099.61348  20474281.310    20474289.381
       244.000         218.000
  20262939.889   -16927390.57149 -13170883.08048  20262939.319    20262946.846
       245.000         215.000
  24060989.465    13723831.94849  10626105.57245  24060989.014    24061002.952
       204.000         144.000
  23969067.138    -4607949.48249  -3375861.68445  23969066.321    23969076.615
       215.000         149.000
  23594893.246     8158266.14649   6357909.90045  23594894.275    23594905.123
       219.000         159.000
 00  1  6 22 14  0.0000000  0  8G 2G26G27G 7G 8G19G11G13
  21152453.216    -3379624.33749  -2492626.79248  21152452.742    21152460.910
       244.000         214.000
  22507268.881   -11116916.37849  -8646921.80046  22507268.702    22507278.227
       229.000         183.000
  21456625.286     4250462.68049   3319742.18747  21456625.227    21456634.365
       235.000         194.000
  20470902.934   -14282625.66049 -11100935.52548  20470902.319    20470910.465
       244.000         218.000
  20253957.275   -16974594.32449 -13207665.20248  20253956.518    20253964.344
       245.000         215.000
  24080274.684    13825175.59849  10705074.45845  24080274.723    24080288.225
       206.000         144.000
  23975412.944    -4574602.29749  -3349876.88145  23975411.848    23975423.173
       212.000         149.000
  23613945.704     8258386.38449   6435925.46345  23613946.445    23613957.192
       220.000         159.000
 00  1  6 22 14 30.0000000  0  8G 2G26G27G 7G 8G19G11G13
  21153602.269    -3373585.92349  -2487921.53248  21153601.756    21153610.094
       245.000         214.000
  22508210.507   -11111968.30149  -8643066.16746  22508210.920    22508219.653
       229.000         183.000
  21470541.396     4323591.96149   3376725.96747  21470541.354    21470550.287
       234.000         194.000
  20467605.767   -14299952.41449 -11114436.87948  20467605.052    20467613.219
       245.000         218.000
  20245045.948   -17021423.11549 -13244155.14648  20245045.457    20245053.047
       245.000         215.000
  24099588.321    13926668.82749  10784159.92045  24099588.312    24099602.142
       206.000         144.000
  23981845.420    -4540799.42849  -3323536.96545  23981845.424    23981857.407
       211.000         148.000
  23633012.018     8358579.79049   6513998.02845  23633013.095    23633024.016
       220.000         160.000
 00  1  6 22 15  0.0000000  0  8G 2G26G27G 7G 8G19G11G13
  21154778.700    -3367403.78849  -2483104.27948  21154778.232    21154786.298
       245.000         214.000
  22509252.432   -11106493.17049  -8638799.84246  22509252.759    22509261.851
       229.000         183.000
  21484539.002     4397149.62249   3434043.54747  21484539.023    21484547.721
       234.000         193.000
  20464392.784   -14316836.34549 -11127593.17648  20464392.026    20464400.202
       245.000         218.000
  20236212.054   -17067845.46449 -13280328.38248  20236211.622    20236219.213
       245.000         216.000
  24118933.301    14028327.17449  10863374.01645  24118933.860    24118947.488
       205.000         144.000
  23988364.527    -4506540.93549  -3296842.04345  23988364.351    23988375.455
       213.000         148.000
  23652090.279     8458835.99549   6592119.52445  23652090.598    23652101.903
       220.000         160.000
 00  1  6 22 15 30.0000000  0  8G 2G26G27G 7G 8G19G11G13
  21155985.903    -3361059.90949  -2478160.99248  21155985.496    21155993.536
       244.000         214.000
  22510396.324   -11100481.88849  -8634115.73846  22510396.347    22510405.003
       229.000         183.000
  21498617.107     4471130.32349   3491690.77547  21498617.007    21498626.565
       233.000         193.000
  20461263.195   -14333282.17749 -11140408.09848  20461262.703    20461270.700
       244.000         218.000
  20227459.792   -17113838.98649 -13316167.46948  20227459.331    20227466.922
       245.000         216.000
  24138309.389    14130148.49349  10942715.11145  24138309.986    24138323.007
       208.000         143.000
  23994974.992    -4471802.66149  -3269773.26745  23994975.254    23994984.386
       213.000         148.000
  23671180.946     8559157.18749   6670291.66745  23671181.922    23671193.063
       220.000         161.000
 00  1  6 22 16  0.0000000  0  8G 2G26G27G 7G 8G19G11G13
  21157221.478    -3354567.08549  -2473101.64348  21157221.211    21157229.205
       245.000         214.000
  22511641.552   -11093937.97749  -8629016.58646  22511641.265    22511650.366
       229.000         183.000
  21512772.190     4545515.65649   3549653.30147  21512772.308    21512781.043
       234.000         193.000
  20458216.594   -14349292.29049 -11152883.49848  20458216.212    20458224.324
       244.000         218.000
  20218790.453   -17159396.71449 -13351666.97748  20218789.993    20218797.851
       245.000         216.000
  24157716.287    14232131.23749  11022181.99245  24157717.530    24157730.824
       208.000         143.000
  24001678.104    -4436577.12849  -3242324.79545  24001679.033    24001689.135
       215.000         148.000
  23690282.404     8659535.00949   6748507.93245  23690283.198    23690294.546
       221.000         162.000
 00  1  6 22 16 30.0000000  0  8G 2G26G27G 7G 8G19G11G13
  21158484.413    -3347930.49949  -2467930.26948  21158483.727    21158492.078
       245.000         214.000
  22512987.348   -11086865.42649  -8623505.51746  22512987.783    22512996.063
       228.000         183.000
  21527005.016     4620309.31049   3607933.99747  21527004.805    21527013.893
       234.000         193.000
  20455255.015   -14364855.62649 -11165010.76348  20455254.412    20455262.631
       244.000         218.000
  20210203.911   -17204519.30849 -13386827.42148  20210203.577    20210211.230
       245.000         216.000
  24177153.999    14334275.85749  11101775.00845  24177154.394    24177167.314
       209.000         143.000
  24008472.569    -4400872.94449  -3214503.34645  24008473.080    24008482.116
       210.000         149.000
  23709396.312     8759977.98449   6826774.98045  23709396.856    23709408.349
       218.000         161.000
 00  1  6 22 17  0.0000000  0  8G 2G26G27G 7G 8G19G11G13
  21159774.527    -3341150.79049  -2462647.37548  21159773.913    21159782.108
       245.000         214.000
  22514433.758   -11079264.37849  -8617582.63446  22514434.311    22514443.061
       229.000         183.000
  21541314.124     4695503.95549   3666527.14647  21541314.019    21541323.111
       234.000         192.000
  20452379.629   -14379965.85149 -11176784.95248  20452379.193    20452387.055
       245.000         218.000
  20201700.473   -17249205.14949 -13421647.53748  20201699.994    20201707.532
       245.000         216.000
  24196622.402    14436582.18549  11181494.03745  24196622.677    24196635.388
       208.000         142.000
  24015360.108    -4364678.47349  -3186299.85345  24015359.253    24015369.748
       209.000         149.000
  23728524.124     8860494.38249   6905099.21745  23728524.994    23728536.072
       220.000         162.000
 00  1  6 22 17 30.0000000  0  8G 2G26G27G 7G 8G19G11G13
  21161091.194    -3334231.64749  -2457255.83148  21161090.812    21161098.731
       244.000         214.000
  22515981.684   -11071129.84649  -8611244.04846  22515982.260    22515990.974
       229.000         183.000
  21555697.762     4771090.19449   3725425.43847  21555697.731    21555706.769
       233.000         192.000
  20449592.244   -14394613.66449 -11188198.82148  20449591.842    20449599.833
       244.000         218.000
  20193277.184   -17293469.70349 -13456139.38148  20193276.635    20193284.317
       245.000         216.000
  24216120.454    14539044.21449  11261334.39445  24216121.208    24216134.718
       212.000         141.000
  24022341.219    -4327992.82349  -3157713.61645  24022340.040    24022351.021
       209.000         149.000
  23747667.383     8961092.00249   6983486.75645  23747667.552    23747679.731
       219.000         162.000
 00  1  6 22 18  0.0000000  0  9G 2G26G27G 4G 7G 8G19G11G13
  21162432.402    -3327183.65349  -2451763.88848  21162431.813    21162440.121
       245.000         214.000
  22517627.913   -11062479.32649  -8604503.38846  22517628.060    22517637.032
       229.000         183.000
  21570155.752     4847067.10949   3784628.15347  21570155.762    21570164.711
       234.000         192.000
  24352561.094    -6252931.75649  -4846642.48745  24352559.844    24352575.952
       205.000         137.000
  20446896.066   -14408782.27649 -11199239.28848  20446895.569    20446903.539
       245.000         218.000
  20184932.998   -17337318.68449 -13490307.40548  20184932.362    20184940.108
       245.000         216.000
  24235647.569    14641659.06749  11341293.81445  24235646.871    24235661.225
       208.000         141.000
  24029414.402    -4290822.68349  -3128749.88845  24029413.103    24029423.428
       216.000         148.000
  23766825.346     9061766.79549   7061934.41645  23766825.939    23766837.336
       221.000         162.000
 00  1  6 22 18 30.0000000  0  9G 2G26G27G 4G 7G 8G19G11G13
  21163803.280    -3319979.54649  -2446150.29948  21163802.704    21163810.963
       244.000         214.000
  22519375.424   -11053296.16949  -8597347.68746  22519375.821    22519385.122
       229.000         183.000
  21584691.662     4923453.40849   3844149.86747  21584691.829    21584701.122
       234.000         192.000
  24332788.987    -6356832.67749  -4927603.70045  24332787.692    24332804.318
       203.000         138.000
  20444292.602   -14422463.52249 -11209899.98748  20444292.141    20444300.167
       245.000         218.000
  20176672.128   -17380729.75649 -13524134.19848  20176671.701    20176679.346
       245.000         216.000
  24255205.587    14744435.91149  11421379.47245  24255205.571    24255219.255
       211.000         142.000
  24036584.358    -4253144.11749  -3099389.96245  24036583.240    24036595.740
       216.000         149.000
  23786001.199     9162535.71849   7140455.43545  23786001.953    23786012.749
       218.000         160.000
 00  1  6 22 19  0.0000000  0  9G 2G26G27G 4G 7G 8G19G11G13
  21165203.410    -3312621.62549  -2440416.85748  21165202.915    21165211.074
       245.000         214.000
  22521223.540   -11043584.37549  -8589780.06746  22521223.741    22521232.943
       230.000         183.000
  21599303.357     5000238.21349   3903982.09947  21599303.743    21599312.565
       232.000         192.000
  24313006.779    -6460786.63049  -5008606.23345  24313005.137    24313021.566
       206.000         140.000
  20441782.272   -14435655.52749 -11220179.46248  20441781.739    20441789.719
       244.000         218.000
  20168496.667   -17423692.06349 -13557611.30548  20168496.241    20168503.835
       245.000         216.000
  24274794.525    14847375.71349  11501592.11645  24274794.879    24274808.607
       207.000         142.000
  24043852.566    -4214949.32449  -3069627.76445  24043852.577    24043863.136
       215.000         150.000
  23805193.163     9263389.29049   7219042.42945  23805193.887    23805205.400
       218.000         160.000
 00  1  6 22 19 30.0000000  0  9G 2G26G27G 4G 7G 8G19G11G13
  21166632.771    -3305110.33849  -2434563.90648  21166632.175    21166640.526
       244.000         214.000
  22523173.204   -11033338.99349  -8581796.66346  22523173.412    22523182.281
       230.000         184.000
  21613990.995     5077421.93549   3964125.17447  21613990.845    21614000.249
       232.000         192.000
  24293213.059    -6564800.81949  -5089655.72545  24293211.400    24293228.641
       208.000         141.000
  20439365.306   -14448356.56749 -11230076.36448  20439364.842    20439372.762
       244.000         218.000
  20160407.999   -17466198.26149 -13590732.99948  20160407.360    20160415.123
       245.000         216.000
  24294416.989    14950491.53049  11581941.90045  24294417.165    24294430.176
       210.000         141.000
  24051217.875    -4176244.22349  -3039467.96045  24051218.568    24051227.041
       215.000         151.000
  23824399.263     9364317.38249   7297687.46845  23824399.521    23824411.717
       218.000         159.000
 00  1  6 22 20  0.0000000  0  9G 2G26G27G 4G 7G 8G19G11G13
  21168091.405    -3297445.15749  -2428591.03948  21168090.756    21168099.052
       245.000         214.000
  22525225.289   -11022555.12349  -8573393.66546  22525225.311    22525234.413
       229.000         184.000
  21628755.139     5155007.74749   4024581.56147  21628754.965    21628764.588
       231.000         191.000
  24273405.117    -6668890.01449  -5170763.69245  24273404.832    24273419.758
       208.000         141.000
  20437040.224   -14460575.07549 -11239597.26548  20437039.472    20437047.481
       244.000         218.000
  20152408.730   -17508234.61049 -13623488.57748  20152408.118    20152415.686
       245.000         217.000
  24314075.464    15053796.99149  11662439.47345  24314075.756    24314089.989
       210.000         141.000
  24058677.603    -4137043.73249  -3008922.15445  24058678.034    24058687.667
       220.000         151.000
  23843616.813     9465305.36149   7376379.16745  23843618.047    23843628.468
       221.000         159.000
 00  1  6 22 20 30.0000000  0  9G 2G26G27G 4G 7G 8G19G11G13
  21169579.823    -3289623.49049  -2422496.23548  21169579.315    21169587.555
       245.000         214.000
  22527381.900   -11011221.88849  -8564562.59246  22527382.348    22527391.202
       229.000         183.000
  21643597.342     5233003.69749   4085357.53847  21643597.479    21643606.946
       232.000         191.000
  24253582.555    -6773056.22349  -5251931.66645  24253581.205    24253597.795
       209.000         141.000
  20434803.550   -14472328.59949 -11248755.84248  20434802.990    20434811.250
       244.000         218.000
  20144499.401   -17549798.23449 -13655875.79848  20144498.874    20144506.695
       245.000         217.000
  24333771.514    15157300.12649  11743091.07445  24333771.491    24333785.889
       209.000         140.000
  24066228.964    -4097361.75849  -2978001.13345  24066228.846    24066239.160
       218.000         151.000
  23862842.619     9566336.67549   7455104.63545  23862844.007    23862855.164
       218.000         158.000
 00  1  6 22 21  0.0000000  0  9G 2G26G27G 4G 7G 8G19G11G13
  21171096.505    -3281653.34549  -2416285.74148  21171096.055    21171104.374
       245.000         214.000
  22529642.505   -10999342.23649  -8555305.73746  22529642.333    22529651.852
       228.000         183.000
  21658517.674     5311410.02049   4146453.28047  21658517.940    21658527.148
       232.000         190.000
  24233746.414    -6877294.00149  -5333155.41645  24233744.957    24233762.145
       209.000         140.000
  20432654.531   -14483621.77249 -11257555.70048  20432653.898    20432661.935
       245.000         218.000
  20136679.361   -17590892.87449 -13687897.57948  20136678.997    20136686.490
       246.000         217.000
  24353505.127    15261000.25949  11823896.19845  24353505.869    24353519.031
       211.000         140.000
  24073870.671    -4057204.63149  -2946709.88445  24073870.316    24073880.826
       219.000         153.000
  23882074.492     9667399.85949   7533854.94845  23882075.723    23882087.108
       217.000         157.000
 00  1  6 22 21 30.0000000  0  9G 2G26G27G 4G 7G 8G19G11G13
  21172640.785    -3273538.09049  -2409962.17048  21172640.076    21172648.357
       245.000         214.000
  22532007.753   -10986912.26349  -8545620.06746  22532008.145    22532017.415
       228.000         182.000
  21673515.416     5390223.00249   4207865.89647  21673515.388    21673524.904
       231.000         190.000
  24213901.036    -6981579.69149  -5414416.51945  24213900.555    24213915.626
       210.000         140.000
  20430587.454   -14494484.33549 -11266020.01848  20430586.889    20430594.916
       245.000         218.000
  20128946.424   -17631529.64649 -13719562.57348  20128945.881    20128953.747
       246.000         217.000
  24373272.818    15364879.43149  11904840.81645  24373273.464    24373287.172
       212.000         140.000
  24081601.307    -4016579.90049  -2915054.24645  24081601.454    24081612.897
       219.000         154.000
  23901312.327     9768494.98549   7612630.14045  23901314.005    23901323.769
       217.000         155.000
 00  1  6 22 22  0.0000000  0  9G 2G26G27G 4G 7G 8G19G11G13
  21174209.132    -3265296.09149  -2403539.83948  21174208.560    21174216.735
       245.000         214.000
  22534474.342   -10973950.22049  -8535519.79246  22534475.078    22534483.807
       228.000         183.000
  21688588.056     5469429.99749   4269585.54147  21688587.873    21688597.359
       231.000         189.000
  24194049.816    -7085897.11049  -5495702.36545  24194048.599    24194063.444
       209.000         140.000
  20428598.221   -14504937.79349 -11274165.55148  20428597.766    20428605.714
       244.000         218.000
  20121297.059   -17671727.16249 -13750885.29448  20121296.316    20121303.982
       247.000         217.000
  24393069.467    15468910.73749  11985903.98645  24393069.300    24393084.304
       210.000         139.000
  24089419.695    -3975494.05949  -2883039.34245  24089419.592    24089429.950
       217.000         154.000
  23920555.894     9869619.64849   7691428.33445  23920557.653    23920569.489
       215.000         154.000
 00  1  6 22 22 30.0000000  0  9G 2G26G27G 4G 7G 8G19G11G13
  21175800.086    -3256935.52949  -2397025.12348  21175799.679    21175807.772
       244.000         214.000
  22537038.027   -10960478.15749  -8525022.09846  22537038.003    22537046.881
       228.000         182.000
  21703731.589     5549009.36149   4331595.34047  21703731.230    21703740.894
       230.000         189.000
  24174195.813    -7190228.63449  -5576999.26745  24174195.053    24174210.905
       207.000         139.000
  20426683.229   -14515001.13149 -11282007.09148  20426682.512    20426690.529
       244.000         218.000
  20113727.382   -17711505.77949 -13781881.59748  20113726.827    20113734.495
       247.000         217.000
  24412887.105    15573052.16649  12067052.95745  24412887.230    24412901.886
       209.000         139.000
  24097327.583    -3933937.82849  -2850657.87245  24097327.787    24097338.345
       215.000         154.000
  23939804.678     9970771.70149   7770247.88245  23939806.037    23939817.562
       216.000         152.000
 00  1  6 22 23  0.0000000  0  9G 2G26G27G 4G 7G 8G19G11G13
  21177409.623    -3248477.27649  -2390434.28148  21177409.145    21177417.415
       245.000         214.000
  22539696.212   -10946509.32049  -8514137.30946  22539696.533    22539706.223
       229.000         183.000
  21718942.054     5628940.78049   4393879.47047  21718941.979    21718951.454
       231.000         188.000
  24154336.819    -7294586.37649  -5658316.61445  24154335.721    24154350.467
       210.000         138.000
  20424841.374   -14524679.98649 -11289549.03248  20424840.797    20424848.618
       245.000         218.000
  20106235.479   -17750875.92949 -13812559.61448  20106234.893    20106242.569
       247.000         217.000
  24432722.191    15677285.53649  12148273.57245  24432722.728    24432736.796
       205.000         139.000
  24105323.920    -3891916.85749  -2817914.28245  24105323.522    24105334.067
       219.000         155.000
  23959059.437    10071955.58149   7849092.21345  23959059.188    23959073.801
       213.000         150.000
 00  1  6 22 23 30.0000000  0  9G 2G26G27G 4G 7G 8G19G11G13
  21179036.672    -3239927.11649  -2383771.82648  21179036.268    21179044.609
       245.000         214.000
  22542446.914   -10932054.60549  -8502873.92146  22542447.608    22542456.109
       228.000         183.000
  21734218.975     5709221.29049   4456435.61847  21734218.504    21734228.619
       230.000         188.000
  24134469.197    -7398989.88149  -5739669.65745  24134467.636    24134483.842
       209.000         140.000
  20423074.002   -14533967.53549 -11296786.06148  20423073.371    20423081.465
       244.000         218.000
  20098820.851   -17789839.55049 -13842920.86048  20098820.366    20098827.955
       247.000         217.000
  24452573.073    15781602.46149  12229559.29445  24452574.265    24452587.208
       207.000         138.000
  24113405.549    -3849447.44849  -2784821.24545  24113405.147    24113415.555
       216.000         155.000
  23978319.533    10173167.51249   7927958.41445  23978319.655    23978331.682
       214.000         148.000
 00  1  6 22 24  0.0000000  0  9G 2G26G27G 4G 7G 8G19G11G13
  21180685.435    -3231262.89049  -2377020.49348  21180685.067    21180693.282
       245.000         214.000
  22545288.718   -10917120.94749  -8491237.33046  22545288.951    22545298.000
       228.000         183.000
  21749565.121     5789865.43149   4519275.11246  21749565.149    21749574.646
       230.000         187.000
  24114588.801    -7503460.42249  -5821074.92045  24114587.379    24114603.853
       210.000         140.000
  20421386.052   -14542837.58149 -11303697.76048  20421385.629    20421393.481
       244.000         218.000
  20091486.404   -17828382.38049 -13872954.21748  20091486.064    20091493.769
       247.000         218.000
  24472442.391    15886015.59149  12310919.99345  24472443.640    24472455.882
       203.000         138.000
  24121573.615    -3806524.09749  -2751374.49545  24121573.352    24121582.648
       218.000         156.000
  23997584.798    10274406.21349   8006845.46745  23997585.068    23997596.667
       211.000         147.000
 00  1  6 22 24 30.0000000  0  9G 2G26G27G 4G 7G 8G19G11G13
  21182359.653    -3222464.88249  -2370164.91148  21182359.228    21182367.373
       244.000         214.000
  22548224.449   -10901693.81749  -8479216.21746  22548225.209    22548233.393
       228.000         183.000
  21764983.680     5870890.22149   4582411.22346  21764983.356    21764993.439
       230.000         187.000
  24094694.405    -7608005.17149  -5902538.00745  24094693.691    24094708.952
       210.000         141.000
  20419781.578   -14551269.19849 -11310267.82548  20419781.020    20419788.882
       244.000         218.000
  20084235.573   -17866485.88749 -13902645.24448  20084235.223    20084242.856
       247.000         218.000
  24492333.643    15990543.73749  12392370.31145  24492333.670    24492348.619
       201.000         138.000
  24129828.862    -3763142.66449  -2717570.80845  24129828.767    24129839.757
       218.000         156.000
  24016857.831    10375686.55649   8085764.95345  24016859.204    24016871.660
       214.000         147.000
 00  1  6 22 25  0.0000000  0  9G 2G26G27G 4G 7G 8G19G11G13
  21184060.599    -3213526.54549  -2363199.98248  21184060.070    21184068.519
       244.000         213.000
  22551257.530   -10885754.89349  -8466796.29546  22551257.399    22551266.828
       229.000         183.000
  21780477.845     5952312.28349   4645856.89146  21780477.889    21780487.256
       230.000         187.000
  24074783.600    -7712635.46849  -5984067.75845  24074783.124    24074798.924
       207.000         141.000
  20418265.461   -14559236.13049 -11316475.79848  20418264.909    20418273.055
       244.000         218.000
  20077072.738   -17904127.00849 -13931975.96748  20077072.282    20077079.824
       247.000         218.000
  24512250.646    16095207.81849  12473926.59145  24512251.312    24512266.336
       200.000         137.000
  24138171.837    -3719299.74849  -2683407.51745  24138171.991    24138182.655
       217.000         156.000
  24036139.764    10477012.65749   8164720.11245  24036141.196    24036151.812
       214.000         146.000
 00  1  6 22 25 30.0000000  0  9G 2G26G27G 4G 7G 8G19G11G13
  21185793.869    -3204417.98049  -2356102.40948  21185793.410    21185801.538
       244.000         213.000
  22554389.259   -10869297.81049  -8453972.62146  22554389.721    22554398.642
       229.000         183.000
  21796046.739     6034126.97249   4709608.50646  21796046.861    21796056.349
       230.000         187.000
  24054860.851    -7817328.16549  -6065646.16745  24054859.787    24054875.387
       209.000         142.000
  20416842.212   -14566715.46349 -11322303.82748  20416841.705    20416849.812
       244.000         218.000
  20070002.155   -17941283.06949 -13960928.72148  20070001.677    20070009.353
       247.000         218.000
  24532192.743    16200003.57049  12555585.45545  24532194.165    24532207.676
       200.000         137.000
  24146605.190    -3674982.43149  -2648874.56845  24146604.973    24146615.275
       217.000         157.000
  24055429.809    10578381.56349   8243708.61145  24055432.331    24055442.975
       212.000         146.000
 00  1  6 22 26  0.0000000  0  8G 2G26G27G 4G 7G 8G11G13
  21187563.542    -3195118.40949  -2348855.99748  21187562.815    21187571.266
       245.000         213.000
  22557623.896   -10852299.91349  -8440727.53446  22557624.841    22557632.833
       229.000         183.000
  21811693.305     6116349.90049   4773678.23146  21811693.659    21811703.096
       230.000         186.000
  24034933.564    -7922045.51549  -6147243.79345  24034932.283    24034948.618
       209.000         144.000
  20415514.980   -14573690.22949 -11327738.68848  20415514.643    20415522.565
       244.000         218.000
  20063027.272   -17977936.21549 -13989489.59148  20063026.736    20063034.366
       247.000         218.000
  24155134.436    -3630161.10349  -2613948.90145  24155133.469    24155144.932
       214.000         156.000
  24074731.156    10679810.13549   8322743.59245  24074733.539    24074743.505
       214.000         147.000
 00  1  6 22 26 30.0000000  0  8G 2G26G27G 4G 7G 8G11G13
  21189363.120    -3185661.76749  -2341487.19548  21189362.620    21189371.000
       245.000         213.000
  22560960.081   -10834768.09849  -8427066.40146  22560960.062    22560969.630
       228.000         183.000
  21827413.032     6198957.19349   4838047.46046  21827412.857    21827422.631
       229.000         186.000
  24015002.179    -8026784.27049  -6228858.07745  24015002.110    24015016.624
       208.000         144.000
  20414280.283   -14580178.52349 -11332794.47948  20414279.678    20414287.625
       244.000         218.000
  20056146.246   -18014096.27249 -14017666.24148  20056145.869    20056153.217
       247.000         218.000
  24163755.094    -3584859.56049  -2578649.03645  24163754.481    24163764.936
       219.000         156.000
  24094037.538    10781264.81749   8401798.92645  24094038.075    24094050.285
       213.000         146.000
 00  1  6 22 27  0.0000000  0  8G 2G26G27G 4G 7G 8G11G13
  21191193.842    -3176041.31649  -2333990.74548  21191193.332    21191201.509
       244.000         213.000
  22564397.277   -10816705.74749  -8412991.87446  22564397.603    22564406.837
       229.000         183.000
  21843206.234     6281950.99949   4902717.87046  21843206.373    21843216.479
       229.000         186.000
  23995070.802    -8131523.24649  -6310472.52445  23995069.899    23995084.857
       209.000         146.000
  20413138.073   -14586180.62049 -11337471.41748  20413137.349    20413145.132
       244.000         218.000
  20049361.027   -18049752.90749 -14045450.61348  20049360.636    20049368.275
       247.000         218.000
  24172468.898    -3539068.14549  -2542967.44345  24172468.458    24172479.011
       217.000         156.000
  24113344.819    10882724.25549   8480857.97345  24113344.469    24113357.721
       213.000         146.000
 00  1  6 22 27 30.0000000  0  8G 2G26G27G 4G 7G 8G11G13
  21193056.421    -3166253.35049  -2326363.76648  21193055.823    21193064.028
       245.000         213.000
  22567934.150   -10798119.68049  -8398509.25146  22567934.704    22567943.845
       229.000         183.000
  21859074.860     6365340.66149   4967696.73846  21859074.837    21859084.562
       229.000         186.000
  23975144.104    -8236237.55349  -6392067.73645  23975144.013    23975158.193
       212.000         146.000
  20412085.968   -14591709.21749 -11341779.39348  20412085.467    20412093.424
       244.000         218.000
  20042671.828   -18084904.69149 -14072841.59748  20042671.247    20042678.959
       247.000         218.000
  24181275.996    -3492786.13749  -2506903.56045  24181276.091    24181286.470
       212.000         155.000
  24132654.190    10984194.79149   8559925.65245  24132655.420    24132666.988
       215.000         147.000
 00  1  6 22 28  0.0000000  0  9G 2G26G27G 4G 9G 7G 8G11G13
  21194944.344    -3156332.18449  -2318632.98948  21194943.796    21194951.971
       244.000         213.000
  22571564.528   -10779041.80149  -8383643.40146  22571564.981    22571573.984
       229.000         183.000
  21875016.887     6449116.39549   5032976.44946  21875017.021    21875026.602
       229.000         185.000
  23955215.411    -8340962.40749  -6473671.15945  23955215.010    23955229.408
       211.000         148.000
  24477220.861    -6705605.64149  -5200539.46845  24477220.233    24477233.663
       210.000         143.000
  20411114.102   -14596816.56849 -11345759.12748  20411113.570    20411121.490
       244.000         218.000
  20036070.024   -18119597.18149 -14099874.69248  20036069.578    20036077.270
       247.000         218.000
  24190171.457    -3446040.10449  -2470478.11545  24190171.053    24190181.080
       213.000         155.000
  24151958.796    11085639.85449   8638973.50045  24151960.556    24151972.577
       216.000         148.000
 00  1  6 22 28 30.0000000  0  9G 2G26G27G 4G 9G 7G 8G11G13
  21196861.452    -3146257.81249  -2310782.82948  21196861.058    21196869.212
       244.000         213.000
  22575291.330   -10759457.65149  -8368383.06346  22575292.300    22575300.672
       230.000         183.000
  21891033.095     6533281.90249   5098559.87646  21891033.223    21891042.781
       229.000         185.000
  23935287.145    -8445685.24949  -6555272.96545  23935286.156    23935301.040
       211.000         148.000
  24458060.287    -6806294.40749  -5278998.03245  24458059.388    24458073.112
       212.000         144.000
  20410222.709   -14601500.82649 -11349409.17748  20410222.167    20410230.204
       244.000         218.000
  20029559.155   -18153812.01549 -14126535.58648  20029558.715    20029566.267
       247.000         218.000
  24199158.439    -3398813.36849  -2433678.11645  24199158.231    24199167.345
       214.000         154.000
  24171260.073    11187067.93249   8718008.09645  24171260.505    24171273.646
       215.000         148.000
 00  1  6 22 29  0.0000000  0  9G 2G26G27G 4G 9G 7G 8G11G13
  21198808.677    -3136025.05749  -2302809.25348  21198808.330    21198816.554
       244.000         213.000
  22579113.013   -10739375.11949  -8352734.36546  22579113.785    22579122.418
       229.000         183.000
  21907121.259     6617825.39049   5164437.83146  21907121.765    21907131.348
       230.000         185.000
  23915357.828    -8550413.26849  -6636878.79545  23915357.453    23915371.368
       212.000         150.000
  24438909.443    -6906932.72249  -5357417.29645  24438909.125    24438921.105
       213.000         144.000
  20409409.294   -14605775.33649 -11352739.94248  20409408.650    20409416.699
       244.000         218.000
  20023136.357   -18187564.24249 -14152836.00548  20023135.991    20023143.536
       247.000         218.000
  24208237.240    -3351104.17149  -2396502.16445  24208237.176    24208247.853
       215.000         153.000
  24190561.173    11288494.62649   8797041.60845  24190563.182    24190575.536
       217.000         149.000
 00  1  6 22 29 30.0000000  0  9G 2G26G27G 4G 9G 7G 8G11G13
  21200784.681    -3125641.30949  -2294718.01748  21200784.173    21200792.241
       244.000         213.000
  22583030.278   -10718790.13449  -8336694.14646  22583030.513    22583040.031
       230.000         183.000
  21923277.265     6702725.29949   5230593.51146  21923277.881    21923287.003
       229.000         185.000
  23895425.696    -8655155.31049  -6718495.54345  23895424.972    23895439.699
       212.000         149.000
  24419767.347    -7007524.76349  -5435800.49445  24419767.017    24419778.571
       214.000         143.000
  20408672.534   -14609646.80849 -11355756.65548  20408671.880    20408679.771
       244.000         218.000
  20016797.487   -18220875.19349 -14178792.57348  20016797.060    20016804.514
       247.000         218.000
  24217404.196    -3302931.50149  -2358965.06145  24217403.780    24217415.457
       213.000         153.000
  24209863.468    11389927.14049   8876079.67445  24209865.199    24209877.413
       215.000         150.000
 00  1  6 22 30  0.0000000  0  9G 2G26G27G 4G 9G 7G 8G11G13
  21202789.274    -3115106.99949  -2286509.45748  21202788.855    21202797.107
       245.000         213.000
  22587043.633   -10697699.98049  -8320260.29046  22587043.715    22587053.142
       230.000         182.000
  21939494.257     6787945.65749   5296998.88946  21939494.734    21939503.789
       229.000         185.000
  23875489.411    -8759919.60749  -6800129.63045  23875489.013    23875502.407
       212.000         150.000
  24400634.163    -7108069.69249  -5514146.98845  24400633.753    24400646.457
       214.000         143.000
  20408012.546   -14613114.84049 -11358458.99948  20408011.797    20408019.727
       244.000         218.000
  20010542.783   -18253743.74149 -14204404.41048  20010542.340    20010549.918
       247.000         218.000
  24226657.728    -3254304.41549  -2321073.87045  24226657.864    24226668.843
       208.000         152.000
  24229162.183    11491341.19049   8955103.30945  24229163.379    24229176.285
       217.000         150.000
 00  1  6 22 30 30.0000000  0  9G 2G26G27G 4G 9G 7G 8G11G13
  21204818.771    -3104441.88549  -2278198.97248  21204818.120    21204826.323
       244.000         213.000
  22591154.867   -10676095.49049  -8303425.64746  22591154.979    22591163.896
       230.000         183.000
  21955768.865     6873468.98949   5363640.34846  21955768.698    21955778.981
       228.000         184.000
  23855549.779    -8864701.55549  -6881777.45245  23855549.487    23855562.821
       211.000         150.000
  24381512.219    -7208555.75149  -5592447.62545  24381512.360    24381524.078
       214.000         143.000
  20407431.658   -14616167.29049 -11360837.51348  20407430.950    20407438.834
       244.000         218.000
  20004376.693   -18286146.41149 -14229653.22748  20004375.999    20004383.640
       247.000         218.000
  24235994.974    -3205237.40049  -2282839.88345  24235993.581    24236006.000
       204.000         150.000
  24248459.161    11592747.05749   9034120.59645  24248459.911    24248473.532
       214.000         150.000
 00  1  6 22 31  0.0000000  0  9G 2G26G27G 4G 9G 7G 8G11G13
  21206872.165    -3093651.19849  -2269790.63848  21206871.788    21206879.956
       244.000         213.000
  22595364.818   -10653972.39949  -8286186.90246  22595365.624    22595374.162
       229.000         183.000
  21972104.857     6959314.76349   5430533.06846  21972104.988    21972114.821
       229.000         184.000
  23835608.884    -8969490.30449  -6963430.58145  23835608.252    23835621.518
       213.000         150.000
  24362401.272    -7308983.93749  -5670703.16645  24362399.902    24362413.607
       215.000         142.000
  20406933.724   -14618784.01449 -11362876.50048  20406933.204    20406941.182
       244.000         218.000
  19998300.943   -18318074.49749 -14254532.23848  19998300.435    19998308.091
       247.000         218.000
  24245413.630    -3155741.41449  -2244271.64345  24245413.869    24245423.960
       209.000         149.000
  24267756.136    11694152.51249   9113137.56245  24267756.862    24267770.824
       212.000         149.000
 00  1  6 22 31 30.0000000  0  9G 2G26G27G 4G 9G 7G 8G11G13
  21208951.313    -3082725.30449  -2261276.94548  21208950.819    21208958.813
       244.000         213.000
  22599673.446   -10631330.52449  -8268543.91346  22599673.821    22599682.870
       230.000         182.000
  21988504.450     7045494.89449   5497686.31846  21988504.805    21988514.408
       227.000         184.000
  23815669.028    -9074273.72849  -7045079.60145  23815667.616    23815681.503
       214.000         151.000
  24343303.319    -7409343.55349  -5748905.28445  24343303.062    24343314.691
       214.000         143.000
  20406520.615   -14620954.95649 -11364568.12648  20406520.090    20406527.892
       244.000         218.000
  19992320.291   -18349503.34049 -14279022.22648  19992319.815    19992327.342
       247.000         218.000
  24254915.657    -3105807.81549  -2205362.38645  24254915.102    24254926.005
       206.000         148.000
  24287051.303    11795548.32749   9192146.99545  24287052.913    24287065.015
       212.000         149.000
 00  1  6 22 32  0.0000000  0  9G 2G26G27G 4G 9G 7G 8G11G13
  21211055.718    -3071666.60549  -2252659.76548  21211055.002    21211063.532
       244.000         213.000
  22604078.906   -10608179.79049  -8250504.41046  22604079.631    22604088.362
       229.000         182.000
  22004973.386     7132039.27049   5565123.39946  22004973.124    22004983.221
       227.000         183.000
  23795731.998    -9179041.80949  -7126716.67345  23795731.448    23795745.136
       212.000         151.000
  24324222.075    -7509615.07649  -5827038.75445  24324221.602    24324233.754
       213.000         143.000
  20406192.538   -14622678.90949 -11365911.45148  20406191.907    20406199.866
       244.000         218.000
  19986440.226   -18380403.10449 -14303099.94648  19986439.596    19986447.225
       246.000         218.000
  24264501.715    -3055432.16149  -2166108.69945  24264501.895    24264512.181
       205.000         148.000
  24306343.643    11896929.37549   9271144.91345  24306344.708    24306357.637
       212.000         148.000
 00  1  6 22 32 30.0000000  0  9G 2G26G27G 4G 9G 7G 8G11G13
  21213186.983    -3060466.60249  -2243932.47848  21213186.527    21213194.801
       244.000         213.000
  22608579.313   -10584529.80249  -8232075.88946  22608578.887    22608588.776
       229.000         182.000
  22021519.845     7218991.18949   5632878.03446  22021519.419    22021530.326
       227.000         183.000
  23775798.824    -9283789.61349  -7208337.97345  23775797.678    23775811.072
       212.000         150.000
  24305159.510    -7609788.41249  -5905095.71845  24305159.059    24305171.608
       213.000         144.000
  20405949.948   -14623953.54749 -11366904.65948  20405949.285    20405957.263
       244.000         218.000
  19980657.738   -18410789.96949 -14326778.00348  19980657.229    19980664.865
       247.000         218.000
  24274172.366    -3004611.98149  -2126508.61045  24274173.799    24274183.104
       206.000         148.000
  24325636.238    11998311.61949   9350143.77445  24325636.232    24325651.352
       212.000         147.000
 00  1  6 22 33  0.0000000  0  9G 2G26G27G 4G 9G 7G 8G11G13
  21215351.061    -3049094.37249  -2235070.99048  21215350.548    21215358.876
       244.000         213.000
  22613170.997   -10560400.45249  -8213273.83746  22613171.647    22613180.573
       229.000         182.000
  22038145.515     7306359.53149   5700957.15546  22038145.519    22038155.975
       227.000         182.000
  23755868.624    -9388521.96349  -7289947.24945  23755867.175    23755880.900
       211.000         150.000
  24286114.091    -7709871.94249  -5983082.71045  24286113.004    24286125.860
       211.000         144.000
  20405792.092   -14624782.86049 -11367550.86348  20405791.415    20405799.396
       244.000         219.000
  19974968.764   -18440685.83749 -14350073.46648  19974968.277    19974975.888
       247.000         218.000
  24283927.990    -2953346.41849  -2086561.45845  24283928.416    24283939.143
       210.000         149.000
  24344927.078    12099684.46249   9429135.28745  24344927.847    24344941.502
       210.000         148.000
 00  1  6 22 33 30.0000000  0  9G 2G26G27G 4G 9G 7G 8G11G13
  21217548.929    -3037544.49449  -2226071.07048  21217548.447    21217556.585
       244.000         213.000
  22617852.152   -10535800.95449  -8194105.43346  22617851.917    22617861.646
       229.000         182.000
  22054848.152     7394132.27349   5769351.39946  22054847.976    22054858.324
       228.000         182.000
  23735939.924    -9493246.70149  -7371550.62845  23735939.791    23735952.208
       211.000         150.000
  24267088.041    -7809853.77549  -6060990.44745  24267087.425    24267099.477
       210.000         144.000
  20405716.723   -14625178.83649 -11367859.39648  20405716.077    20405724.127
       244.000         219.000
  19969373.385   -18470089.66449 -14372985.51848  19969372.921    19969380.366
       247.000         218.000
  24293770.133    -2901625.74749  -2046259.68545  24293769.763    24293780.567
       209.000         148.000
  24364214.265    12201037.81049   9508111.60745  24364216.014    24364228.450
       211.000         148.000
 00  1  6 22 34  0.0000000  0  9G 2G26G27G 4G 9G 7G 8G11G13
  21219778.418    -3025828.33149  -2216941.58048  21219777.853    21219786.201
       244.000         213.000
  22622622.570   -10510732.21149  -8174571.39546  22622622.364    22622632.066
       228.000         182.000
  22071627.247     7482306.52249   5838058.50046  22071626.911    22071636.727
       228.000         181.000
  23716012.890    -9597962.96949  -7453147.43745  23716011.987    23716026.109
       212.000         150.000
  24248081.171    -7909734.45949  -6138819.38245  24248080.133    24248093.589
       209.000         144.000
  20405724.676   -14625136.84849 -11367826.66148  20405723.931    20405731.895
       244.000         219.000
  19963869.246   -18499014.12649 -14395524.04348  19963868.851    19963876.395
       247.000         218.000
  24303697.458    -2849457.56149  -2005609.18345  24303697.151    24303708.883
       209.000         147.000
  24383498.444    12302374.97249   9587075.32945  24383500.914    24383513.345
       209.000         147.000
 00  1  6 22 34 30.0000000  0  9G 2G26G27G 4G 9G 7G 8G11G13
  21222040.610    -3013940.37949  -2207678.22548  21222040.117    21222048.403
       244.000         213.000
  22627483.899   -10485185.96049  -8154665.25746  22627484.309    22627493.536
       229.000         182.000
  22088477.648     7570855.31649   5907057.44846  22088477.735    22088487.806
       227.000         181.000
  23696086.363    -9702676.30849  -7534741.99745  23696085.951    23696098.617
       213.000         151.000
  24229091.546    -8009524.50349  -6216577.66745  24229091.309    24229103.520
       206.000         144.000
  20405816.340   -14624654.90949 -11367451.10648  20405815.848    20405823.755
       244.000         218.000
  19958453.710   -18527472.96849 -14417699.74448  19958453.280    19958460.818
       245.000         218.000
  24313711.344    -2796833.88549  -1964603.76845  24313710.788    24313722.639
       208.000         145.000
  24402779.741    12403698.00749   9666028.03445  24402779.727    24402794.591
       208.000         145.000
 00  1  6 22 35  0.0000000  0  9G 2G26G27G 4G 9G 7G 8G11G13
  21224331.511    -3001901.71149  -2198297.43347  21224330.861    21224339.164
       244.000         212.000
  22632437.424   -10459155.23149  -8134381.61846  22632437.719    22632447.125
       229.000         182.000
  22105394.457     7659753.26349   5976328.46946  22105394.124    22105404.572
       227.000         181.000
  23676160.262    -9807387.46549  -7616334.86145  23676159.466    23676173.179
       213.000         151.000
  24210118.809    -8109225.99749  -6294266.95245  24210118.823    24210131.393
       204.000         144.000
  20405990.695   -14623738.75949 -11366737.20448  20405990.207    20405998.045
       245.000         218.000
  19953132.602   -18555435.47949 -14439488.69148  19953132.144    19953139.627
       246.000         218.000
  24323813.120    -2743748.91349  -1923238.90145  24323813.614    24323823.279
       200.000         144.000
  24422056.263    12504995.22649   9744960.61145  24422058.001    24422070.921
       208.000         145.000
 00  1  6 22 35 30.0000000  0  9G 2G26G27G 4G 9G 7G 8G11G13
  21226645.859    -2989739.67149  -2188820.50747  21226645.229    21226653.537
       244.000         212.000
  22637484.632   -10432631.66649  -8113713.94646  22637484.725    22637494.369
       229.000         182.000
  22122377.106     7748997.39149   6045869.23946  22122377.067    22122387.201
       227.000         180.000
  23656238.146    -9912077.33749  -7697911.14545  23656237.178    23656251.121
       213.000         151.000
  24191163.709    -8208835.11649  -6371884.26645  24191163.396    24191175.223
       205.000         144.000
  20406246.206   -14622396.07049 -11365690.93348  20406245.540    20406253.483
       244.000         218.000
  19947909.295   -18582884.24349 -14460877.31748  19947908.830    19947916.387
       245.000         218.000
  24334004.973    -2690190.80149  -1881505.37145  24334005.179    24334015.663
       210.000         145.000
  24441327.952    12606267.22049   9823873.52745  24441330.489    24441342.856
       206.000         143.000
 00  1  6 22 36  0.0000000  0  9G 2G26G27G 4G 9G 7G 8G11G13
  21228984.536    -2977449.78749  -2179243.96547  21228983.940    21228992.005
       244.000         212.000
  22642626.660   -10405610.40049  -8092658.46246  22642627.395    22642636.352
       228.000         182.000
  22139424.707     7838582.55649   6115675.75146  22139424.675    22139434.888
       227.000         180.000
  23636321.345   -10016739.46749  -7779465.83045  23636320.376    23636333.889
       213.000         151.000
  24172223.544    -8308365.05349  -6449439.85945  24172221.759    24172236.212
       202.000         144.000
  20406582.983   -14620626.16549 -11364311.76448  20406582.327    20406590.299
       244.000         218.000
  19942782.294   -18609826.65049 -14481871.37848  19942781.779    19942789.237
       245.000         218.000
  24344284.552    -2636172.02849  -1839412.84145  24344283.863    24344296.079
       205.000         146.000
  24460595.333    12707517.11849   9902769.22545  24460595.722    24460610.603
       205.000         142.000
 00  1  6 22 36 30.0000000  0  9G 2G26G27G 4G 9G 7G 8G11G13
  21231350.463    -2965016.68649  -2169555.82547  21231349.812    21231358.063
       244.000         212.000
  22647863.442   -10378091.08449  -8071214.88346  22647863.900    22647872.879
       228.000         182.000
  22156535.228     7928498.09449   6185739.69946  22156535.450    22156544.857
       227.000         180.000
  23616408.621   -10121380.58449  -7861004.14045  23616408.551    23616421.203
       216.000         153.000
  24153297.777    -8407818.92949  -6526936.18545  24153296.881    24153309.092
       200.000         144.000
  20406999.409   -14618437.69549 -11362606.44048  20406998.769    20407006.795
       244.000         218.000
  19937753.077   -18636255.24949 -14502465.07148  19937752.551    19937760.123
       245.000         218.000
  24354652.214    -2581689.81449  -1796959.22445  24354653.414    24354662.704
       210.000         145.000
  24479855.768    12808729.90149   9981636.00645  24479857.148    24479871.193
       209.000         142.000
 00  1  6 22 37  0.0000000  0  9G 2G26G27G 4G 9G 7G 8G11G13
  21233744.375    -2952436.59449  -2159753.15347  21233743.715    21233751.970
       244.000         212.000
  22653193.509   -10350081.66249  -8049389.40646  22653193.700    22653203.057
       228.000         182.000
  22173709.126     8018747.10349   6256063.49146  22173709.091    22173719.335
       226.000         179.000
  23596501.236   -10225993.64849  -7942520.57945  23596501.042    23596514.117
       217.000         154.000
  24134387.387    -8507192.26349  -6604369.73245  24134386.182    24134401.025
       201.000         144.000
  20407495.898   -14615828.53249 -11360573.30448  20407495.495    20407503.371
       244.000         218.000
  19932823.420   -18662160.67849 -14522651.09648  19932822.824    19932830.419
       245.000         218.000
  24365107.133    -2526749.96149  -1754148.99445  24365107.387    24365118.027
       211.000         145.000
  24499107.309    12909895.18449  10060465.76045  24499108.530    24499121.672
       207.000         140.000
 00  1  6 22 37 30.0000000  0  9G 2G26G27G 4G 9G 7G 8G11G13
  21236173.699    -2939670.27749  -2149805.36947  21236173.293    21236181.489
       244.000         212.000
  22658616.559   -10321583.45149  -8027183.06246  22658616.886    22658626.059
       227.000         181.000
  22190945.109     8109322.29049   6326641.45446  22190945.328    22190955.033
       227.000         179.000
  23576601.222   -10330567.84449  -8024006.72445  23576600.609    23576614.254
       216.000         155.000
  24115493.934    -8606476.68849  -6681734.01645  24115492.962    24115505.848
       205.000         146.000
  20408072.235   -14612799.98349 -11358213.37348  20408071.636    20408079.682
       244.000         218.000
  19927991.051   -18687554.98149 -14542438.84648  19927990.559    19927998.020
       245.000         218.000
  24375644.845    -2471374.71349  -1710999.50445  24375644.283    24375655.372
       209.000         144.000
  24518349.794    13011013.40149  10139258.82045  24518350.409    24518364.410
       207.000         138.000
 00  1  6 22 38  0.0000000  0  9G 2G26G27G 4G 9G 7G 8G11G13
  21238642.804    -2926695.13149  -2139694.86347  21238642.324    21238650.614
       244.000         212.000
  22664132.524   -10292596.89449  -8004596.18146  22664133.247    22664141.592
       228.000         181.000
  22208240.391     8200209.15649   6397462.29146  22208240.145    22208250.340
       227.000         179.000
  23556707.082   -10435110.97549  -8105468.65145  23556707.221    23556719.690
       215.000         155.000
  24096620.293    -8705657.34349  -6759017.42945  24096619.797    24096631.965
       205.000         148.000
  20408730.353   -14609341.48949 -11355518.41948  20408729.770    20408737.773
       244.000         218.000
  19923256.028   -18712437.60049 -14561827.88148  19923255.457    19923262.889
       245.000         218.000
  24386261.920    -2415582.32749  -1667524.96845  24386261.223    24386272.164
       208.000         144.000
  24537581.283    13112074.14249  10218007.10245  24537582.725    24537596.031
       208.000         139.000
 00  1  6 22 38 30.0000000  0  9G 2G26G27G 4G 9G 7G 8G11G13
  21241149.766    -2913520.98849  -2129429.29847  21241149.398    21241157.536
       244.000         212.000
  22669741.340   -10263122.58449  -7981629.22846  22669741.674    22669751.203
       228.000         181.000
  22225596.613     8291416.54349   6468532.87046  22225596.869    22225607.034
       226.000         178.000
  23536821.932   -10539607.49449  -8186894.22945  23536822.077    23536834.843
       216.000         155.000
  24077770.163    -8804714.70449  -6836204.77645  24077769.537    24077782.373
       208.000         150.000
  20409470.811   -14605450.19649 -11352486.22648  20409470.228    20409478.129
       244.000         218.000
  19918621.753   -18736790.53449 -14580804.17848  19918621.355    19918628.823
       245.000         218.000
  24396958.925    -2359369.08849  -1623722.51045  24396958.507    24396969.991
       212.000         143.000
  24556800.673    13213071.98249  10296706.37645  24556801.310    24556816.081
       209.000         139.000
 00  1  6 22 39  0.0000000  0  9G 2G26G27G 4G 9G 7G 8G11G13
  21243691.278    -2900165.26649  -2119022.24847  21243690.859    21243698.982
       244.000         212.000
  22675443.332   -10233158.53449  -7958280.66546  22675443.967    22675452.524
       228.000         181.000
  22243018.097     8382966.66849   6539870.52546  22243017.899    22243029.048
       226.000         178.000
  23516948.939   -10644039.82349  -8268269.79745  23516948.445    23516961.424
       216.000         155.000
  24058946.895    -8903631.54549  -6913282.61045  24058945.988    24058958.563
       209.000         152.000
  20410293.117   -14601128.65149 -11349118.76648  20410292.558    20410300.366
       244.000         218.000
  19914088.219   -18760614.32949 -14599368.15648  19914087.654    19914095.311
       245.000         218.000
  24407734.351    -2302744.14749  -1579599.22745  24407732.658    24407745.344
       209.000         143.000
  24576009.775    13314016.13249  10375363.80745  24576009.553    24576024.242
       209.000         138.000
 00  1  6 22 39 30.0000000  0  9G 2G26G27G 4G 9G 7G 8G11G13
  21246264.804    -2886641.30449  -2108484.10147  21246264.217    21246272.404
       244.000         212.000
  22681237.671   -10202709.35849  -7934554.08546  22681237.966    22681247.375
       228.000         181.000
  22260505.658     8474864.12449   6611478.82446  22260506.202    22260515.556
       227.000         178.000
  23497090.203   -10748396.49449  -8349586.39545  23497089.264    23497102.362
       214.000         154.000
  24040150.672    -9002405.63949  -6990249.20845  24040150.230    24040162.152
       212.000         153.000
  20411195.151   -14596388.53949 -11345425.15248  20411194.724    20411202.533
       244.000         218.000
  19909653.849   -18783917.02149 -14617526.08148  19909653.364    19909660.819
       245.000         218.000
  24418586.013    -2245717.57549  -1535162.99345  24418585.085    24418596.167
       205.000         142.000
  24595209.708    13414910.83649  10453982.70545  24595211.619    24595225.624
       212.000         140.000
 00  1  6 22 40  0.0000000  0  9G 2G26G27G 4G 9G 7G 8G11G13
  21248862.392    -2872990.98549  -2097847.49447  21248862.069    21248870.135
       244.000         212.000
  22687123.805   -10171777.70449  -7910451.54246  22687124.511    22687133.316
       228.000         181.000
  22278061.496     8567120.16949   6683366.54646  22278061.299    22278071.633
       226.000         178.000
  23477245.923   -10852677.50649  -8430844.03445  23477244.982    23477258.740
       214.000         154.000
  24021381.432    -9101038.07749  -7067105.43745  24021381.334    24021392.790
       215.000         155.000
  20412178.100   -14591223.14949 -11341400.15648  20412177.653    20412185.522
       244.000         218.000
  19905318.529   -18806699.20649 -14635278.41548  19905317.885    19905325.534
       245.000         218.000
  24429518.474    -2188267.07849  -1490396.43945  24429519.086    24429528.959
       211.000         142.000
  24614398.954    13515749.36249  10532557.82045  24614399.955    24614414.184
       211.000         140.000
 00  1  6 22 40 30.0000000  0  9G 2G26G27G 4G 9G 7G 8G11G13
  21251480.845    -2859231.04549  -2087125.46947  21251480.186    21251488.507
       244.000         212.000
  22693100.706   -10140369.24549  -7885977.46746  22693101.023    22693110.169
       227.000         181.000
  22295687.977     8659747.51749   6755543.61146  22295688.346    22295698.167
       226.000         177.000
  23457417.288   -10956876.67549  -8512037.89845  23457417.128    23457429.276
       216.000         155.000
  24002637.317    -9199538.65349  -7143858.91245  24002637.110    24002648.747
       215.000         156.000
  20413238.167   -14585652.44249 -11337059.32448  20413237.540    20413245.389
       244.000         218.000
  19901079.992   -18828972.81149 -14652634.45448  19901079.599    19901086.876
       245.000         218.000
  24440531.962    -2130391.39949  -1445298.57045  24440532.172    24440542.938
       206.000         142.000
  24633577.600    13616533.15149  10611090.23745  24633578.578    24633593.638
       213.000         139.000
 00  1  6 22 41  0.0000000  0  9G 2G26G27G 4G 9G 7G 8G11G13
  21254122.344    -2845349.89349  -2076308.99547  21254121.838    21254129.964
       244.000         212.000
  22699165.202   -10108499.93649  -7861144.28346  22699165.735    22699175.108
       227.000         181.000
  22313382.214     8752730.79749   6827998.01346  22313382.067    22313392.379
       225.000         177.000
  23437603.210   -11060999.43649  -8593172.23145  23437602.855    23437615.798
       216.000         156.000
  23983914.721    -9297926.32849  -7220524.41345  23983914.172    23983925.978
       216.000         156.000
  20414372.926   -14579689.07849 -11332412.52948  20414372.164    20414379.892
       244.000         218.000
  19896934.229   -18850758.80949 -14669610.54148  19896933.769    19896941.205
       245.000         219.000
  24451626.083    -2072091.26649  -1399869.93245  24451625.662    24451636.903
       210.000         141.000
  24652744.627    13717254.93949  10689574.35645  24652746.019    24652760.953
       214.000         139.000
 00  1  6 22 41 30.0000000  0  9G 2G26G27G 4G 9G 7G 8G11G13
  21256790.030    -2831331.00349  -2065385.19647  21256789.481    21256797.616
       244.000         212.000
  22705314.787   -10076183.81449  -7835962.93246  22705315.137    22705324.560
       227.000         180.000
  22331138.378     8846039.55349   6900706.03346  22331138.085    22331148.512
       224.000         176.000
  23417802.437   -11165052.33949  -8674252.12545  23417801.413    23417814.948
       216.000         156.000
  23965208.714    -9396226.23649  -7297121.52545  23965208.082    23965219.884
       215.000         156.000
  20415583.331   -14573328.15749 -11327455.94748  20415582.756    20415590.599
       244.000         218.000
  19892881.047   -18872058.39949 -14686207.60648  19892880.605    19892888.097
       245.000         218.000
  24462801.187    -2013365.37449  -1354109.53845  24462801.385    24462811.469
       211.000         141.000
  24671897.513    13817902.31849  10768000.49245  24671899.100    24671913.363
       213.000         138.000
 00  1  6 22 42  0.0000000  0  9G 2G26G27G 4G 9G 7G 8G11G13
  21259485.610    -2817165.76849  -2054347.36147  21259485.035    21259493.017
       244.000         212.000
  22711550.353   -10043415.96249  -7810429.58446  22711551.030    22711560.512
       226.000         180.000
  22348954.487     8939663.71449   6973659.82946  22348954.900    22348964.949
       224.000         175.000
  23398012.129   -11269050.17549  -8755289.12345  23398011.634    23398023.561
       216.000         155.000
  23946520.537    -9494432.30149  -7373645.50445  23946520.009    23946530.945
       215.000         155.000
  20416871.346   -14566559.51549 -11322181.66248  20416870.904    20416878.654
       244.000         218.000
  19888921.846   -18892864.34249 -14702420.01348  19888921.396    19888928.719
       245.000         219.000
  24474060.319    -1954199.02549  -1308005.93245  24474060.271    24474070.237
       213.000         141.000
  24691035.368    13918471.57849  10846365.75945  24691036.531    24691051.139
       214.000         138.000
 00  1  6 22 42 30.0000000  0  9G 2G26G27G 4G 9G 7G 8G11G13
  21262213.219    -2802832.05249  -2043178.24547  21262212.726    21262220.879
       244.000         212.000
  22717871.583   -10010197.80549  -7784545.35246  22717871.915    22717881.295
       227.000         179.000
  22366828.295     9033591.01449   7046849.83246  22366828.077    22366838.800
       224.000         175.000
  23378233.095   -11372988.72249  -8836279.91745  23378232.287    23378245.414
       216.000         155.000
  23927851.334    -9592538.50949  -7450091.68745  23927850.674    23927862.496
       215.000         153.000
  20418236.416   -14559386.16149 -11316592.02248  20418235.979    20418243.704
       244.000         218.000
  19885057.189   -18913173.19449 -14718245.07548  19885056.622    19885064.217
       245.000         219.000
  24485401.857    -1894599.10949  -1261564.47245  24485401.539    24485412.612
       212.000         142.000
  24710158.627    14018963.13549  10924670.43145  24710160.802    24710174.493
       215.000         139.000
 00  1  6 22 43  0.0000000  0  9G 2G26G27G 4G 9G 7G 8G11G13
  21264973.727    -2788325.43649  -2031874.39947  21264973.275    21264981.445
       244.000         212.000
  22724278.485    -9976529.46749  -7758310.33646  22724279.199    22724288.650
       227.000         179.000
  22384757.196     9127807.56449   7120265.22446  22384757.015    22384767.476
       224.000         175.000
  23358465.486   -11476866.59949  -8917223.46045  23358465.231    23358476.969
       216.000         156.000
  23909202.833    -9690536.46949  -7526453.52245  23909201.994    23909212.989
       214.000         151.000
  20419678.876   -14551806.06949 -11310685.44048  20419678.281    20419686.038
       244.000         218.000
  19881290.295   -18932968.19749 -14733669.73948  19881289.909    19881297.289
       245.000         219.000
  24496826.489    -1834561.84749  -1214782.20345  24496826.870    24496838.375
       215.000         141.000
  24729266.511    14119373.17549  11002911.61245  24729266.245    24729282.276
       216.000         139.000
 00  1  6 22 43 30.0000000  0  9G 2G26G27G 4G 9G 7G 8G11G13
  21267764.673    -2773658.96449  -2020445.99447  21267764.283    21267772.353
       244.000         211.000
  22730775.238    -9942389.00049  -7731707.42346  22730775.312    22730784.523
       227.000         180.000
  22402740.650     9222310.77549   7193903.99446  22402740.545    22402750.365
       224.000         175.000
  23338708.383   -11580689.60049  -8998124.24145  23338708.099    23338720.924
       218.000         158.000
  23890578.326    -9788408.08049  -7602716.88645  23890577.507    23890588.990
       214.000         150.000
  20421197.636   -14543824.81049 -11304466.26248  20421197.179    20421204.992
       244.000         218.000
  19877625.651   -18952225.91149 -14748675.73348  19877625.156    19877632.671
       245.000         219.000
  24508334.650    -1774086.13049  -1167658.27645  24508335.063    24508344.827
       215.000         141.000
  24748359.281    14219703.94849  11081091.00945  24748362.545    24748375.594
       214.000         138.000
 00  1  6 22 44  0.0000000  0  9G 2G26G27G 4G 9G 7G 8G11G13
  21270582.434    -2758851.56949  -2008907.77847  21270581.793    21270589.939
       244.000         211.000
  22737362.549    -9907772.33449  -7704733.44846  22737363.221    22737372.145
       226.000         180.000
  22420778.760     9317101.38449   7267766.69646  22420778.938    22420789.037
       223.000         174.000
  23318964.564   -11684443.08349  -9078970.86545  23318964.247    23318976.831
       218.000         159.000
  23871981.878    -9886132.10849  -7678865.28245  23871981.411    23871991.923
       211.000         148.000
  20422789.446   -14535459.86249 -11297948.10448  20422788.957    20422796.666
       244.000         218.000
  19874064.910   -18970937.69349 -14763256.32648  19874064.521    19874071.877
       245.000         219.000
  24519925.393    -1713176.40949  -1120196.16645  24519925.669    24519936.688
       214.000         140.000
  24767437.593    14319958.97249  11159211.37545  24767437.860    24767452.823
       215.000         138.000
 00  1  6 22 44 30.0000000  0  9G 2G26G27G 4G 9G 7G 8G11G13
  21273428.023    -2743897.89549  -1997255.57747  21273427.333    21273435.674
       244.000         211.000
  22744037.845    -9872693.74649  -7677399.53446  22744038.340    22744047.577
       228.000         180.000
  22438872.930     9412186.47149   7341858.87646  22438873.151    22438883.450
       224.000         174.000
  23299236.174   -11788115.38249  -9159754.23245  23299236.404    23299247.256
       218.000         160.000
  23853410.965    -9983721.55149  -7754908.78945  23853410.917    23853422.053
       211.000         148.000
  20424451.654   -14526724.86149 -11291141.59348  20424451.097    20424458.975
       244.000         218.000
  19870609.565   -18989095.77149 -14777405.46148  19870609.054    19870616.548
       245.000         219.000
  24531594.610    -1651855.14149  -1072413.38945  24531596.649    24531603.388
       215.000         140.000
  24786499.608    14420129.06749  11237265.55445  24786499.923    24786516.042
       213.000         137.000
 00  1  6 22 45  0.0000000  0  9G 2G26G27G 4G 9G 7G 8G11G13
  21276301.530    -2728797.45749  -1985489.01447  21276300.873    21276309.256
       243.000         211.000
  22750801.591    -9837150.15149  -7649703.26746  22750802.107    22750810.689
       227.000         180.000
  22457025.737     9507579.81749   7416191.25346  22457026.064    22457036.291
       223.000         174.000
  23279521.420   -11891716.37449  -9240482.05245  23279521.123    23279532.935
       220.000         161.000
  23834864.727   -10081181.43449  -7830851.36345  23834864.197    23834874.763
       210.000         147.000
  20426185.125   -14517615.19949 -11284043.13748  20426184.647    20426192.471
       244.000         218.000
  19867260.792   -19006693.56249 -14791118.00848  19867260.102    19867267.631
       245.000         219.000
  24543340.248    -1590132.18449  -1024317.59445  24543339.849    24543351.525
       214.000         140.000
  24805545.689    14520215.47949  11315254.48345  24805548.826    24805562.744
       213.000         137.000
 00  1  6 22 45 30.0000000  0  9G 2G26G27G 4G 9G 7G 8G11G13
  21279203.818    -2713545.87849  -1973604.67547  21279203.464    21279211.508
       243.000         211.000
  22757653.455    -9801143.61349  -7621646.26546  22757653.264    22757662.678
       227.000         180.000
  22475238.946     9603290.25249   7490770.71346  22475238.576    22475249.984
       222.000         174.000
  23259821.849   -11995237.30749  -9321147.50445  23259821.760    23259833.104
       219.000         161.000
  23816343.004   -10178512.25349  -7906693.37245  23816342.599    23816354.424
       209.000         147.000
  20427994.644   -14508106.17049 -11276633.48848  20427994.134    20428001.914
       244.000         218.000
  19864018.131   -19023733.90049 -14804396.17948  19864017.787    19864025.157
       245.000         219.000
  24555161.956    -1528008.83549   -975909.79845  24555162.105    24555172.847
       214.000         140.000
  24824577.261    14620225.89249  11393184.17945  24824580.071    24824594.509
       206.000         135.000
 00  1  6 22 46  0.0000000  0  9G 2G26G27G 4G 9G 7G 8G11G13
  21282138.179    -2698125.69849  -1961588.96047  21282137.773    21282146.008
       244.000         211.000
  22764590.746    -9764688.29349  -7593239.56846  22764591.841    22764600.789
       227.000         180.000
  22493515.708     9699335.10749   7565610.75046  22493515.213    22493526.389
       222.000         174.000
  23240139.471   -12098668.05749  -9401742.68345  23240138.767    23240151.089
       219.000         161.000
  23797848.032   -10275702.75949  -7982426.04345  23797846.484    23797859.484
       212.000         149.000
  20429885.284   -14498170.48849 -11268891.38248  20429884.805    20429892.569
       244.000         218.000
  19860878.142   -19040234.58149 -14817253.83848  19860877.371    19860884.815
       245.000         219.000
  24567057.467    -1465496.82749   -927199.16445  24567058.170    24567067.929
       213.000         140.000
  24843593.357    14720154.86449  11471050.41745  24843594.977    24843610.279
       208.000         135.000
 00  1  6 22 46 30.0000000  0  8G 2G26G27G 4G 9G 7G 8G11
  21285109.679    -2682510.34149  -1949421.15747  21285109.136    21285117.300
       243.000         211.000
  22771614.991    -9727775.99549  -7564476.78246  22771615.289    22771625.233
       227.000         180.000
  22511859.964     9795734.56749   7640727.10746  22511859.874    22511870.796
       223.000         174.000
  23220473.272   -12202013.38749  -9482271.31645  23220472.951    23220484.842
       219.000         162.000
  23779381.464   -10372745.15449  -8058043.31045  23779380.827    23779392.221
       213.000         151.000
  20431862.540   -14487779.94149 -11260794.83448  20431861.906    20431869.781
       244.000         218.000
  19857838.689   -19056206.84449 -14829699.74248  19857838.285    19857845.559
       245.000         219.000
  24579027.842    -1402591.95049   -878182.40045  24579027.953    24579038.891
       214.000         140.000
 00  1  6 22 47  0.0000000  0  8G 2G26G27G 4G 9G 7G 8G11
  21288115.565    -2666714.01049  -1937112.33347  21288115.095    21288123.521
       243.000         211.000
  22778726.785    -9690403.26149  -7535355.22046  22778726.666    22778736.696
       227.000         179.000
  22530270.031     9892479.61749   7716112.75046  22530269.979    22530280.760
       222.000         173.000
  23200824.456   -12305267.85549  -9562729.13645  23200824.044    23200836.375
       220.000         162.000
  23760946.361   -10469622.45949  -8133531.93345  23760945.810    23760957.825
       214.000         153.000
  20433927.180   -14476930.21649 -11252340.48848  20433926.697    20433934.399
       244.000         218.000
  19854896.023   -19071670.49349 -14841749.32448  19854895.642    19854902.951
       245.000         219.000
  24591075.492    -1339281.20349   -828849.38645  24591076.522    24591085.563
       212.000         141.000
 00  1  6 22 47 30.0000000  0  8G 2G26G27G 4G 9G 7G 8G11
  21291156.372    -2650734.49749  -1924660.76847  21291155.979    21291163.912
       243.000         211.000
  22785922.208    -9652591.07149  -7505891.21946  22785922.164    22785932.295
       227.000         179.000
  22548742.136     9989550.78649   7791752.51946  22548741.691    22548753.428
       223.000         173.000
  23181197.012   -12408410.46049  -9643099.79446  23181197.471    23181208.185
       222.000         164.000
  23742543.338   -10566330.52149  -8208888.69045  23742542.810    23742554.046
       215.000         155.000
  20436077.746   -14465628.75749 -11243534.13648  20436077.078    20436084.932
       244.000         218.000
  19852047.833   -19086637.87649 -14853412.20448  19852047.493    19852054.790
       246.000         219.000
  24603201.333    -1275560.08949   -779196.58245  24603200.369    24603210.891
       212.000         142.000
 00  1  6 22 48  0.0000000  0  8G 2G26G27G 4G 9G 7G 8G11
  21294231.629    -2634573.92249  -1912068.10947  21294231.250    21294239.450
       243.000         211.000
  22793199.337    -9614349.75049  -7476092.84146  22793200.406    22793209.211
       227.000         179.000
  22567275.080    10086941.38649   7867641.18846  22567275.340    22567285.891
       222.000         173.000
  23161588.165   -12511454.89749  -9723393.96146  23161587.686    23161599.962
       221.000         164.000
  23724171.893   -10662872.38049  -8284115.93045  23724171.378    23724182.647
       216.000         157.000
  20438308.649   -14453905.22249 -11234398.89148  20438308.164    20438315.790
       244.000         218.000
  19849295.042   -19101103.72049 -14864684.27148  19849294.529    19849301.934
       245.000         219.000
  24615404.000    -1211435.63249   -729229.46345  24615403.301    24615414.855
       211.000         142.000
 00  1  6 22 48 30.0000000  0  8G 2G26G27G 4G 9G 7G 8G11
  21297339.322    -2618243.14049  -1899342.82247  21297338.869    21297347.013
       244.000         211.000
  22800558.598    -9575676.84849  -7445958.15946  22800558.991    22800569.381
       226.000         179.000
  22585866.344    10184638.85949   7943768.97846  22585866.490    22585877.255
       222.000         172.000
  23141998.868   -12614396.38349  -9803607.89946  23141998.977    23142010.185
       222.000         165.000
  23705828.535   -10759267.05049  -8359228.50345  23705827.767    23705839.059
       216.000         158.000
  20440614.750   -14441786.60249 -11224955.78948  20440614.047    20440621.890
       244.000         218.000
  19846641.540   -19115047.97149 -14875549.90248  19846641.156    19846648.479
       246.000         219.000
  24627686.351    -1146891.48649   -678935.34845  24627686.517    24627697.995
       211.000         142.000
 00  1  6 22 49  0.0000000  0  8G 2G26G27G 4G 9G 7G 8G11
  21300476.660    -2601756.28349  -1886495.91747  21300476.137    21300484.475
       243.000         211.000
  22807998.937    -9536577.69549  -7415491.33446  22807998.731    22808008.931
       227.000         178.000
  22604511.098    10282616.95149   8020115.43046  22604511.093    22604521.176
       222.000         172.000
  23122430.990   -12717225.56849  -9883734.32846  23122430.504    23122442.569
       222.000         165.000
  23687511.589   -10855522.78449  -8434232.81845  23687511.587    23687522.354
       217.000         159.000
  20442992.313   -14429292.15049 -11215219.82848  20442991.821    20442999.531
       244.000         218.000
  19844091.009   -19128451.06049 -14885993.84948  19844090.612    19844098.104
       246.000         219.000
  24640048.551    -1081928.46649   -628314.82045  24640047.410    24640059.097
       210.000         142.000
 00  1  6 22 49 30.0000000  0  8G 2G26G27G 4G 9G 7G 8G11
  21303646.769    -2585097.37149  -1873514.94147  21303646.083    21303654.501
       243.000         210.000
  22815520.724    -9497050.51049  -7384690.97646  22815521.303    22815530.594
       227.000         178.000
  22623208.454    10380871.91449   8096677.62446  22623208.369    22623219.348
       221.000         172.000
  23102883.995   -12819944.87649  -9963775.14446  23102883.616    23102896.194
       221.000         165.000
  23669220.818   -10951640.75549  -8509129.78045  23669220.739    23669231.530
       216.000         161.000
  20445440.627   -14416426.26349 -11205194.44048  20445440.106    20445447.732
       243.000         218.000
  19841647.708   -19141290.71949 -14895998.75748  19841647.303    19841654.466
       245.000         219.000
  24652488.589    -1016555.35149   -577374.74145  24652486.099    24652498.369
       207.000         143.000
 00  1  6 22 50  0.0000000  0  8G 2G26G27G 4G 9G 7G 8G11
  21306848.470    -2568272.21149  -1860404.41547  21306847.836    21306856.367
       243.000         210.000
  22823127.570    -9457076.39949  -7353542.36646  22823127.997    22823137.499
       226.000         178.000
  22641962.184    10479422.97749   8173470.53546  22641962.516    22641973.339
       222.000         171.000
  23083357.813   -12922554.77149 -10043730.70146  23083357.294    23083368.733
       219.000         165.000
  23650956.207   -11047620.89249  -8583919.33745  23650956.034    23650967.214
       214.000         161.000
  20447958.021   -14403197.21749 -11194886.07348  20447957.374    20447965.100
       244.000         218.000
  19839314.758   -19153550.31849 -14905551.67248  19839314.259    19839321.689
       245.000         219.000
  24665005.849     -950776.67749   -526118.63145  24665004.503    24665017.605
       211.000         143.000
 00  1  6 22 50 30.0000000  0  8G 2G26G27G 4G 9G 7G 8G11
  21310081.372    -2551282.88549  -1847165.97047  21310080.888    21310088.914
       243.000         210.000
  22830820.508    -9416649.92949  -7322041.26846  22830820.672    22830830.410
       226.000         178.000
  22660771.035    10578263.68049   8250489.15746  22660769.905    22660782.024
       221.000         171.000
  23063856.500   -13025034.01749 -10123584.45246  23063856.514    23063867.729
       220.000         164.000
  23632719.818   -11143452.59949  -8658593.23545  23632719.479    23632730.809
       214.000         160.000
  20450546.498   -14389594.21849 -11184286.31448  20450545.692    20450553.556
       244.000         218.000
  19837090.258   -19165240.09749 -14914660.57248  19837089.798    19837096.983
       246.000         219.000
  24677600.039     -884592.72749   -474546.74945  24677599.024    24677610.532
       205.000         142.000
 00  1  6 22 51  0.0000000  0  8G 2G26G27G 4G 9G 7G 8G11
  21313347.266    -2534120.70349  -1833792.83047  21313346.647    21313355.069
       243.000         210.000
  22838596.112    -9375789.33949  -7290201.89346  22838596.479    22838605.623
       227.000         178.000
  22679635.454    10677396.11449   8327735.08546  22679635.095    22679645.835
       221.000         170.000
  23044380.251   -13127381.40449 -10203335.45246  23044380.258    23044391.350
       220.000         164.000
  23614513.573   -11239126.25849  -8733143.98245  23614513.233    23614524.517
       214.000         160.000
  20453207.576   -14375610.05249 -11173389.54548  20453206.890    20453214.684
       244.000         218.000
  19834972.063   -19176371.40749 -14923334.30448  19834971.675    19834978.995
       246.000         219.000
  24690267.904     -818023.01849   -422674.26645  24690267.653    24690278.990
       209.000         142.000
 00  1  6 22 51 30.0000000  0  8G 2G26G27G 4G 9G 7G 8G11
  21316647.534    -2516777.87149  -1820278.92647  21316646.942    21316655.235
       243.000         210.000
  22846452.707    -9334502.34949  -7258030.26346  22846452.270    22846462.627
       226.000         177.000
  22698559.525    10776842.44949   8405225.62646  22698560.064    22698569.771
       220.000         169.000
  23024929.568   -13229594.45849 -10282981.77346  23024929.753    23024940.449
       219.000         164.000
  23596337.705   -11334640.68149  -8807570.65445  23596337.086    23596348.419
       215.000         160.000
  20455940.644   -14361247.40049 -11162197.85548  20455940.067    20455947.996
       244.000         218.000
  19832958.655   -19186951.88549 -14931578.81748  19832957.999    19832965.602
       245.000         219.000
  24703007.874     -751074.10149   -370506.26745  24703007.933    24703018.091
       203.000         140.000
 00  1  6 22 52  0.0000000  0  7G 2G26G27G 4G 9G 7G 8
  21319980.279    -2499264.21649  -1806631.91147  21319979.975    21319987.873
       243.000         210.000
  22854390.410    -9292789.15149  -7225526.51946  22854390.235    22854400.066
       226.000         177.000
  22717542.275    10876597.39449   8482956.64546  22717542.173    22717552.668
       220.000         169.000
  23005504.791   -13331671.33149 -10362521.99146  23005504.431    23005516.000
       218.000         164.000
  23578191.899   -11429996.81749  -8881873.98845  23578191.728    23578202.812
       216.000         161.000
  20458745.655   -14346507.03449 -11150711.84248  20458745.255    20458752.983
       243.000         218.000
  19831048.253   -19196990.95449 -14939401.45348  19831047.781    19831055.059
       245.000         219.000
 00  1  6 22 52 30.0000000  0  7G 2G26G27G 4G 9G 7G 8
  21323343.871    -2481588.53049  -1792858.64447  21323343.407    21323351.454
       243.000         210.000
  22862405.088    -9250672.37149  -7192708.30546  22862405.516    22862414.970
       226.000         177.000
  22736576.746    10976624.23449   8560899.52546  22736576.715    22736587.305
       220.000         168.000
  22986103.861   -13433623.22149 -10441964.80646  22986103.692    22986115.146
       219.000         164.000
  23560076.149   -11525195.22249  -8956054.41845  23560075.839    23560086.295
       217.000         162.000
  20461624.026   -14331381.18349 -11138925.45448  20461623.593    20461631.353
       243.000         218.000
  19829236.565   -19206511.21049 -14946819.82248  19829236.135    19829243.430
       245.000         219.000
 00  1  6 22 53  0.0000000  0  7G 2G26G27G 4G 9G 7G 8
  21326741.983    -2463731.36749  -1778943.96347  21326741.344    21326749.469
       243.000         210.000
  22870496.720    -9208150.82449  -7159574.67046  22870497.724    22870506.684
       226.000         176.000
  22755664.471    11076930.50049   8639060.15346  22755664.082    22755675.615
       219.000         167.000
  22966725.762   -13535455.19349 -10521314.18546  22966725.377    22966736.799
       219.000         164.000
  23541993.337   -11620220.11149  -9030099.63845  23541993.347    23542003.973
       218.000         162.000
  20464576.103   -14315868.03549 -11126837.27548  20464575.529    20464583.324
       244.000         218.000
  19827526.206   -19215499.30249 -14953823.51648  19827525.820    19827533.052
       246.000         219.000
 00  1  6 22 53 30.0000000  0  7G 2G26G27G 4G 9G 7G 8
  21330172.875    -2445701.65649  -1764894.83047  21330172.379    21330180.579
       243.000         209.000
  22878667.620    -9165212.98349  -7126116.66846  22878667.548    22878677.610
       225.000         176.000
  22774802.077    11177499.10449   8717425.18946  22774802.442    22774813.167
       220.000         167.000
  22947370.349   -13637168.14749 -10600570.80946  22947370.266    22947380.874
       220.000         164.000
  23523944.073   -11715069.51649  -9104008.12045  23523943.473    23523954.836
       218.000         162.000
  20467602.231   -14299965.64349 -11114445.78848  20467601.574    20467609.417
       245.000         218.000
  19825918.100   -19223949.99449 -14960408.45548  19825917.613    19825924.937
       246.000         219.000
 00  1  6 22 54  0.0000000  0  7G 2G26G27G 4G 9G 7G 8
  21333635.802    -2427503.59049  -1750714.51547  21333635.252    21333643.529
       242.000         209.000
  22886918.750    -9121853.20449  -7092329.86146  22886918.976    22886928.556
       225.000         176.000
  22793987.728    11278320.03849   8795986.84146  22793987.631    22793998.953
       221.000         167.000
  22928039.721   -13738750.77949 -10679725.89346  22928039.559    22928050.645
       222.000         164.000
  23505930.044   -11809733.46649  -9177772.09446  23505929.244    23505940.816
       218.000         163.000
  20470704.429   -14283663.27249 -11101742.63548  20470703.947    20470711.633
       245.000         218.000
  19824412.296   -19231862.94649 -14966574.37848  19824411.815    19824419.193
       245.000         219.000
 00  1  6 22 54 30.0000000  0  7G 2G26G27G 4G 9G 7G 8
  21337131.859    -2409131.38449  -1736398.50347  21337131.311    21337139.606
       242.000         209.000
  22895247.720    -9078084.42749  -7058224.37746  22895247.390    22895257.518
       225.000         176.000
  22813223.358    11379402.90649   8874752.60446  22813223.394    22813234.493
       221.000         167.000
  22908736.790   -13840187.77949 -10758767.49946  22908736.282    22908747.129
       221.000         165.000
  23487951.591   -11904210.48449  -9251390.41646  23487951.769    23487961.886
       219.000         163.000
  20473882.259   -14266963.73349 -11088729.99948  20473881.747    20473889.458
       245.000         218.000
  19823010.541   -19239229.11949 -14972314.23948  19823009.986    19823017.459
       245.000         219.000
 00  1  6 22 55  0.0000000  0  7G 2G26G27G 4G 9G 7G 8
  21340660.531    -2390588.12949  -1721949.21147  21340659.959    21340668.338
       243.000         209.000
  22903654.492    -9033906.29849  -7023799.90546  22903655.100    22903664.827
       226.000         176.000
  22832512.039    11480764.76049   8953735.75646  22832512.850    22832522.675
       219.000         167.000
  22889464.510   -13941463.26949 -10837683.27246  22889463.494    22889474.298
       222.000         165.000
  23470006.885   -11998510.15649  -9324870.54346  23470006.253    23470016.816
       219.000         163.000
  20477130.077   -14249896.17649 -11075430.59548  20477129.278    20477137.159
       245.000         217.000
  19821716.596   -19246028.77249 -14977612.65748  19821716.111    19821723.388
       245.000         219.000
 00  1  6 22 55 30.0000000  0  7G 2G26G27G 4G 9G 7G 8
  21344219.137    -2371887.65049  -1707377.40647  21344218.735    21344227.027
       243.000         210.000
  22912141.789    -8989305.78649  -6989046.30946  22912142.074    22912151.919
       225.000         176.000
  22851855.466    11582414.53349   9032943.25046  22851855.670    22851866.902
       219.000         166.000
  22870229.014   -14042545.05549 -10916448.10146  22870228.720    22870240.383
       222.000         165.000
  23452095.715   -12092633.45249  -9398213.21446  23452094.943    23452105.946
       220.000         163.000
  20480449.566   -14232451.94549 -11061837.67848  20480449.060    20480456.657
       245.000         217.000
  19820533.510   -19252245.66349 -14982456.97748  19820532.981    19820540.446
       245.000         219.000
 00  1  6 22 56  0.0000000  0  7G 2G26G27G 4G 9G 7G 8
  21347807.685    -2353029.89249  -1692683.04647  21347807.281    21347815.383
       243.000         210.000
  22920708.294    -8944289.13249  -6953968.45646  22920709.063    22920718.459
       227.000         176.000
  22871256.229    11684365.66149   9112385.57646  22871256.019    22871267.060
       220.000         166.000
  22851033.069   -14143419.63049 -10995051.47946  22851032.739    22851043.218
       221.000         166.000
  23434221.492   -12186562.65249  -9471404.65946  23434220.747    23434231.061
       217.000         163.000
  20483839.961   -14214635.38749 -11047954.63948  20483839.473    20483847.203
       245.000         217.000
  19819463.047   -19257871.00549 -14986840.34948  19819462.572    19819470.006
       246.000         219.000
 00  1  6 22 56 30.0000000  0  7G 2G26G27G 4G 9G 7G 8
  21351428.435    -2334002.83949  -1677856.76947  21351428.024    21351436.289
       243.000         210.000
  22929354.136    -8898855.14749  -6918565.39546  22929354.598    22929364.338
       226.000         176.000
  22890713.651    11786614.49149   9192059.87546  22890713.299    22890724.750
       219.000         166.000
  22831875.694   -14244091.29949 -11073496.74846  22831875.851    22831886.210
       222.000         167.000
  23416388.033   -12280277.29549  -9544428.91345  23416387.682    23416398.059
       217.000         161.000
  20487300.365   -14196450.82449 -11033784.83648  20487299.738    20487307.564
       245.000         217.000
  19818508.411   -19262887.53249 -14990749.32248  19818508.002    19818515.250
       245.000         219.000
 00  1  6 22 57  0.0000000  0  7G 2G26G27G 4G 9G 7G 8
  21355082.002    -2314803.23449  -1662896.03947  21355081.445    21355089.845
       243.000         210.000
  22938081.707    -8852991.58549  -6882827.60446  22938081.766    22938091.081
       224.000         175.000
  22910223.973    11889141.38249   9271950.84846  22910224.122    22910234.602
       218.000         165.000
  22812753.290   -14344579.15049 -11151798.78846  22812753.080    22812764.181
       221.000         168.000
  23398597.412   -12373766.81049  -9617277.73845  23398596.559    23398607.924
       216.000         160.000
  20490832.349   -14177889.99149 -11019321.83748  20490831.622    20490839.479
       245.000         217.000
  19817667.980   -19267304.05449 -14994190.75848  19817667.564    19817674.976
       246.000         219.000
 00  1  6 22 57 30.0000000  0  7G 2G26G27G 4G 9G 7G 8
  21358770.007    -2295422.71049  -1647794.33047  21358769.671    21358777.790
       242.000         209.000
  22946890.093    -8806703.23149  -6846758.81546  22946889.669    22946900.477
       226.000         175.000
  22929783.195    11991925.82049   9352042.50346  22929782.912    22929794.989
       218.000         165.000
  22793660.042   -14444914.09549 -11229981.67446  22793659.868    22793670.601
       223.000         169.000
  23380850.103   -12467028.71749  -9689949.22745  23380849.025    23380859.541
       217.000         159.000
  20494438.815   -14158937.67449 -11004553.78248  20494438.066    20494445.879
       245.000         217.000
  19816937.017   -19271145.32349 -14997183.94348  19816936.700    19816943.942
       246.000         219.000
 00  1  6 22 58  0.0000000  0  7G 2G26G27G 4G 9G 7G 8
  21362493.832    -2275853.80749  -1632545.83747  21362493.154    21362501.565
       242.000         209.000
  22955774.403    -8760015.82149  -6810379.07846  22955774.708    22955784.275
       225.000         175.000
  22949387.204    12094945.61649   9432317.55546  22949386.880    22949398.158
       219.000         164.000
  22774588.736   -14545133.68649 -11308074.68146  22774588.720    22774599.331
       222.000         170.000
  23363142.330   -12560083.23049  -9762459.10145  23363142.083    23363152.072
       216.000         159.000
  20498116.134   -14139613.25849 -10989495.77848  20498115.560    20498123.348
       245.000         217.000
  19816310.174   -19274439.29549 -14999750.66448  19816309.594    19816317.140
       246.000         219.000
 00  1  6 22 58 30.0000000  0  7G 2G26G27G 4G 9G 7G 8
  21366258.423    -2256070.45149  -1617130.23447  21366257.738    21366266.186
       242.000         209.000
  22964737.313    -8712915.72849  -6773677.76346  22964737.453    22964747.007
       226.000         175.000
  22969038.639    12198214.38349   9512786.61646  22969038.875    22969050.370
       219.000         164.000
  22755539.884   -14645235.24549 -11386075.71946  22755539.848    22755551.035
       224.000         171.000
  23345473.657   -12652932.12649  -9834808.75845  23345473.155    23345483.421
       217.000         158.000
  20501867.277   -14119900.82249 -10974135.42048  20501866.623    20501874.655
       245.000         217.000
  19815789.345   -19277176.19349 -15001883.29948  19815788.705    19815796.317
       246.000         219.000
 00  1  6 22 59  0.0000000  0  7G 2G26G27G 4G 9G 7G 8
  21370062.701    -2236078.70049  -1601552.25147  21370062.284    21370070.344
       242.000         209.000
  22973778.313    -8665404.90249  -6736656.40046  22973778.714    22973788.057
       225.000         176.000
  22988740.829    12301749.28049   9593463.04546  22988740.756    22988752.338
       219.000         164.000
  22736515.065   -14745210.54649 -11463978.37846  22736514.239    22736525.808
       224.000         172.000
  23327839.942   -12745596.98849  -9907014.99845  23327839.483    23327850.476
       215.000         158.000
  20505692.329   -14099800.14549 -10958472.53248  20505691.765    20505699.520
       245.000         217.000
  19815372.205   -19279367.94549 -15003591.14548  19815371.814    19815379.017
       246.000         219.000
 00  1  6 22 59 30.0000000  0  7G 2G26G27G 4G 9G 7G 8
  21373905.365    -2215885.30449  -1585817.14047  21373904.934    21373913.106
       242.000         209.000
  22982893.455    -8617504.52649  -6699331.49346  22982894.024    22982904.045
       225.000         176.000
  23008496.380    12405564.63949   9674358.01146  23008496.000    23008507.495
       218.000         164.000
  22717520.206   -14845028.60749 -11541758.52846  22717520.588    22717531.311
       224.000         173.000
  23310239.184   -12838089.04949  -9979086.60145  23310238.368    23310249.795
       218.000         158.000
  20509588.568   -14079325.36649 -10942518.13548  20509588.108    20509595.849
       245.000         217.000
  19815059.221   -19281012.82849 -15004872.86348  19815058.770    19815065.866
       246.000         219.000
 00  1  6 23  0  0.0000000  0  7G 2G26G27G 4G 9G 7G 8
  21377783.969    -2195503.12149  -1569934.92247  21377783.468    21377791.676
       242.000         208.000
  22992080.951    -8569224.24449  -6661710.55246  22992081.403    22992091.305
       225.000         176.000
  23028306.593    12509667.20949   9755476.77646  23028306.915    23028317.700
       219.000         165.000
  22698559.770   -14944665.58449 -11619397.57146  22698559.045    22698570.329
       225.000         174.000
  23292670.967   -12930409.94649 -10051024.81645  23292671.159    23292681.577
       219.000         159.000
  20513552.935   -14058492.29249 -10926284.54948  20513552.413    20513560.108
       245.000         217.000
  19814851.606   -19282103.63849 -15005722.83048  19814851.194    19814858.427
       245.000         219.000
 00  1  6 23  0 30.0000000  0  7G 2G26G27G 4G 9G 7G 8
  21381696.044    -2174944.85749  -1553915.49747  21381695.550    21381703.795
       243.000         208.000
  23001340.591    -8520564.82349  -6623794.18346  23001340.553    23001351.122
       226.000         176.000
  23048170.622    12614052.89949   9836816.14446  23048171.373    23048180.537
       218.000         163.000
  22679636.848   -15044105.72049 -11696883.23246  22679635.965    22679647.930
       224.000         173.000
  23275137.740   -13022546.87149 -10122819.68245  23275137.588    23275147.537
       219.000         160.000
  20517584.346   -14037307.10249 -10909776.58848  20517583.872    20517591.444
       245.000         217.000
  19814748.972   -19282642.75649 -15006142.90748  19814748.485    19814755.666
       246.000         219.000
 00  1  6 23  1  0.0000000  0  7G 2G26G27G 4G 9G 7G 8
  21385640.958    -2154214.38649  -1537761.88847  21385640.399    21385648.653
       243.000         208.000
  23010671.185    -8471532.49349  -6585587.23546  23010672.013    23010681.355
       225.000         176.000
  23068084.992    12718703.11749   9918361.64246  23068085.297    23068096.350
       218.000         163.000
  22660753.160   -15143339.32449 -11774207.95546  22660753.177    22660763.629
       226.000         173.000
  23257640.453   -13114494.77749 -10194467.25745  23257640.530    23257650.951
       221.000         161.000
  20521680.379   -14015782.26849 -10893003.97048  20521679.697    20521687.604
       245.000         217.000
  19814748.807   -19282643.69249 -15006143.62248  19814748.485    19814755.917
       245.000         219.000
 00  1  6 23  1 30.0000000  0  7G 2G26G27G 4G 9G 7G 8
  21389616.973    -2133320.32249  -1521480.80547  21389616.726    21389624.993
       242.000         208.000
  23020071.169    -8422135.84549  -6547096.40846  23020071.316    23020081.304
       225.000         176.000
  23088043.327    12823584.29649  10000087.11445  23088042.841    23088053.947
       216.000         162.000
  22641906.110   -15242380.76249 -11851382.94446  22641906.604    22641916.696
       224.000         173.000
  23240181.359   -13206242.79949 -10265959.07646  23240180.348    23240190.949
       220.000         163.000
  20525839.145   -13993927.68049 -10875974.40248  20525838.688    20525846.500
       245.000         217.000
  19814850.561   -19282109.16149 -15005727.09348  19814850.205    19814857.635
       246.000         219.000
 00  1  6 23  2  0.0000000  0  7G 2G26G27G 4G 9G 7G 8
  21393623.344    -2112266.88149  -1505075.52747  21393622.823    21393631.156
       242.000         208.000
  23029541.756    -8372367.58549  -6508316.00446  23029541.940    23029552.022
       225.000         176.000
  23108043.783    12928687.22849  10081985.36945  23108044.004    23108055.022
       216.000         162.000
  22623091.663   -15341250.76949 -11928424.35146  22623091.720    22623102.056
       222.000         173.000
  23222762.885   -13297777.14449 -10337284.39246  23222762.286    23222772.877
       220.000         164.000
  20530060.897   -13971742.15849 -10858686.96448  20530060.305    20530068.089
       245.000         217.000
  19815054.423   -19281037.96649 -15004892.38248  19815054.004    19815061.371
       245.000         219.000
 00  1  6 23  2 30.0000000  0  7G 2G26G27G 4G 9G 7G 8
  21397660.904    -2091049.46949  -1488542.48047  21397660.308    21397668.846
       242.000         208.000
  23039082.076    -8322233.00549  -6469250.17046  23039082.415    23039092.690
       225.000         176.000
  23128083.342    13033995.70749  10164043.79545  23128083.901    23128094.985
       216.000         161.000
  22604309.341   -15439951.88049 -12005334.14246  22604308.403    22604319.766
       223.000         172.000
  23205385.507   -13389095.52449 -10408441.42046  23205384.936    23205395.147
       220.000         165.000
  20534345.286   -13949227.37349 -10841142.95848  20534344.699    20534352.584
       245.000         217.000
  19815360.123   -19279431.51949 -15003640.59548  19815359.642    19815366.919
       245.000         219.000
 00  1  6 23  3  0.0000000  0  7G 2G26G27G 4G 9G 7G 8
  21401730.199    -2069665.41849  -1471879.58847  21401729.601    21401737.884
       242.000         208.000
  23048692.433    -8271730.43249  -6429897.57746  23048692.622    23048702.566
       224.000         175.000
  23148162.156    13139510.26749  10246262.79845  23148162.501    23148174.484
       217.000         161.000
  22585559.935   -15538479.87149 -12082109.05246  22585559.622    22585570.375
       223.000         173.000
  23188048.483   -13480201.22949 -10479432.72046  23188048.448    23188058.610
       218.000         166.000
  20538692.567   -13926382.18049 -10823341.49448  20538691.899    20538699.752
       245.000         217.000
  19815769.149   -19277282.01149 -15001965.64448  19815768.769    19815776.055
       245.000         219.000
 00  1  6 23  3 30.0000000  0  7G 2G26G27G 4G 9G 7G 8
  21405831.142    -2048114.69249  -1455086.81447  21405830.732    21405838.762
       243.000         208.000
  23058373.107    -8220858.33349  -6390257.04546  23058373.490    23058383.503
       225.000         175.000
  23168281.024    13245235.04049  10328645.60645  23168281.303    23168293.447
       216.000         161.000
  22566845.335   -15636824.89349 -12158741.38146  22566845.438    22566855.448
       224.000         173.000
  23170751.841   -13571095.12149 -10550258.96946  23170750.933    23170762.063
       220.000         167.000
  20543104.943   -13903194.94149 -10805273.50148  20543104.455    20543112.103
       245.000         217.000
  19816286.022   -19274565.84449 -14999849.13748  19816285.581    19816292.730
       245.000         219.000
 00  1  6 23  4  0.0000000  0  7G 2G26G27G 4G 9G 7G 8
  21409968.435    -2026372.81649  -1438145.09447  21409967.778    21409976.187
       242.000         208.000
  23068125.106    -8169611.35649  -6350324.40246  23068125.559    23068135.401
       225.000         175.000
  23188444.363    13351193.52649  10411210.52445  23188444.204    23188455.808
       216.000         161.000
  22548170.904   -15734959.16949 -12235209.49646  22548170.916    22548181.415
       223.000         173.000
  23153495.753   -13661776.10549 -10620919.32546  23153495.599    23153505.739
       220.000         168.000
  20547584.438   -13879654.93449 -10786930.63248  20547583.924    20547591.573
       245.000         217.000
  19816914.253   -19271264.30049 -14997276.49448  19816913.586    19816920.839
       246.000         219.000
 00  1  6 23  4 30.0000000  0  7G 2G26G27G 4G 9G 7G 8
  21414143.691    -2004431.33549  -1421047.83947  21414143.197    21414151.671
       242.000         208.000
  23077950.932    -8117976.79649  -6310089.75046  23077950.837    23077961.315
       224.000         175.000
  23208652.448    13457387.11049  10493958.64445  23208652.794    23208663.850
       216.000         160.000
  22529539.054   -15832869.15749 -12311502.83446  22529538.725    22529548.919
       224.000         173.000
  23136280.106   -13752244.60549 -10691414.10146  23136279.807    23136289.694
       220.000         168.000
  20552132.769   -13855753.27249 -10768305.95348  20552132.255    20552139.997
       245.000         217.000
  19817654.330   -19267374.86249 -14994245.75448  19817653.624    19817660.916
       245.000         219.000
 00  1  6 23  5  0.0000000  0  7G 2G26G27G 4G 9G 7G 8
  21418355.398    -1982298.76149  -1403801.67947  21418354.921    21418363.298
       241.000         208.000
  23087852.559    -8065943.80349  -6269544.62346  23087852.592    23087863.466
       223.000         174.000
  23228908.409    13563832.40849  10576902.90545  23228908.811    23228919.960
       216.000         159.000
  22510951.244   -15930547.95149 -12387616.02546  22510950.933    22510961.932
       226.000         174.000
  23119106.405   -13842492.96249 -10761737.34546  23119106.046    23119116.070
       221.000         170.000
  20556752.645   -13831475.61349 -10749388.28948  20556752.027    20556759.825
       245.000         217.000
  19818509.036   -19262883.15349 -14990745.71248  19818508.482    19818515.736
       245.000         219.000
 00  1  6 23  5 30.0000000  0  7G 2G26G27G 4G 9G 7G 8
  21422604.652    -1959968.83849  -1386401.74647  21422603.910    21422612.471
       242.000         207.000
  23097829.765    -8013513.04849  -6228689.56446  23097829.385    23097840.969
       224.000         174.000
  23249214.296    13670540.28049  10660051.76345  23249214.534    23249226.217
       214.000         158.000
  22492410.126   -16027981.66549 -12463538.24146  22492410.178    22492419.800
       225.000         174.000
  23101977.375   -13932506.07949 -10831877.28546  23101976.055    23101986.732
       222.000         171.000
  20561445.698   -13806813.23649 -10730170.84248  20561444.948    20561452.583
       245.000         217.000
  19819480.792   -19257776.28849 -14986766.32748  19819480.349    19819487.436
       245.000         219.000
 00  1  6 23  6  0.0000000  0  7G 2G26G27G 4G 9G 7G 8
  21426891.301    -1937442.29749  -1368848.60247  21426890.732    21426899.090
       242.000         207.000
  23107882.873    -7960683.90849  -6187524.07546  23107883.375    23107894.620
       223.000         174.000
  23269570.636    13777512.82149  10743406.85145  23269570.981    23269581.915
       216.000         158.000
  22473917.956   -16125158.43349 -12539260.23246  22473918.140    22473928.085
       225.000         175.000
  23084897.459   -14022260.79649 -10901815.88146  23084897.028    23084907.538
       223.000         172.000
  20566210.578   -13781773.39749 -10710659.27148  20566209.999    20566217.788
       245.000         217.000
  19820567.190   -19252067.14549 -14982317.63348  19820566.887    19820574.128
       245.000         219.000
 00  1  6 23  6 30.0000000  0  7G 2G26G27G 4G 9G 7G 8
  21431211.770    -1914738.30449  -1351157.18647  21431211.521    21431219.697
       242.000         207.000
  23118008.350    -7907474.31549  -6146062.13446  23118009.285    23118018.604
       224.000         174.000
  23289973.485    13884730.08749  10826952.64545  23289974.076    23289985.019
       215.000         158.000
  22455472.712   -16222088.35749 -12614789.88646  22455473.020    22455482.841
       226.000         175.000
  23067867.498   -14111753.20149 -10971550.08546  23067866.808    23067877.484
       223.000         173.000
  20571046.393   -13756360.88249 -10690857.30848  20571045.741    20571053.402
       245.000         217.000
  19821765.517   -19245770.00949 -14977410.76648  19821765.247    19821772.517
       245.000         219.000
 00  1  6 23  7  0.0000000  0  7G 2G26G27G 4G 9G 7G 8
  21435568.043    -1891846.30949  -1333319.27247  21435567.565    21435575.539
       242.000         207.000
  23128201.422    -7853909.86549  -6104323.66546  23128202.079    23128211.306
       222.000         173.000
  23310421.667    13992185.42849  10910683.95245  23310421.781    23310433.111
       214.000         158.000
  22437074.772   -16318769.74949 -12690125.88046  22437074.247    22437085.114
       227.000         175.000
  23050887.496   -14200983.24549 -11041079.84946  23050887.403    23050896.060
       223.000         173.000
  20575950.176   -13730591.09849 -10670776.95348  20575949.567    20575957.387
       245.000         217.000
  19823077.377   -19238876.36949 -14972039.08848  19823077.079    19823084.326
       245.000         219.000
 00  1  6 23  7 30.0000000  0  7G 2G26G27G 4G 9G 7G 8
  21439964.072    -1868745.00949  -1315318.26147  21439963.692    21439971.721
       242.000         207.000
  23138458.549    -7800008.14949  -6062322.39646  23138458.399    23138469.302
       221.000         172.000
  23330911.940    14099861.97549  10994587.61545  23330912.026    23330924.043
       216.000         158.000
  22418722.478   -16415211.08349 -12765274.80346  22418722.361    22418732.338
       227.000         175.000
  23033958.398   -14289945.33049 -11110400.81046  23033957.493    23033967.654
       223.000         173.000
  20580919.197   -13704478.59049 -10650429.54248  20580918.716    20580926.384
       245.000         217.000
  19824499.977   -19231400.49149 -14966213.72048  19824499.714    19824506.916
       245.000         219.000
 00  1  6 23  8  0.0000000  0  7G 2G26G27G 4G 9G 7G 8
  21444400.240    -1845432.90249  -1297152.97847  21444399.751    21444407.987
       242.000         207.000
  23148777.944    -7745779.31949  -6020066.24046  23148777.915    23148789.010
       221.000         171.000
  23351441.674    14207745.67149  11078652.69345  23351441.543    23351453.864
       216.000         158.000
  22400411.562   -16511434.71949 -12840254.09546  22400411.878    22400421.573
       227.000         176.000
  23017077.855   -14378652.51849 -11179523.14846  23017076.899    23017087.543
       222.000         172.000
  20585951.343   -13678034.47449 -10629823.73648  20585950.883    20585958.533
       245.000         217.000
  19826031.040   -19223354.99449 -14959944.49348  19826030.635    19826037.834
       245.000         219.000
 00  1  6 23  8 30.0000000  0  7G 2G26G27G 4G 9G 7G 8
  21448878.966    -1821897.06949  -1278813.37047  21448878.321    21448886.587
       242.000         207.000
  23159158.660    -7691228.79449  -5977559.41946  23159159.248    23159169.706
       221.000         171.000
  23372011.612    14315840.56949  11162882.34845  23372012.073    23372023.552
       215.000         157.000
  22382138.056   -16607462.04449 -12915080.41346  22382137.998    22382147.625
       228.000         176.000
  23000242.571   -14467122.06749 -11248460.30046  23000242.354    23000252.179
       222.000         171.000
  20591046.589   -13651258.98249 -10608959.71348  20591046.005    20591053.648
       245.000         217.000
  19827672.116   -19214730.99049 -14953224.48448  19827671.429    19827678.663
       245.000         219.000
 00  1  6 23  9  0.0000000  0  7G 2G26G27G 4G 9G 7G 8
  21453400.609    -1798135.51249  -1260297.87247  21453400.120    21453408.220
       241.000         207.000
  23169601.735    -7636350.73349  -5934797.37046  23169602.728    23169612.338
       223.000         171.000
  23392622.870    14424152.80649  11247281.35045  23392622.474    23392633.890
       216.000         156.000
  22363903.290   -16703285.99849 -12989748.25646  22363903.152    22363912.744
       229.000         177.000
  22983454.474   -14555343.85949 -11317204.41046  22983453.496    22983463.596
       221.000         171.000
  20596203.947   -13624156.90249 -10587841.20648  20596203.515    20596211.129
       246.000         217.000
  19829422.944   -19205530.21749 -14946055.04548  19829422.576    19829429.633
       245.000         219.000
 00  1  6 23  9 30.0000000  0  7G 2G26G27G 4G 9G 7G 8
  21457960.770    -1774171.60049  -1241624.69647  21457960.383    21457968.621
       241.000         206.000
  23180108.095    -7581139.57149  -5891775.76046  23180108.715    23180118.185
       223.000         171.000
  23413273.908    14532674.32149  11331843.42045  23413274.218    23413285.434
       215.000         156.000
  22345708.353   -16798900.25349 -13064252.69346  22345708.478    22345718.164
       228.000         177.000
  22966714.243   -14643313.79349 -11385752.24446  22966712.756    22966723.454
       221.000         170.000
  20601425.277   -13596718.86149 -10566460.91148  20601424.790    20601432.555
       245.000         217.000
  19831280.609   -19195768.16049 -14938448.24248  19831280.210    19831287.623
       245.000         219.000
